<?xml version="1.0" encoding="UTF-8" standalone="no" ?>
<gpx xmlns="http://www.topografix.com/GPX/1/1" xmlns:xsi="http://www.w3.org/2001/XMLSchema-instance" xsi:schemaLocation="http://www.topografix.com/GPX/1/1 http://www.topografix.com/GPX/1/1/gpx.xsd" version="1.1" creator="VisuGPX - https://www.visugpx.com">
  <metadata>
    <name>Entre l'Epte et l'Aubette de Magny</name>
    <desc><![CDATA[Randonnée de 24 km en boucle à partir de l'église de la Chapelle-en-Vexin. ]]></desc>
  </metadata>
  <trk>
    <name><![CDATA[Entre l'Epte et l'Aubette de Magny_R]]></name>
    <trkseg>
      <trkpt lat="49.1845" lon="1.73078">
        <ele>137.61</ele>
        <time>2016-05-15T07:30:18Z</time>
      </trkpt>
      <trkpt lat="49.18451" lon="1.73079">
        <ele>139.05</ele>
        <time>2016-05-15T07:30:23Z</time>
      </trkpt>
      <trkpt lat="49.1845" lon="1.73075">
        <ele>138.57</ele>
        <time>2016-05-15T07:30:39Z</time>
      </trkpt>
      <trkpt lat="49.18457" lon="1.73051">
        <ele>138.09</ele>
        <time>2016-05-15T07:30:54Z</time>
      </trkpt>
      <trkpt lat="49.18455" lon="1.73031">
        <ele>138.09</ele>
        <time>2016-05-15T07:31:09Z</time>
      </trkpt>
      <trkpt lat="49.18454" lon="1.73029">
        <ele>137.61</ele>
        <time>2016-05-15T07:31:13Z</time>
      </trkpt>
      <trkpt lat="49.18436" lon="1.7301">
        <ele>138.57</ele>
        <time>2016-05-15T07:31:29Z</time>
      </trkpt>
      <trkpt lat="49.1843" lon="1.73">
        <ele>138.09</ele>
        <time>2016-05-15T07:31:41Z</time>
      </trkpt>
      <trkpt lat="49.1842" lon="1.72993">
        <ele>138.09</ele>
        <time>2016-05-15T07:31:55Z</time>
      </trkpt>
      <trkpt lat="49.18401" lon="1.72975">
        <ele>137.13</ele>
        <time>2016-05-15T07:32:13Z</time>
      </trkpt>
      <trkpt lat="49.18394" lon="1.72966">
        <ele>137.13</ele>
        <time>2016-05-15T07:32:21Z</time>
      </trkpt>
      <trkpt lat="49.18377" lon="1.72959">
        <ele>137.61</ele>
        <time>2016-05-15T07:32:38Z</time>
      </trkpt>
      <trkpt lat="49.18365" lon="1.7296">
        <ele>137.61</ele>
        <time>2016-05-15T07:32:47Z</time>
      </trkpt>
      <trkpt lat="49.18361" lon="1.72962">
        <ele>137.13</ele>
        <time>2016-05-15T07:32:51Z</time>
      </trkpt>
      <trkpt lat="49.18352" lon="1.72961">
        <ele>137.13</ele>
        <time>2016-05-15T07:33:08Z</time>
      </trkpt>
      <trkpt lat="49.18346" lon="1.72957">
        <ele>136.16</ele>
        <time>2016-05-15T07:33:17Z</time>
      </trkpt>
      <trkpt lat="49.18341" lon="1.72954">
        <ele>135.2</ele>
        <time>2016-05-15T07:33:23Z</time>
      </trkpt>
      <trkpt lat="49.18337" lon="1.72946">
        <ele>134.72</ele>
        <time>2016-05-15T07:33:28Z</time>
      </trkpt>
      <trkpt lat="49.18322" lon="1.72929">
        <ele>133.28</ele>
        <time>2016-05-15T07:33:46Z</time>
      </trkpt>
      <trkpt lat="49.18312" lon="1.72913">
        <ele>130.88</ele>
        <time>2016-05-15T07:33:59Z</time>
      </trkpt>
      <trkpt lat="49.18311" lon="1.72895">
        <ele>129.43</ele>
        <time>2016-05-15T07:34:07Z</time>
      </trkpt>
      <trkpt lat="49.18324" lon="1.7287">
        <ele>128.47</ele>
        <time>2016-05-15T07:34:24Z</time>
      </trkpt>
      <trkpt lat="49.18335" lon="1.7285">
        <ele>125.59</ele>
        <time>2016-05-15T07:34:39Z</time>
      </trkpt>
      <trkpt lat="49.18345" lon="1.72833">
        <ele>125.11</ele>
        <time>2016-05-15T07:34:53Z</time>
      </trkpt>
      <trkpt lat="49.18351" lon="1.72806">
        <ele>122.22</ele>
        <time>2016-05-15T07:35:08Z</time>
      </trkpt>
      <trkpt lat="49.18359" lon="1.72796">
        <ele>122.22</ele>
        <time>2016-05-15T07:35:18Z</time>
      </trkpt>
      <trkpt lat="49.18362" lon="1.72791">
        <ele>121.26</ele>
        <time>2016-05-15T07:35:22Z</time>
      </trkpt>
      <trkpt lat="49.18371" lon="1.72766">
        <ele>119.34</ele>
        <time>2016-05-15T07:35:38Z</time>
      </trkpt>
      <trkpt lat="49.18372" lon="1.72763">
        <ele>118.86</ele>
        <time>2016-05-15T07:35:40Z</time>
      </trkpt>
      <trkpt lat="49.18381" lon="1.72734">
        <ele>118.86</ele>
        <time>2016-05-15T07:35:57Z</time>
      </trkpt>
      <trkpt lat="49.18389" lon="1.72716">
        <ele>116.94</ele>
        <time>2016-05-15T07:36:08Z</time>
      </trkpt>
      <trkpt lat="49.1839" lon="1.72711">
        <ele>116.94</ele>
        <time>2016-05-15T07:36:12Z</time>
      </trkpt>
      <trkpt lat="49.18398" lon="1.72688">
        <ele>115.5</ele>
        <time>2016-05-15T07:36:25Z</time>
      </trkpt>
      <trkpt lat="49.18403" lon="1.72676">
        <ele>115.98</ele>
        <time>2016-05-15T07:36:32Z</time>
      </trkpt>
      <trkpt lat="49.18416" lon="1.72644">
        <ele>115.01</ele>
        <time>2016-05-15T07:36:52Z</time>
      </trkpt>
      <trkpt lat="49.18418" lon="1.72637">
        <ele>115.98</ele>
        <time>2016-05-15T07:36:57Z</time>
      </trkpt>
      <trkpt lat="49.18427" lon="1.72614">
        <ele>115.01</ele>
        <time>2016-05-15T07:37:13Z</time>
      </trkpt>
      <trkpt lat="49.1843" lon="1.72603">
        <ele>115.01</ele>
        <time>2016-05-15T07:37:19Z</time>
      </trkpt>
      <trkpt lat="49.18438" lon="1.72577">
        <ele>114.53</ele>
        <time>2016-05-15T07:37:33Z</time>
      </trkpt>
      <trkpt lat="49.18439" lon="1.72576">
        <ele>115.01</ele>
        <time>2016-05-15T07:37:34Z</time>
      </trkpt>
      <trkpt lat="49.18442" lon="1.72566">
        <ele>115.01</ele>
        <time>2016-05-15T07:37:39Z</time>
      </trkpt>
      <trkpt lat="49.18445" lon="1.72557">
        <ele>115.01</ele>
        <time>2016-05-15T07:37:45Z</time>
      </trkpt>
      <trkpt lat="49.18447" lon="1.72553">
        <ele>115.01</ele>
        <time>2016-05-15T07:37:47Z</time>
      </trkpt>
      <trkpt lat="49.18453" lon="1.72536">
        <ele>115.5</ele>
        <time>2016-05-15T07:37:58Z</time>
      </trkpt>
      <trkpt lat="49.18453" lon="1.72528">
        <ele>115.5</ele>
        <time>2016-05-15T07:38:02Z</time>
      </trkpt>
      <trkpt lat="49.18463" lon="1.72497">
        <ele>115.01</ele>
        <time>2016-05-15T07:38:19Z</time>
      </trkpt>
      <trkpt lat="49.18469" lon="1.72467">
        <ele>115.5</ele>
        <time>2016-05-15T07:38:35Z</time>
      </trkpt>
      <trkpt lat="49.1847" lon="1.72458">
        <ele>115.5</ele>
        <time>2016-05-15T07:38:40Z</time>
      </trkpt>
      <trkpt lat="49.18474" lon="1.72424">
        <ele>115.5</ele>
        <time>2016-05-15T07:38:58Z</time>
      </trkpt>
      <trkpt lat="49.18477" lon="1.72388">
        <ele>115.5</ele>
        <time>2016-05-15T07:39:18Z</time>
      </trkpt>
      <trkpt lat="49.18477" lon="1.72353">
        <ele>115.98</ele>
        <time>2016-05-15T07:39:37Z</time>
      </trkpt>
      <trkpt lat="49.18473" lon="1.72324">
        <ele>116.46</ele>
        <time>2016-05-15T07:39:53Z</time>
      </trkpt>
      <trkpt lat="49.18467" lon="1.72293">
        <ele>116.94</ele>
        <time>2016-05-15T07:40:10Z</time>
      </trkpt>
      <trkpt lat="49.18465" lon="1.72277">
        <ele>117.42</ele>
        <time>2016-05-15T07:40:20Z</time>
      </trkpt>
      <trkpt lat="49.18463" lon="1.72273">
        <ele>117.42</ele>
        <time>2016-05-15T07:40:23Z</time>
      </trkpt>
      <trkpt lat="49.18458" lon="1.72252">
        <ele>117.42</ele>
        <time>2016-05-15T07:40:36Z</time>
      </trkpt>
      <trkpt lat="49.18455" lon="1.72237">
        <ele>117.9</ele>
        <time>2016-05-15T07:40:45Z</time>
      </trkpt>
      <trkpt lat="49.18451" lon="1.72213">
        <ele>118.38</ele>
        <time>2016-05-15T07:40:59Z</time>
      </trkpt>
      <trkpt lat="49.18446" lon="1.72187">
        <ele>118.86</ele>
        <time>2016-05-15T07:41:14Z</time>
      </trkpt>
      <trkpt lat="49.18441" lon="1.7216">
        <ele>118.86</ele>
        <time>2016-05-15T07:41:29Z</time>
      </trkpt>
      <trkpt lat="49.18437" lon="1.72142">
        <ele>119.34</ele>
        <time>2016-05-15T07:41:40Z</time>
      </trkpt>
      <trkpt lat="49.18433" lon="1.72121">
        <ele>119.82</ele>
        <time>2016-05-15T07:41:54Z</time>
      </trkpt>
      <trkpt lat="49.18432" lon="1.72119">
        <ele>119.82</ele>
        <time>2016-05-15T07:42:10Z</time>
      </trkpt>
      <trkpt lat="49.18433" lon="1.72116">
        <ele>120.3</ele>
        <time>2016-05-15T07:42:34Z</time>
      </trkpt>
      <trkpt lat="49.18432" lon="1.72113">
        <ele>119.82</ele>
        <time>2016-05-15T07:42:49Z</time>
      </trkpt>
      <trkpt lat="49.18431" lon="1.72106">
        <ele>120.3</ele>
        <time>2016-05-15T07:43:09Z</time>
      </trkpt>
      <trkpt lat="49.18424" lon="1.72089">
        <ele>120.3</ele>
        <time>2016-05-15T07:43:24Z</time>
      </trkpt>
      <trkpt lat="49.1842" lon="1.72067">
        <ele>120.78</ele>
        <time>2016-05-15T07:43:40Z</time>
      </trkpt>
      <trkpt lat="49.18416" lon="1.72055">
        <ele>120.78</ele>
        <time>2016-05-15T07:43:52Z</time>
      </trkpt>
      <trkpt lat="49.18406" lon="1.72029">
        <ele>120.78</ele>
        <time>2016-05-15T07:44:09Z</time>
      </trkpt>
      <trkpt lat="49.18397" lon="1.72005">
        <ele>121.26</ele>
        <time>2016-05-15T07:44:24Z</time>
      </trkpt>
      <trkpt lat="49.1839" lon="1.71994">
        <ele>121.26</ele>
        <time>2016-05-15T07:44:31Z</time>
      </trkpt>
      <trkpt lat="49.18371" lon="1.71962">
        <ele>121.26</ele>
        <time>2016-05-15T07:44:52Z</time>
      </trkpt>
      <trkpt lat="49.18358" lon="1.71938">
        <ele>121.74</ele>
        <time>2016-05-15T07:45:11Z</time>
      </trkpt>
      <trkpt lat="49.18347" lon="1.71914">
        <ele>121.74</ele>
        <time>2016-05-15T07:45:28Z</time>
      </trkpt>
      <trkpt lat="49.18335" lon="1.71892">
        <ele>121.26</ele>
        <time>2016-05-15T07:45:44Z</time>
      </trkpt>
      <trkpt lat="49.18326" lon="1.71871">
        <ele>121.26</ele>
        <time>2016-05-15T07:45:59Z</time>
      </trkpt>
      <trkpt lat="49.18316" lon="1.71846">
        <ele>120.3</ele>
        <time>2016-05-15T07:46:16Z</time>
      </trkpt>
      <trkpt lat="49.18307" lon="1.71818">
        <ele>120.3</ele>
        <time>2016-05-15T07:46:33Z</time>
      </trkpt>
      <trkpt lat="49.18302" lon="1.71798">
        <ele>119.82</ele>
        <time>2016-05-15T07:46:45Z</time>
      </trkpt>
      <trkpt lat="49.18294" lon="1.71765">
        <ele>119.34</ele>
        <time>2016-05-15T07:47:05Z</time>
      </trkpt>
      <trkpt lat="49.18286" lon="1.71737">
        <ele>118.38</ele>
        <time>2016-05-15T07:47:22Z</time>
      </trkpt>
      <trkpt lat="49.18285" lon="1.7173">
        <ele>118.38</ele>
        <time>2016-05-15T07:47:26Z</time>
      </trkpt>
      <trkpt lat="49.18278" lon="1.71703">
        <ele>116.94</ele>
        <time>2016-05-15T07:47:44Z</time>
      </trkpt>
      <trkpt lat="49.18275" lon="1.7169">
        <ele>116.94</ele>
        <time>2016-05-15T07:47:51Z</time>
      </trkpt>
      <trkpt lat="49.18267" lon="1.71663">
        <ele>116.94</ele>
        <time>2016-05-15T07:48:08Z</time>
      </trkpt>
      <trkpt lat="49.1826" lon="1.71641">
        <ele>115.98</ele>
        <time>2016-05-15T07:48:23Z</time>
      </trkpt>
      <trkpt lat="49.18253" lon="1.71616">
        <ele>115.01</ele>
        <time>2016-05-15T07:48:39Z</time>
      </trkpt>
      <trkpt lat="49.18249" lon="1.716">
        <ele>115.01</ele>
        <time>2016-05-15T07:48:49Z</time>
      </trkpt>
      <trkpt lat="49.18241" lon="1.71573">
        <ele>114.53</ele>
        <time>2016-05-15T07:49:07Z</time>
      </trkpt>
      <trkpt lat="49.18239" lon="1.71561">
        <ele>115.01</ele>
        <time>2016-05-15T07:49:17Z</time>
      </trkpt>
      <trkpt lat="49.18232" lon="1.71536">
        <ele>114.53</ele>
        <time>2016-05-15T07:49:33Z</time>
      </trkpt>
      <trkpt lat="49.18227" lon="1.71514">
        <ele>115.01</ele>
        <time>2016-05-15T07:49:50Z</time>
      </trkpt>
      <trkpt lat="49.1822" lon="1.7149">
        <ele>115.01</ele>
        <time>2016-05-15T07:50:03Z</time>
      </trkpt>
      <trkpt lat="49.18215" lon="1.71472">
        <ele>115.01</ele>
        <time>2016-05-15T07:50:14Z</time>
      </trkpt>
      <trkpt lat="49.18217" lon="1.71453">
        <ele>115.5</ele>
        <time>2016-05-15T07:50:26Z</time>
      </trkpt>
      <trkpt lat="49.18222" lon="1.71445">
        <ele>115.5</ele>
        <time>2016-05-15T07:50:35Z</time>
      </trkpt>
      <trkpt lat="49.18223" lon="1.71443">
        <ele>115.5</ele>
        <time>2016-05-15T07:50:37Z</time>
      </trkpt>
      <trkpt lat="49.18232" lon="1.71421">
        <ele>115.98</ele>
        <time>2016-05-15T07:50:54Z</time>
      </trkpt>
      <trkpt lat="49.18233" lon="1.71421">
        <ele>115.98</ele>
        <time>2016-05-15T07:51:03Z</time>
      </trkpt>
      <trkpt lat="49.18242" lon="1.71396">
        <ele>116.46</ele>
        <time>2016-05-15T07:51:19Z</time>
      </trkpt>
      <trkpt lat="49.18244" lon="1.7139">
        <ele>115.98</ele>
        <time>2016-05-15T07:51:23Z</time>
      </trkpt>
      <trkpt lat="49.18253" lon="1.71368">
        <ele>115.98</ele>
        <time>2016-05-15T07:51:39Z</time>
      </trkpt>
      <trkpt lat="49.18262" lon="1.71348">
        <ele>116.46</ele>
        <time>2016-05-15T07:51:54Z</time>
      </trkpt>
      <trkpt lat="49.18274" lon="1.71326">
        <ele>116.94</ele>
        <time>2016-05-15T07:52:11Z</time>
      </trkpt>
      <trkpt lat="49.18284" lon="1.71306">
        <ele>117.42</ele>
        <time>2016-05-15T07:52:26Z</time>
      </trkpt>
      <trkpt lat="49.18297" lon="1.71282">
        <ele>117.42</ele>
        <time>2016-05-15T07:52:44Z</time>
      </trkpt>
      <trkpt lat="49.18308" lon="1.7126">
        <ele>117.42</ele>
        <time>2016-05-15T07:53:00Z</time>
      </trkpt>
      <trkpt lat="49.18318" lon="1.71237">
        <ele>117.9</ele>
        <time>2016-05-15T07:53:16Z</time>
      </trkpt>
      <trkpt lat="49.18324" lon="1.71217">
        <ele>117.42</ele>
        <time>2016-05-15T07:53:30Z</time>
      </trkpt>
      <trkpt lat="49.18334" lon="1.71198">
        <ele>118.38</ele>
        <time>2016-05-15T07:53:44Z</time>
      </trkpt>
      <trkpt lat="49.18346" lon="1.71171">
        <ele>118.38</ele>
        <time>2016-05-15T07:54:02Z</time>
      </trkpt>
      <trkpt lat="49.18352" lon="1.71158">
        <ele>118.38</ele>
        <time>2016-05-15T07:54:11Z</time>
      </trkpt>
      <trkpt lat="49.18363" lon="1.71131">
        <ele>118.38</ele>
        <time>2016-05-15T07:54:28Z</time>
      </trkpt>
      <trkpt lat="49.1837" lon="1.71113">
        <ele>118.38</ele>
        <time>2016-05-15T07:54:42Z</time>
      </trkpt>
      <trkpt lat="49.1838" lon="1.71087">
        <ele>117.9</ele>
        <time>2016-05-15T07:54:59Z</time>
      </trkpt>
      <trkpt lat="49.18383" lon="1.71075">
        <ele>118.38</ele>
        <time>2016-05-15T07:55:06Z</time>
      </trkpt>
      <trkpt lat="49.18393" lon="1.7105">
        <ele>117.9</ele>
        <time>2016-05-15T07:55:22Z</time>
      </trkpt>
      <trkpt lat="49.18407" lon="1.7102">
        <ele>117.9</ele>
        <time>2016-05-15T07:55:41Z</time>
      </trkpt>
      <trkpt lat="49.18419" lon="1.70994">
        <ele>117.42</ele>
        <time>2016-05-15T07:55:58Z</time>
      </trkpt>
      <trkpt lat="49.18429" lon="1.7097">
        <ele>117.42</ele>
        <time>2016-05-15T07:56:14Z</time>
      </trkpt>
      <trkpt lat="49.1843" lon="1.70968">
        <ele>117.42</ele>
        <time>2016-05-15T07:56:15Z</time>
      </trkpt>
      <trkpt lat="49.18434" lon="1.70958">
        <ele>117.42</ele>
        <time>2016-05-15T07:56:31Z</time>
      </trkpt>
      <trkpt lat="49.18433" lon="1.70961">
        <ele>117.42</ele>
        <time>2016-05-15T07:56:57Z</time>
      </trkpt>
      <trkpt lat="49.18435" lon="1.70958">
        <ele>117.42</ele>
        <time>2016-05-15T07:57:25Z</time>
      </trkpt>
      <trkpt lat="49.18435" lon="1.70957">
        <ele>116.94</ele>
        <time>2016-05-15T07:57:51Z</time>
      </trkpt>
      <trkpt lat="49.18436" lon="1.70954">
        <ele>116.94</ele>
        <time>2016-05-15T07:58:15Z</time>
      </trkpt>
      <trkpt lat="49.18439" lon="1.70957">
        <ele>116.94</ele>
        <time>2016-05-15T07:58:49Z</time>
      </trkpt>
      <trkpt lat="49.18438" lon="1.70956">
        <ele>116.94</ele>
        <time>2016-05-15T07:59:10Z</time>
      </trkpt>
      <trkpt lat="49.18441" lon="1.70954">
        <ele>116.46</ele>
        <time>2016-05-15T07:59:28Z</time>
      </trkpt>
      <trkpt lat="49.18437" lon="1.7095">
        <ele>116.46</ele>
        <time>2016-05-15T07:59:46Z</time>
      </trkpt>
      <trkpt lat="49.18437" lon="1.7095">
        <ele>116.46</ele>
        <time>2016-05-15T08:00:05Z</time>
      </trkpt>
      <trkpt lat="49.18443" lon="1.70945">
        <ele>116.46</ele>
        <time>2016-05-15T08:00:20Z</time>
      </trkpt>
      <trkpt lat="49.18445" lon="1.70938">
        <ele>116.46</ele>
        <time>2016-05-15T08:00:24Z</time>
      </trkpt>
      <trkpt lat="49.18449" lon="1.70918">
        <ele>116.46</ele>
        <time>2016-05-15T08:00:38Z</time>
      </trkpt>
      <trkpt lat="49.18459" lon="1.70894">
        <ele>115.98</ele>
        <time>2016-05-15T08:00:53Z</time>
      </trkpt>
      <trkpt lat="49.18459" lon="1.70891">
        <ele>115.98</ele>
        <time>2016-05-15T08:00:56Z</time>
      </trkpt>
      <trkpt lat="49.18466" lon="1.70864">
        <ele>115.5</ele>
        <time>2016-05-15T08:01:13Z</time>
      </trkpt>
      <trkpt lat="49.18469" lon="1.70852">
        <ele>115.5</ele>
        <time>2016-05-15T08:01:20Z</time>
      </trkpt>
      <trkpt lat="49.18481" lon="1.70819">
        <ele>114.53</ele>
        <time>2016-05-15T08:01:40Z</time>
      </trkpt>
      <trkpt lat="49.18483" lon="1.70811">
        <ele>115.01</ele>
        <time>2016-05-15T08:01:47Z</time>
      </trkpt>
      <trkpt lat="49.18489" lon="1.70797">
        <ele>114.53</ele>
        <time>2016-05-15T08:02:00Z</time>
      </trkpt>
      <trkpt lat="49.18491" lon="1.70794">
        <ele>114.05</ele>
        <time>2016-05-15T08:02:02Z</time>
      </trkpt>
      <trkpt lat="49.18503" lon="1.70771">
        <ele>113.09</ele>
        <time>2016-05-15T08:02:18Z</time>
      </trkpt>
      <trkpt lat="49.18513" lon="1.70752">
        <ele>114.05</ele>
        <time>2016-05-15T08:02:33Z</time>
      </trkpt>
      <trkpt lat="49.18526" lon="1.70728">
        <ele>113.09</ele>
        <time>2016-05-15T08:02:51Z</time>
      </trkpt>
      <trkpt lat="49.18535" lon="1.70713">
        <ele>113.09</ele>
        <time>2016-05-15T08:03:04Z</time>
      </trkpt>
      <trkpt lat="49.18542" lon="1.70702">
        <ele>113.09</ele>
        <time>2016-05-15T08:03:16Z</time>
      </trkpt>
      <trkpt lat="49.18548" lon="1.70691">
        <ele>113.09</ele>
        <time>2016-05-15T08:03:25Z</time>
      </trkpt>
      <trkpt lat="49.18554" lon="1.70679">
        <ele>112.61</ele>
        <time>2016-05-15T08:03:34Z</time>
      </trkpt>
      <trkpt lat="49.18567" lon="1.70656">
        <ele>112.61</ele>
        <time>2016-05-15T08:03:51Z</time>
      </trkpt>
      <trkpt lat="49.18574" lon="1.7064">
        <ele>111.65</ele>
        <time>2016-05-15T08:04:04Z</time>
      </trkpt>
      <trkpt lat="49.18576" lon="1.70639">
        <ele>112.13</ele>
        <time>2016-05-15T08:04:06Z</time>
      </trkpt>
      <trkpt lat="49.1858" lon="1.70631">
        <ele>112.13</ele>
        <time>2016-05-15T08:04:18Z</time>
      </trkpt>
      <trkpt lat="49.18581" lon="1.70631">
        <ele>112.13</ele>
        <time>2016-05-15T08:04:20Z</time>
      </trkpt>
      <trkpt lat="49.18593" lon="1.70606">
        <ele>111.65</ele>
        <time>2016-05-15T08:04:37Z</time>
      </trkpt>
      <trkpt lat="49.18608" lon="1.70578">
        <ele>111.65</ele>
        <time>2016-05-15T08:04:55Z</time>
      </trkpt>
      <trkpt lat="49.18622" lon="1.70553">
        <ele>111.65</ele>
        <time>2016-05-15T08:05:11Z</time>
      </trkpt>
      <trkpt lat="49.18634" lon="1.70531">
        <ele>111.17</ele>
        <time>2016-05-15T08:05:27Z</time>
      </trkpt>
      <trkpt lat="49.18645" lon="1.70505">
        <ele>110.69</ele>
        <time>2016-05-15T08:05:43Z</time>
      </trkpt>
      <trkpt lat="49.18652" lon="1.70491">
        <ele>110.69</ele>
        <time>2016-05-15T08:05:57Z</time>
      </trkpt>
      <trkpt lat="49.18663" lon="1.70476">
        <ele>109.73</ele>
        <time>2016-05-15T08:06:10Z</time>
      </trkpt>
      <trkpt lat="49.18673" lon="1.70453">
        <ele>109.73</ele>
        <time>2016-05-15T08:06:25Z</time>
      </trkpt>
      <trkpt lat="49.18685" lon="1.70429">
        <ele>109.25</ele>
        <time>2016-05-15T08:06:40Z</time>
      </trkpt>
      <trkpt lat="49.18698" lon="1.70404">
        <ele>108.77</ele>
        <time>2016-05-15T08:06:57Z</time>
      </trkpt>
      <trkpt lat="49.1871" lon="1.70382">
        <ele>108.29</ele>
        <time>2016-05-15T08:07:12Z</time>
      </trkpt>
      <trkpt lat="49.18722" lon="1.70362">
        <ele>107.32</ele>
        <time>2016-05-15T08:07:26Z</time>
      </trkpt>
      <trkpt lat="49.18735" lon="1.70335">
        <ele>107.32</ele>
        <time>2016-05-15T08:07:44Z</time>
      </trkpt>
      <trkpt lat="49.18743" lon="1.7032">
        <ele>106.84</ele>
        <time>2016-05-15T08:07:54Z</time>
      </trkpt>
      <trkpt lat="49.18755" lon="1.70297">
        <ele>106.36</ele>
        <time>2016-05-15T08:08:11Z</time>
      </trkpt>
      <trkpt lat="49.18768" lon="1.70275">
        <ele>106.36</ele>
        <time>2016-05-15T08:08:27Z</time>
      </trkpt>
      <trkpt lat="49.18778" lon="1.70254">
        <ele>105.4</ele>
        <time>2016-05-15T08:08:41Z</time>
      </trkpt>
      <trkpt lat="49.18784" lon="1.70241">
        <ele>105.4</ele>
        <time>2016-05-15T08:08:49Z</time>
      </trkpt>
      <trkpt lat="49.18799" lon="1.70213">
        <ele>104.44</ele>
        <time>2016-05-15T08:09:08Z</time>
      </trkpt>
      <trkpt lat="49.1881" lon="1.70189">
        <ele>103.96</ele>
        <time>2016-05-15T08:09:23Z</time>
      </trkpt>
      <trkpt lat="49.18814" lon="1.70177">
        <ele>103.96</ele>
        <time>2016-05-15T08:09:30Z</time>
      </trkpt>
      <trkpt lat="49.18827" lon="1.70153">
        <ele>103.48</ele>
        <time>2016-05-15T08:09:46Z</time>
      </trkpt>
      <trkpt lat="49.1884" lon="1.70123">
        <ele>103</ele>
        <time>2016-05-15T08:10:05Z</time>
      </trkpt>
      <trkpt lat="49.1885" lon="1.70098">
        <ele>101.56</ele>
        <time>2016-05-15T08:10:20Z</time>
      </trkpt>
      <trkpt lat="49.18853" lon="1.70088">
        <ele>102.04</ele>
        <time>2016-05-15T08:10:25Z</time>
      </trkpt>
      <trkpt lat="49.18865" lon="1.7006">
        <ele>101.08</ele>
        <time>2016-05-15T08:10:42Z</time>
      </trkpt>
      <trkpt lat="49.18869" lon="1.7005">
        <ele>101.08</ele>
        <time>2016-05-15T08:10:49Z</time>
      </trkpt>
      <trkpt lat="49.18884" lon="1.70027">
        <ele>100.11</ele>
        <time>2016-05-15T08:11:06Z</time>
      </trkpt>
      <trkpt lat="49.18893" lon="1.70011">
        <ele>100.11</ele>
        <time>2016-05-15T08:11:20Z</time>
      </trkpt>
      <trkpt lat="49.18902" lon="1.69997">
        <ele>99.63</ele>
        <time>2016-05-15T08:11:30Z</time>
      </trkpt>
      <trkpt lat="49.18913" lon="1.69977">
        <ele>99.15</ele>
        <time>2016-05-15T08:11:45Z</time>
      </trkpt>
      <trkpt lat="49.18921" lon="1.69965">
        <ele>98.67</ele>
        <time>2016-05-15T08:11:54Z</time>
      </trkpt>
      <trkpt lat="49.18937" lon="1.69941">
        <ele>97.71</ele>
        <time>2016-05-15T08:12:12Z</time>
      </trkpt>
      <trkpt lat="49.18952" lon="1.69918">
        <ele>97.23</ele>
        <time>2016-05-15T08:12:30Z</time>
      </trkpt>
      <trkpt lat="49.18966" lon="1.69899">
        <ele>96.27</ele>
        <time>2016-05-15T08:12:46Z</time>
      </trkpt>
      <trkpt lat="49.18983" lon="1.69879">
        <ele>95.31</ele>
        <time>2016-05-15T08:13:05Z</time>
      </trkpt>
      <trkpt lat="49.19" lon="1.6986">
        <ele>94.35</ele>
        <time>2016-05-15T08:13:23Z</time>
      </trkpt>
      <trkpt lat="49.19002" lon="1.69856">
        <ele>94.83</ele>
        <time>2016-05-15T08:13:26Z</time>
      </trkpt>
      <trkpt lat="49.19006" lon="1.69853">
        <ele>94.83</ele>
        <time>2016-05-15T08:13:34Z</time>
      </trkpt>
      <trkpt lat="49.19022" lon="1.69836">
        <ele>94.35</ele>
        <time>2016-05-15T08:13:50Z</time>
      </trkpt>
      <trkpt lat="49.19024" lon="1.69833">
        <ele>94.35</ele>
        <time>2016-05-15T08:13:53Z</time>
      </trkpt>
      <trkpt lat="49.19038" lon="1.69819">
        <ele>93.87</ele>
        <time>2016-05-15T08:14:08Z</time>
      </trkpt>
      <trkpt lat="49.19045" lon="1.69811">
        <ele>93.87</ele>
        <time>2016-05-15T08:14:21Z</time>
      </trkpt>
      <trkpt lat="49.1905" lon="1.69806">
        <ele>93.39</ele>
        <time>2016-05-15T08:14:26Z</time>
      </trkpt>
      <trkpt lat="49.19064" lon="1.69793">
        <ele>93.39</ele>
        <time>2016-05-15T08:14:41Z</time>
      </trkpt>
      <trkpt lat="49.19081" lon="1.69779">
        <ele>93.39</ele>
        <time>2016-05-15T08:14:56Z</time>
      </trkpt>
      <trkpt lat="49.19087" lon="1.69774">
        <ele>92.9</ele>
        <time>2016-05-15T08:15:02Z</time>
      </trkpt>
      <trkpt lat="49.19096" lon="1.69767">
        <ele>93.39</ele>
        <time>2016-05-15T08:15:15Z</time>
      </trkpt>
      <trkpt lat="49.19107" lon="1.69758">
        <ele>92.9</ele>
        <time>2016-05-15T08:15:27Z</time>
      </trkpt>
      <trkpt lat="49.19115" lon="1.69751">
        <ele>93.39</ele>
        <time>2016-05-15T08:15:35Z</time>
      </trkpt>
      <trkpt lat="49.19133" lon="1.69734">
        <ele>93.39</ele>
        <time>2016-05-15T08:15:53Z</time>
      </trkpt>
      <trkpt lat="49.1915" lon="1.69722">
        <ele>93.39</ele>
        <time>2016-05-15T08:16:07Z</time>
      </trkpt>
      <trkpt lat="49.19165" lon="1.69702">
        <ele>93.87</ele>
        <time>2016-05-15T08:16:24Z</time>
      </trkpt>
      <trkpt lat="49.19175" lon="1.69677">
        <ele>95.31</ele>
        <time>2016-05-15T08:16:40Z</time>
      </trkpt>
      <trkpt lat="49.19177" lon="1.69672">
        <ele>95.31</ele>
        <time>2016-05-15T08:16:44Z</time>
      </trkpt>
      <trkpt lat="49.19183" lon="1.69648">
        <ele>96.27</ele>
        <time>2016-05-15T08:16:59Z</time>
      </trkpt>
      <trkpt lat="49.1919" lon="1.69627">
        <ele>97.23</ele>
        <time>2016-05-15T08:17:13Z</time>
      </trkpt>
      <trkpt lat="49.19197" lon="1.69605">
        <ele>97.71</ele>
        <time>2016-05-15T08:17:28Z</time>
      </trkpt>
      <trkpt lat="49.19198" lon="1.69602">
        <ele>98.67</ele>
        <time>2016-05-15T08:17:45Z</time>
      </trkpt>
      <trkpt lat="49.19197" lon="1.69601">
        <ele>98.67</ele>
        <time>2016-05-15T08:18:05Z</time>
      </trkpt>
      <trkpt lat="49.19194" lon="1.69596">
        <ele>98.67</ele>
        <time>2016-05-15T08:18:20Z</time>
      </trkpt>
      <trkpt lat="49.19178" lon="1.69595">
        <ele>99.15</ele>
        <time>2016-05-15T08:18:36Z</time>
      </trkpt>
      <trkpt lat="49.19172" lon="1.69595">
        <ele>99.63</ele>
        <time>2016-05-15T08:18:47Z</time>
      </trkpt>
      <trkpt lat="49.19171" lon="1.69593">
        <ele>99.15</ele>
        <time>2016-05-15T08:19:01Z</time>
      </trkpt>
      <trkpt lat="49.19167" lon="1.69587">
        <ele>100.11</ele>
        <time>2016-05-15T08:19:05Z</time>
      </trkpt>
      <trkpt lat="49.19157" lon="1.6958">
        <ele>100.6</ele>
        <time>2016-05-15T08:19:13Z</time>
      </trkpt>
      <trkpt lat="49.19139" lon="1.69572">
        <ele>101.56</ele>
        <time>2016-05-15T08:19:30Z</time>
      </trkpt>
      <trkpt lat="49.19128" lon="1.69563">
        <ele>102.52</ele>
        <time>2016-05-15T08:19:43Z</time>
      </trkpt>
      <trkpt lat="49.19122" lon="1.69563">
        <ele>103</ele>
        <time>2016-05-15T08:19:47Z</time>
      </trkpt>
      <trkpt lat="49.19117" lon="1.69559">
        <ele>103.48</ele>
        <time>2016-05-15T08:19:53Z</time>
      </trkpt>
      <trkpt lat="49.19112" lon="1.69558">
        <ele>103.48</ele>
        <time>2016-05-15T08:19:57Z</time>
      </trkpt>
      <trkpt lat="49.19105" lon="1.69552">
        <ele>103.96</ele>
        <time>2016-05-15T08:20:03Z</time>
      </trkpt>
      <trkpt lat="49.1909" lon="1.69547">
        <ele>104.92</ele>
        <time>2016-05-15T08:20:16Z</time>
      </trkpt>
      <trkpt lat="49.19089" lon="1.69547">
        <ele>105.4</ele>
        <time>2016-05-15T08:20:17Z</time>
      </trkpt>
      <trkpt lat="49.19075" lon="1.69539">
        <ele>106.36</ele>
        <time>2016-05-15T08:20:31Z</time>
      </trkpt>
      <trkpt lat="49.19061" lon="1.69532">
        <ele>107.81</ele>
        <time>2016-05-15T08:20:43Z</time>
      </trkpt>
      <trkpt lat="49.1905" lon="1.69529">
        <ele>108.29</ele>
        <time>2016-05-15T08:20:53Z</time>
      </trkpt>
      <trkpt lat="49.19036" lon="1.69522">
        <ele>109.73</ele>
        <time>2016-05-15T08:21:07Z</time>
      </trkpt>
      <trkpt lat="49.1903" lon="1.69518">
        <ele>110.21</ele>
        <time>2016-05-15T08:21:12Z</time>
      </trkpt>
      <trkpt lat="49.19017" lon="1.69514">
        <ele>110.69</ele>
        <time>2016-05-15T08:21:24Z</time>
      </trkpt>
      <trkpt lat="49.19005" lon="1.69507">
        <ele>111.65</ele>
        <time>2016-05-15T08:21:35Z</time>
      </trkpt>
      <trkpt lat="49.18995" lon="1.69503">
        <ele>112.13</ele>
        <time>2016-05-15T08:21:45Z</time>
      </trkpt>
      <trkpt lat="49.18979" lon="1.69493">
        <ele>113.09</ele>
        <time>2016-05-15T08:21:58Z</time>
      </trkpt>
      <trkpt lat="49.18963" lon="1.6948">
        <ele>114.05</ele>
        <time>2016-05-15T08:22:13Z</time>
      </trkpt>
      <trkpt lat="49.18962" lon="1.69479">
        <ele>114.53</ele>
        <time>2016-05-15T08:22:14Z</time>
      </trkpt>
      <trkpt lat="49.18959" lon="1.69476">
        <ele>114.05</ele>
        <time>2016-05-15T08:22:17Z</time>
      </trkpt>
      <trkpt lat="49.18952" lon="1.69475">
        <ele>115.01</ele>
        <time>2016-05-15T08:22:32Z</time>
      </trkpt>
      <trkpt lat="49.18942" lon="1.69463">
        <ele>115.98</ele>
        <time>2016-05-15T08:22:49Z</time>
      </trkpt>
      <trkpt lat="49.18932" lon="1.69454">
        <ele>116.46</ele>
        <time>2016-05-15T08:23:00Z</time>
      </trkpt>
      <trkpt lat="49.1892" lon="1.69445">
        <ele>117.42</ele>
        <time>2016-05-15T08:23:12Z</time>
      </trkpt>
      <trkpt lat="49.18918" lon="1.69444">
        <ele>117.42</ele>
        <time>2016-05-15T08:23:14Z</time>
      </trkpt>
      <trkpt lat="49.18909" lon="1.69435">
        <ele>118.38</ele>
        <time>2016-05-15T08:23:24Z</time>
      </trkpt>
      <trkpt lat="49.18905" lon="1.69433">
        <ele>118.38</ele>
        <time>2016-05-15T08:23:29Z</time>
      </trkpt>
      <trkpt lat="49.18887" lon="1.69421">
        <ele>119.82</ele>
        <time>2016-05-15T08:23:45Z</time>
      </trkpt>
      <trkpt lat="49.18868" lon="1.69406">
        <ele>121.26</ele>
        <time>2016-05-15T08:24:00Z</time>
      </trkpt>
      <trkpt lat="49.18851" lon="1.69392">
        <ele>122.22</ele>
        <time>2016-05-15T08:24:16Z</time>
      </trkpt>
      <trkpt lat="49.18841" lon="1.69385">
        <ele>123.19</ele>
        <time>2016-05-15T08:24:27Z</time>
      </trkpt>
      <trkpt lat="49.18827" lon="1.69375">
        <ele>124.15</ele>
        <time>2016-05-15T08:24:39Z</time>
      </trkpt>
      <trkpt lat="49.18811" lon="1.69366">
        <ele>126.07</ele>
        <time>2016-05-15T08:24:54Z</time>
      </trkpt>
      <trkpt lat="49.18795" lon="1.69359">
        <ele>127.51</ele>
        <time>2016-05-15T08:25:08Z</time>
      </trkpt>
      <trkpt lat="49.18788" lon="1.69354">
        <ele>127.99</ele>
        <time>2016-05-15T08:25:15Z</time>
      </trkpt>
      <trkpt lat="49.18779" lon="1.69351">
        <ele>128.47</ele>
        <time>2016-05-15T08:25:23Z</time>
      </trkpt>
      <trkpt lat="49.18763" lon="1.69358">
        <ele>128.95</ele>
        <time>2016-05-15T08:25:37Z</time>
      </trkpt>
      <trkpt lat="49.18749" lon="1.69363">
        <ele>129.92</ele>
        <time>2016-05-15T08:25:50Z</time>
      </trkpt>
      <trkpt lat="49.18731" lon="1.6937">
        <ele>130.4</ele>
        <time>2016-05-15T08:26:05Z</time>
      </trkpt>
      <trkpt lat="49.18711" lon="1.6938">
        <ele>130.88</ele>
        <time>2016-05-15T08:26:21Z</time>
      </trkpt>
      <trkpt lat="49.18695" lon="1.69387">
        <ele>131.84</ele>
        <time>2016-05-15T08:26:36Z</time>
      </trkpt>
      <trkpt lat="49.18678" lon="1.69399">
        <ele>131.84</ele>
        <time>2016-05-15T08:26:51Z</time>
      </trkpt>
      <trkpt lat="49.18665" lon="1.69411">
        <ele>131.84</ele>
        <time>2016-05-15T08:27:05Z</time>
      </trkpt>
      <trkpt lat="49.18649" lon="1.69427">
        <ele>132.32</ele>
        <time>2016-05-15T08:27:20Z</time>
      </trkpt>
      <trkpt lat="49.18631" lon="1.69444">
        <ele>131.84</ele>
        <time>2016-05-15T08:27:38Z</time>
      </trkpt>
      <trkpt lat="49.18619" lon="1.69454">
        <ele>131.84</ele>
        <time>2016-05-15T08:27:50Z</time>
      </trkpt>
      <trkpt lat="49.18615" lon="1.69459">
        <ele>131.84</ele>
        <time>2016-05-15T08:27:54Z</time>
      </trkpt>
      <trkpt lat="49.18597" lon="1.69476">
        <ele>131.84</ele>
        <time>2016-05-15T08:28:12Z</time>
      </trkpt>
      <trkpt lat="49.1859" lon="1.69483">
        <ele>131.84</ele>
        <time>2016-05-15T08:28:18Z</time>
      </trkpt>
      <trkpt lat="49.18577" lon="1.69497">
        <ele>132.32</ele>
        <time>2016-05-15T08:28:31Z</time>
      </trkpt>
      <trkpt lat="49.18559" lon="1.69513">
        <ele>132.32</ele>
        <time>2016-05-15T08:28:48Z</time>
      </trkpt>
      <trkpt lat="49.18541" lon="1.69529">
        <ele>132.32</ele>
        <time>2016-05-15T08:29:06Z</time>
      </trkpt>
      <trkpt lat="49.18524" lon="1.69543">
        <ele>132.8</ele>
        <time>2016-05-15T08:29:21Z</time>
      </trkpt>
      <trkpt lat="49.18508" lon="1.69558">
        <ele>132.8</ele>
        <time>2016-05-15T08:29:37Z</time>
      </trkpt>
      <trkpt lat="49.18505" lon="1.69562">
        <ele>132.8</ele>
        <time>2016-05-15T08:29:40Z</time>
      </trkpt>
      <trkpt lat="49.18485" lon="1.69575">
        <ele>133.28</ele>
        <time>2016-05-15T08:29:59Z</time>
      </trkpt>
      <trkpt lat="49.18476" lon="1.69578">
        <ele>133.28</ele>
        <time>2016-05-15T08:30:06Z</time>
      </trkpt>
      <trkpt lat="49.18458" lon="1.6959">
        <ele>133.76</ele>
        <time>2016-05-15T08:30:24Z</time>
      </trkpt>
      <trkpt lat="49.18441" lon="1.69599">
        <ele>133.76</ele>
        <time>2016-05-15T08:30:39Z</time>
      </trkpt>
      <trkpt lat="49.18431" lon="1.69605">
        <ele>133.76</ele>
        <time>2016-05-15T08:30:54Z</time>
      </trkpt>
      <trkpt lat="49.18431" lon="1.69605">
        <ele>133.76</ele>
        <time>2016-05-15T08:30:57Z</time>
      </trkpt>
      <trkpt lat="49.18426" lon="1.69608">
        <ele>133.76</ele>
        <time>2016-05-15T08:31:01Z</time>
      </trkpt>
      <trkpt lat="49.18407" lon="1.6962">
        <ele>134.24</ele>
        <time>2016-05-15T08:31:18Z</time>
      </trkpt>
      <trkpt lat="49.18391" lon="1.69626">
        <ele>133.76</ele>
        <time>2016-05-15T08:31:32Z</time>
      </trkpt>
      <trkpt lat="49.18374" lon="1.69636">
        <ele>133.76</ele>
        <time>2016-05-15T08:31:47Z</time>
      </trkpt>
      <trkpt lat="49.18368" lon="1.69641">
        <ele>133.76</ele>
        <time>2016-05-15T08:31:53Z</time>
      </trkpt>
      <trkpt lat="49.18353" lon="1.69647">
        <ele>133.28</ele>
        <time>2016-05-15T08:32:07Z</time>
      </trkpt>
      <trkpt lat="49.18334" lon="1.69653">
        <ele>133.28</ele>
        <time>2016-05-15T08:32:23Z</time>
      </trkpt>
      <trkpt lat="49.18318" lon="1.69661">
        <ele>132.8</ele>
        <time>2016-05-15T08:32:37Z</time>
      </trkpt>
      <trkpt lat="49.18297" lon="1.69669">
        <ele>132.32</ele>
        <time>2016-05-15T08:32:55Z</time>
      </trkpt>
      <trkpt lat="49.18282" lon="1.69675">
        <ele>131.84</ele>
        <time>2016-05-15T08:33:09Z</time>
      </trkpt>
      <trkpt lat="49.18265" lon="1.69682">
        <ele>131.36</ele>
        <time>2016-05-15T08:33:24Z</time>
      </trkpt>
      <trkpt lat="49.18248" lon="1.69692">
        <ele>130.88</ele>
        <time>2016-05-15T08:33:40Z</time>
      </trkpt>
      <trkpt lat="49.1823" lon="1.697">
        <ele>130.88</ele>
        <time>2016-05-15T08:33:56Z</time>
      </trkpt>
      <trkpt lat="49.18229" lon="1.69702">
        <ele>130.88</ele>
        <time>2016-05-15T08:34:18Z</time>
      </trkpt>
      <trkpt lat="49.18228" lon="1.69704">
        <ele>130.88</ele>
        <time>2016-05-15T08:34:39Z</time>
      </trkpt>
      <trkpt lat="49.18226" lon="1.69704">
        <ele>130.88</ele>
        <time>2016-05-15T08:35:01Z</time>
      </trkpt>
      <trkpt lat="49.18229" lon="1.69702">
        <ele>130.4</ele>
        <time>2016-05-15T08:35:21Z</time>
      </trkpt>
      <trkpt lat="49.18226" lon="1.69703">
        <ele>130.88</ele>
        <time>2016-05-15T08:35:36Z</time>
      </trkpt>
      <trkpt lat="49.18226" lon="1.69702">
        <ele>130.88</ele>
        <time>2016-05-15T08:36:02Z</time>
      </trkpt>
      <trkpt lat="49.18225" lon="1.69701">
        <ele>130.88</ele>
        <time>2016-05-15T08:36:20Z</time>
      </trkpt>
      <trkpt lat="49.18226" lon="1.69701">
        <ele>130.4</ele>
        <time>2016-05-15T08:36:38Z</time>
      </trkpt>
      <trkpt lat="49.18226" lon="1.69702">
        <ele>130.4</ele>
        <time>2016-05-15T08:36:52Z</time>
      </trkpt>
      <trkpt lat="49.18227" lon="1.69701">
        <ele>130.4</ele>
        <time>2016-05-15T08:37:05Z</time>
      </trkpt>
      <trkpt lat="49.18227" lon="1.697">
        <ele>130.88</ele>
        <time>2016-05-15T08:37:20Z</time>
      </trkpt>
      <trkpt lat="49.18227" lon="1.69702">
        <ele>130.88</ele>
        <time>2016-05-15T08:37:40Z</time>
      </trkpt>
      <trkpt lat="49.18228" lon="1.69702">
        <ele>130.88</ele>
        <time>2016-05-15T08:37:58Z</time>
      </trkpt>
      <trkpt lat="49.18227" lon="1.69702">
        <ele>130.88</ele>
        <time>2016-05-15T08:38:20Z</time>
      </trkpt>
      <trkpt lat="49.18226" lon="1.69702">
        <ele>130.88</ele>
        <time>2016-05-15T08:38:41Z</time>
      </trkpt>
      <trkpt lat="49.18225" lon="1.69704">
        <ele>131.36</ele>
        <time>2016-05-15T08:39:02Z</time>
      </trkpt>
      <trkpt lat="49.18225" lon="1.69705">
        <ele>130.88</ele>
        <time>2016-05-15T08:39:17Z</time>
      </trkpt>
      <trkpt lat="49.1822" lon="1.69703">
        <ele>130.4</ele>
        <time>2016-05-15T08:39:36Z</time>
      </trkpt>
      <trkpt lat="49.18217" lon="1.69703">
        <ele>130.88</ele>
        <time>2016-05-15T08:39:39Z</time>
      </trkpt>
      <trkpt lat="49.18214" lon="1.69705">
        <ele>130.88</ele>
        <time>2016-05-15T08:39:42Z</time>
      </trkpt>
      <trkpt lat="49.18211" lon="1.69708">
        <ele>130.88</ele>
        <time>2016-05-15T08:39:45Z</time>
      </trkpt>
      <trkpt lat="49.18195" lon="1.69716">
        <ele>130.4</ele>
        <time>2016-05-15T08:40:00Z</time>
      </trkpt>
      <trkpt lat="49.18176" lon="1.69722">
        <ele>129.43</ele>
        <time>2016-05-15T08:40:18Z</time>
      </trkpt>
      <trkpt lat="49.18174" lon="1.69723">
        <ele>129.92</ele>
        <time>2016-05-15T08:40:20Z</time>
      </trkpt>
      <trkpt lat="49.18158" lon="1.69729">
        <ele>129.43</ele>
        <time>2016-05-15T08:40:35Z</time>
      </trkpt>
      <trkpt lat="49.18139" lon="1.69736">
        <ele>128.47</ele>
        <time>2016-05-15T08:40:51Z</time>
      </trkpt>
      <trkpt lat="49.1812" lon="1.69741">
        <ele>128.47</ele>
        <time>2016-05-15T08:41:07Z</time>
      </trkpt>
      <trkpt lat="49.181" lon="1.69745">
        <ele>127.51</ele>
        <time>2016-05-15T08:41:26Z</time>
      </trkpt>
      <trkpt lat="49.18084" lon="1.69752">
        <ele>127.03</ele>
        <time>2016-05-15T08:41:40Z</time>
      </trkpt>
      <trkpt lat="49.18066" lon="1.6976">
        <ele>126.55</ele>
        <time>2016-05-15T08:41:56Z</time>
      </trkpt>
      <trkpt lat="49.18062" lon="1.69763">
        <ele>126.07</ele>
        <time>2016-05-15T08:42:00Z</time>
      </trkpt>
      <trkpt lat="49.18055" lon="1.69768">
        <ele>126.07</ele>
        <time>2016-05-15T08:42:06Z</time>
      </trkpt>
      <trkpt lat="49.18036" lon="1.69778">
        <ele>125.11</ele>
        <time>2016-05-15T08:42:23Z</time>
      </trkpt>
      <trkpt lat="49.18021" lon="1.69785">
        <ele>125.11</ele>
        <time>2016-05-15T08:42:37Z</time>
      </trkpt>
      <trkpt lat="49.18004" lon="1.69797">
        <ele>124.63</ele>
        <time>2016-05-15T08:42:52Z</time>
      </trkpt>
      <trkpt lat="49.17984" lon="1.69806">
        <ele>124.15</ele>
        <time>2016-05-15T08:43:09Z</time>
      </trkpt>
      <trkpt lat="49.17966" lon="1.69813">
        <ele>123.67</ele>
        <time>2016-05-15T08:43:23Z</time>
      </trkpt>
      <trkpt lat="49.17965" lon="1.69813">
        <ele>123.67</ele>
        <time>2016-05-15T08:43:24Z</time>
      </trkpt>
      <trkpt lat="49.17944" lon="1.69825">
        <ele>123.19</ele>
        <time>2016-05-15T08:43:43Z</time>
      </trkpt>
      <trkpt lat="49.17924" lon="1.69834">
        <ele>122.22</ele>
        <time>2016-05-15T08:44:03Z</time>
      </trkpt>
      <trkpt lat="49.17913" lon="1.69837">
        <ele>121.26</ele>
        <time>2016-05-15T08:44:19Z</time>
      </trkpt>
      <trkpt lat="49.17897" lon="1.69846">
        <ele>121.26</ele>
        <time>2016-05-15T08:44:33Z</time>
      </trkpt>
      <trkpt lat="49.17893" lon="1.69848">
        <ele>120.78</ele>
        <time>2016-05-15T08:44:36Z</time>
      </trkpt>
      <trkpt lat="49.17874" lon="1.69855">
        <ele>120.3</ele>
        <time>2016-05-15T08:44:52Z</time>
      </trkpt>
      <trkpt lat="49.17856" lon="1.69859">
        <ele>120.3</ele>
        <time>2016-05-15T08:45:06Z</time>
      </trkpt>
      <trkpt lat="49.17837" lon="1.69862">
        <ele>119.82</ele>
        <time>2016-05-15T08:45:22Z</time>
      </trkpt>
      <trkpt lat="49.17817" lon="1.69861">
        <ele>119.34</ele>
        <time>2016-05-15T08:45:39Z</time>
      </trkpt>
      <trkpt lat="49.17815" lon="1.69861">
        <ele>119.34</ele>
        <time>2016-05-15T08:45:41Z</time>
      </trkpt>
      <trkpt lat="49.17808" lon="1.69865">
        <ele>118.86</ele>
        <time>2016-05-15T08:45:55Z</time>
      </trkpt>
      <trkpt lat="49.17794" lon="1.69861">
        <ele>118.86</ele>
        <time>2016-05-15T08:46:08Z</time>
      </trkpt>
      <trkpt lat="49.17791" lon="1.6986">
        <ele>118.86</ele>
        <time>2016-05-15T08:46:11Z</time>
      </trkpt>
      <trkpt lat="49.17785" lon="1.69859">
        <ele>118.38</ele>
        <time>2016-05-15T08:46:24Z</time>
      </trkpt>
      <trkpt lat="49.17779" lon="1.69856">
        <ele>118.38</ele>
        <time>2016-05-15T08:46:36Z</time>
      </trkpt>
      <trkpt lat="49.17775" lon="1.69857">
        <ele>118.38</ele>
        <time>2016-05-15T08:46:54Z</time>
      </trkpt>
      <trkpt lat="49.17773" lon="1.69852">
        <ele>118.86</ele>
        <time>2016-05-15T08:47:08Z</time>
      </trkpt>
      <trkpt lat="49.17771" lon="1.69853">
        <ele>118.86</ele>
        <time>2016-05-15T08:47:12Z</time>
      </trkpt>
      <trkpt lat="49.17763" lon="1.69856">
        <ele>119.34</ele>
        <time>2016-05-15T08:47:23Z</time>
      </trkpt>
      <trkpt lat="49.1776" lon="1.69854">
        <ele>118.86</ele>
        <time>2016-05-15T08:47:37Z</time>
      </trkpt>
      <trkpt lat="49.17746" lon="1.69857">
        <ele>119.34</ele>
        <time>2016-05-15T08:47:52Z</time>
      </trkpt>
      <trkpt lat="49.17736" lon="1.6986">
        <ele>119.82</ele>
        <time>2016-05-15T08:48:04Z</time>
      </trkpt>
      <trkpt lat="49.17725" lon="1.69862">
        <ele>120.78</ele>
        <time>2016-05-15T08:48:16Z</time>
      </trkpt>
      <trkpt lat="49.17711" lon="1.69867">
        <ele>121.26</ele>
        <time>2016-05-15T08:48:30Z</time>
      </trkpt>
      <trkpt lat="49.17695" lon="1.6987">
        <ele>121.74</ele>
        <time>2016-05-15T08:48:45Z</time>
      </trkpt>
      <trkpt lat="49.17678" lon="1.69874">
        <ele>122.71</ele>
        <time>2016-05-15T08:49:01Z</time>
      </trkpt>
      <trkpt lat="49.17661" lon="1.69878">
        <ele>123.19</ele>
        <time>2016-05-15T08:49:17Z</time>
      </trkpt>
      <trkpt lat="49.17648" lon="1.69879">
        <ele>123.67</ele>
        <time>2016-05-15T08:49:31Z</time>
      </trkpt>
      <trkpt lat="49.17637" lon="1.6988">
        <ele>124.15</ele>
        <time>2016-05-15T08:49:42Z</time>
      </trkpt>
      <trkpt lat="49.17634" lon="1.6988">
        <ele>124.15</ele>
        <time>2016-05-15T08:49:45Z</time>
      </trkpt>
      <trkpt lat="49.17616" lon="1.69882">
        <ele>125.11</ele>
        <time>2016-05-15T08:50:02Z</time>
      </trkpt>
      <trkpt lat="49.17611" lon="1.69884">
        <ele>125.11</ele>
        <time>2016-05-15T08:50:07Z</time>
      </trkpt>
      <trkpt lat="49.17609" lon="1.69884">
        <ele>125.59</ele>
        <time>2016-05-15T08:50:09Z</time>
      </trkpt>
      <trkpt lat="49.17589" lon="1.69885">
        <ele>126.07</ele>
        <time>2016-05-15T08:50:27Z</time>
      </trkpt>
      <trkpt lat="49.17574" lon="1.69887">
        <ele>126.07</ele>
        <time>2016-05-15T08:50:41Z</time>
      </trkpt>
      <trkpt lat="49.17561" lon="1.6989">
        <ele>127.03</ele>
        <time>2016-05-15T08:50:54Z</time>
      </trkpt>
      <trkpt lat="49.17545" lon="1.69893">
        <ele>127.03</ele>
        <time>2016-05-15T08:51:09Z</time>
      </trkpt>
      <trkpt lat="49.17542" lon="1.69893">
        <ele>127.51</ele>
        <time>2016-05-15T08:51:11Z</time>
      </trkpt>
      <trkpt lat="49.1754" lon="1.69894">
        <ele>127.51</ele>
        <time>2016-05-15T08:51:13Z</time>
      </trkpt>
      <trkpt lat="49.17535" lon="1.69895">
        <ele>127.99</ele>
        <time>2016-05-15T08:51:18Z</time>
      </trkpt>
      <trkpt lat="49.1752" lon="1.69898">
        <ele>128.47</ele>
        <time>2016-05-15T08:51:33Z</time>
      </trkpt>
      <trkpt lat="49.17504" lon="1.69901">
        <ele>128.95</ele>
        <time>2016-05-15T08:51:49Z</time>
      </trkpt>
      <trkpt lat="49.17486" lon="1.69905">
        <ele>129.43</ele>
        <time>2016-05-15T08:52:05Z</time>
      </trkpt>
      <trkpt lat="49.17471" lon="1.69909">
        <ele>130.4</ele>
        <time>2016-05-15T08:52:21Z</time>
      </trkpt>
      <trkpt lat="49.17468" lon="1.69907">
        <ele>130.4</ele>
        <time>2016-05-15T08:52:35Z</time>
      </trkpt>
      <trkpt lat="49.17462" lon="1.69906">
        <ele>129.92</ele>
        <time>2016-05-15T08:52:52Z</time>
      </trkpt>
      <trkpt lat="49.17461" lon="1.69894">
        <ele>129.43</ele>
        <time>2016-05-15T08:53:03Z</time>
      </trkpt>
      <trkpt lat="49.17462" lon="1.69871">
        <ele>129.43</ele>
        <time>2016-05-15T08:53:20Z</time>
      </trkpt>
      <trkpt lat="49.17462" lon="1.69856">
        <ele>129.43</ele>
        <time>2016-05-15T08:53:35Z</time>
      </trkpt>
      <trkpt lat="49.17461" lon="1.69844">
        <ele>128.95</ele>
        <time>2016-05-15T08:53:45Z</time>
      </trkpt>
      <trkpt lat="49.17458" lon="1.69814">
        <ele>127.51</ele>
        <time>2016-05-15T08:54:03Z</time>
      </trkpt>
      <trkpt lat="49.17457" lon="1.69795">
        <ele>127.99</ele>
        <time>2016-05-15T08:54:14Z</time>
      </trkpt>
      <trkpt lat="49.17457" lon="1.69784">
        <ele>127.51</ele>
        <time>2016-05-15T08:54:21Z</time>
      </trkpt>
      <trkpt lat="49.17455" lon="1.69757">
        <ele>127.03</ele>
        <time>2016-05-15T08:54:36Z</time>
      </trkpt>
      <trkpt lat="49.17454" lon="1.69733">
        <ele>126.55</ele>
        <time>2016-05-15T08:54:50Z</time>
      </trkpt>
      <trkpt lat="49.17453" lon="1.69716">
        <ele>126.07</ele>
        <time>2016-05-15T08:55:00Z</time>
      </trkpt>
      <trkpt lat="49.17451" lon="1.69701">
        <ele>125.59</ele>
        <time>2016-05-15T08:55:08Z</time>
      </trkpt>
      <trkpt lat="49.17451" lon="1.69695">
        <ele>125.59</ele>
        <time>2016-05-15T08:55:11Z</time>
      </trkpt>
      <trkpt lat="49.17451" lon="1.69684">
        <ele>125.59</ele>
        <time>2016-05-15T08:55:17Z</time>
      </trkpt>
      <trkpt lat="49.17451" lon="1.69673">
        <ele>125.11</ele>
        <time>2016-05-15T08:55:23Z</time>
      </trkpt>
      <trkpt lat="49.17449" lon="1.69655">
        <ele>124.63</ele>
        <time>2016-05-15T08:55:33Z</time>
      </trkpt>
      <trkpt lat="49.17448" lon="1.69627">
        <ele>124.15</ele>
        <time>2016-05-15T08:55:49Z</time>
      </trkpt>
      <trkpt lat="49.17445" lon="1.696">
        <ele>123.19</ele>
        <time>2016-05-15T08:56:04Z</time>
      </trkpt>
      <trkpt lat="49.17442" lon="1.69576">
        <ele>122.71</ele>
        <time>2016-05-15T08:56:18Z</time>
      </trkpt>
      <trkpt lat="49.17442" lon="1.69561">
        <ele>122.22</ele>
        <time>2016-05-15T08:56:27Z</time>
      </trkpt>
      <trkpt lat="49.1744" lon="1.69536">
        <ele>121.74</ele>
        <time>2016-05-15T08:56:41Z</time>
      </trkpt>
      <trkpt lat="49.1744" lon="1.69517">
        <ele>121.26</ele>
        <time>2016-05-15T08:56:52Z</time>
      </trkpt>
      <trkpt lat="49.17438" lon="1.69493">
        <ele>120.3</ele>
        <time>2016-05-15T08:57:06Z</time>
      </trkpt>
      <trkpt lat="49.17437" lon="1.69463">
        <ele>119.82</ele>
        <time>2016-05-15T08:57:24Z</time>
      </trkpt>
      <trkpt lat="49.17437" lon="1.69442">
        <ele>118.86</ele>
        <time>2016-05-15T08:57:37Z</time>
      </trkpt>
      <trkpt lat="49.17434" lon="1.69412">
        <ele>117.42</ele>
        <time>2016-05-15T08:57:53Z</time>
      </trkpt>
      <trkpt lat="49.17433" lon="1.69387">
        <ele>116.46</ele>
        <time>2016-05-15T08:58:10Z</time>
      </trkpt>
      <trkpt lat="49.17434" lon="1.6936">
        <ele>115.01</ele>
        <time>2016-05-15T08:58:25Z</time>
      </trkpt>
      <trkpt lat="49.17433" lon="1.69344">
        <ele>114.53</ele>
        <time>2016-05-15T08:58:34Z</time>
      </trkpt>
      <trkpt lat="49.17433" lon="1.69334">
        <ele>114.05</ele>
        <time>2016-05-15T08:58:39Z</time>
      </trkpt>
      <trkpt lat="49.1743" lon="1.69306">
        <ele>114.05</ele>
        <time>2016-05-15T08:58:54Z</time>
      </trkpt>
      <trkpt lat="49.17429" lon="1.69287">
        <ele>113.09</ele>
        <time>2016-05-15T08:59:04Z</time>
      </trkpt>
      <trkpt lat="49.17428" lon="1.69258">
        <ele>113.09</ele>
        <time>2016-05-15T08:59:21Z</time>
      </trkpt>
      <trkpt lat="49.17428" lon="1.69228">
        <ele>112.61</ele>
        <time>2016-05-15T08:59:37Z</time>
      </trkpt>
      <trkpt lat="49.17427" lon="1.69226">
        <ele>112.61</ele>
        <time>2016-05-15T08:59:38Z</time>
      </trkpt>
      <trkpt lat="49.17428" lon="1.69208">
        <ele>112.13</ele>
        <time>2016-05-15T08:59:48Z</time>
      </trkpt>
      <trkpt lat="49.17426" lon="1.69196">
        <ele>112.61</ele>
        <time>2016-05-15T08:59:54Z</time>
      </trkpt>
      <trkpt lat="49.17426" lon="1.69167">
        <ele>111.65</ele>
        <time>2016-05-15T09:00:10Z</time>
      </trkpt>
      <trkpt lat="49.17424" lon="1.69138">
        <ele>111.65</ele>
        <time>2016-05-15T09:00:25Z</time>
      </trkpt>
      <trkpt lat="49.17419" lon="1.69115">
        <ele>111.17</ele>
        <time>2016-05-15T09:00:41Z</time>
      </trkpt>
      <trkpt lat="49.17419" lon="1.6911">
        <ele>111.17</ele>
        <time>2016-05-15T09:00:45Z</time>
      </trkpt>
      <trkpt lat="49.17416" lon="1.69087">
        <ele>111.65</ele>
        <time>2016-05-15T09:00:59Z</time>
      </trkpt>
      <trkpt lat="49.1741" lon="1.69062">
        <ele>111.17</ele>
        <time>2016-05-15T09:01:12Z</time>
      </trkpt>
      <trkpt lat="49.1741" lon="1.69059">
        <ele>111.17</ele>
        <time>2016-05-15T09:01:14Z</time>
      </trkpt>
      <trkpt lat="49.1741" lon="1.69052">
        <ele>110.69</ele>
        <time>2016-05-15T09:01:18Z</time>
      </trkpt>
      <trkpt lat="49.17405" lon="1.69031">
        <ele>110.21</ele>
        <time>2016-05-15T09:01:33Z</time>
      </trkpt>
      <trkpt lat="49.17404" lon="1.69034">
        <ele>110.69</ele>
        <time>2016-05-15T09:01:53Z</time>
      </trkpt>
      <trkpt lat="49.17401" lon="1.69027">
        <ele>110.69</ele>
        <time>2016-05-15T09:02:14Z</time>
      </trkpt>
      <trkpt lat="49.17388" lon="1.69016">
        <ele>112.13</ele>
        <time>2016-05-15T09:02:28Z</time>
      </trkpt>
      <trkpt lat="49.17379" lon="1.69007">
        <ele>113.57</ele>
        <time>2016-05-15T09:02:40Z</time>
      </trkpt>
      <trkpt lat="49.17366" lon="1.68993">
        <ele>115.01</ele>
        <time>2016-05-15T09:02:56Z</time>
      </trkpt>
      <trkpt lat="49.17356" lon="1.68986">
        <ele>115.98</ele>
        <time>2016-05-15T09:03:09Z</time>
      </trkpt>
      <trkpt lat="49.17343" lon="1.68975">
        <ele>116.46</ele>
        <time>2016-05-15T09:03:21Z</time>
      </trkpt>
      <trkpt lat="49.1734" lon="1.68972">
        <ele>116.94</ele>
        <time>2016-05-15T09:03:24Z</time>
      </trkpt>
      <trkpt lat="49.17337" lon="1.68973">
        <ele>116.94</ele>
        <time>2016-05-15T09:03:32Z</time>
      </trkpt>
      <trkpt lat="49.17322" lon="1.68955">
        <ele>118.38</ele>
        <time>2016-05-15T09:03:47Z</time>
      </trkpt>
      <trkpt lat="49.17321" lon="1.68954">
        <ele>117.42</ele>
        <time>2016-05-15T09:03:48Z</time>
      </trkpt>
      <trkpt lat="49.17318" lon="1.68953">
        <ele>117.42</ele>
        <time>2016-05-15T09:03:50Z</time>
      </trkpt>
      <trkpt lat="49.17304" lon="1.6894">
        <ele>118.86</ele>
        <time>2016-05-15T09:04:06Z</time>
      </trkpt>
      <trkpt lat="49.1729" lon="1.68927">
        <ele>119.82</ele>
        <time>2016-05-15T09:04:20Z</time>
      </trkpt>
      <trkpt lat="49.17274" lon="1.68913">
        <ele>120.78</ele>
        <time>2016-05-15T09:04:36Z</time>
      </trkpt>
      <trkpt lat="49.17259" lon="1.68898">
        <ele>121.26</ele>
        <time>2016-05-15T09:04:51Z</time>
      </trkpt>
      <trkpt lat="49.17242" lon="1.68885">
        <ele>122.22</ele>
        <time>2016-05-15T09:05:08Z</time>
      </trkpt>
      <trkpt lat="49.17221" lon="1.68866">
        <ele>123.19</ele>
        <time>2016-05-15T09:05:27Z</time>
      </trkpt>
      <trkpt lat="49.1721" lon="1.68856">
        <ele>123.19</ele>
        <time>2016-05-15T09:05:40Z</time>
      </trkpt>
      <trkpt lat="49.17197" lon="1.68844">
        <ele>123.67</ele>
        <time>2016-05-15T09:05:55Z</time>
      </trkpt>
      <trkpt lat="49.17188" lon="1.68838">
        <ele>124.15</ele>
        <time>2016-05-15T09:06:03Z</time>
      </trkpt>
      <trkpt lat="49.17174" lon="1.68826">
        <ele>124.63</ele>
        <time>2016-05-15T09:06:19Z</time>
      </trkpt>
      <trkpt lat="49.17171" lon="1.68822">
        <ele>124.63</ele>
        <time>2016-05-15T09:06:24Z</time>
      </trkpt>
      <trkpt lat="49.17168" lon="1.6882">
        <ele>124.63</ele>
        <time>2016-05-15T09:06:27Z</time>
      </trkpt>
      <trkpt lat="49.17164" lon="1.68816">
        <ele>125.59</ele>
        <time>2016-05-15T09:06:32Z</time>
      </trkpt>
      <trkpt lat="49.17158" lon="1.68813">
        <ele>125.59</ele>
        <time>2016-05-15T09:06:37Z</time>
      </trkpt>
      <trkpt lat="49.17156" lon="1.6881">
        <ele>125.59</ele>
        <time>2016-05-15T09:06:40Z</time>
      </trkpt>
      <trkpt lat="49.17143" lon="1.68795">
        <ele>125.11</ele>
        <time>2016-05-15T09:06:56Z</time>
      </trkpt>
      <trkpt lat="49.17143" lon="1.68797">
        <ele>125.59</ele>
        <time>2016-05-15T09:07:08Z</time>
      </trkpt>
      <trkpt lat="49.17144" lon="1.68794">
        <ele>125.59</ele>
        <time>2016-05-15T09:07:25Z</time>
      </trkpt>
      <trkpt lat="49.17145" lon="1.68792">
        <ele>125.59</ele>
        <time>2016-05-15T09:07:44Z</time>
      </trkpt>
      <trkpt lat="49.17146" lon="1.68788">
        <ele>125.59</ele>
        <time>2016-05-15T09:08:04Z</time>
      </trkpt>
      <trkpt lat="49.1715" lon="1.6878">
        <ele>125.59</ele>
        <time>2016-05-15T09:08:17Z</time>
      </trkpt>
      <trkpt lat="49.1715" lon="1.68778">
        <ele>125.11</ele>
        <time>2016-05-15T09:08:30Z</time>
      </trkpt>
      <trkpt lat="49.17151" lon="1.68774">
        <ele>125.11</ele>
        <time>2016-05-15T09:08:48Z</time>
      </trkpt>
      <trkpt lat="49.17154" lon="1.68768">
        <ele>124.63</ele>
        <time>2016-05-15T09:08:53Z</time>
      </trkpt>
      <trkpt lat="49.17143" lon="1.68767">
        <ele>125.11</ele>
        <time>2016-05-15T09:09:07Z</time>
      </trkpt>
      <trkpt lat="49.17141" lon="1.68769">
        <ele>125.11</ele>
        <time>2016-05-15T09:09:10Z</time>
      </trkpt>
      <trkpt lat="49.17126" lon="1.6878">
        <ele>125.59</ele>
        <time>2016-05-15T09:09:26Z</time>
      </trkpt>
      <trkpt lat="49.17108" lon="1.68786">
        <ele>126.07</ele>
        <time>2016-05-15T09:09:43Z</time>
      </trkpt>
      <trkpt lat="49.17099" lon="1.68787">
        <ele>126.07</ele>
        <time>2016-05-15T09:09:52Z</time>
      </trkpt>
      <trkpt lat="49.1708" lon="1.68784">
        <ele>126.55</ele>
        <time>2016-05-15T09:10:07Z</time>
      </trkpt>
      <trkpt lat="49.17065" lon="1.6878">
        <ele>127.03</ele>
        <time>2016-05-15T09:10:21Z</time>
      </trkpt>
      <trkpt lat="49.17061" lon="1.68778">
        <ele>127.03</ele>
        <time>2016-05-15T09:10:25Z</time>
      </trkpt>
      <trkpt lat="49.1705" lon="1.68778">
        <ele>127.03</ele>
        <time>2016-05-15T09:10:35Z</time>
      </trkpt>
      <trkpt lat="49.17048" lon="1.68778">
        <ele>127.03</ele>
        <time>2016-05-15T09:10:37Z</time>
      </trkpt>
      <trkpt lat="49.17033" lon="1.68774">
        <ele>127.51</ele>
        <time>2016-05-15T09:10:50Z</time>
      </trkpt>
      <trkpt lat="49.17017" lon="1.68774">
        <ele>127.99</ele>
        <time>2016-05-15T09:11:04Z</time>
      </trkpt>
      <trkpt lat="49.1699" lon="1.68775">
        <ele>127.99</ele>
        <time>2016-05-15T09:11:27Z</time>
      </trkpt>
      <trkpt lat="49.16968" lon="1.68776">
        <ele>128.47</ele>
        <time>2016-05-15T09:11:45Z</time>
      </trkpt>
      <trkpt lat="49.16948" lon="1.68778">
        <ele>128.95</ele>
        <time>2016-05-15T09:12:05Z</time>
      </trkpt>
      <trkpt lat="49.16937" lon="1.6878">
        <ele>128.47</ele>
        <time>2016-05-15T09:12:17Z</time>
      </trkpt>
      <trkpt lat="49.16928" lon="1.68782">
        <ele>128.95</ele>
        <time>2016-05-15T09:12:30Z</time>
      </trkpt>
      <trkpt lat="49.16913" lon="1.6878">
        <ele>128.47</ele>
        <time>2016-05-15T09:12:46Z</time>
      </trkpt>
      <trkpt lat="49.16915" lon="1.68781">
        <ele>128.47</ele>
        <time>2016-05-15T09:12:58Z</time>
      </trkpt>
      <trkpt lat="49.16912" lon="1.68781">
        <ele>128.47</ele>
        <time>2016-05-15T09:13:12Z</time>
      </trkpt>
      <trkpt lat="49.16894" lon="1.68783">
        <ele>127.99</ele>
        <time>2016-05-15T09:13:27Z</time>
      </trkpt>
      <trkpt lat="49.16877" lon="1.68787">
        <ele>127.51</ele>
        <time>2016-05-15T09:13:43Z</time>
      </trkpt>
      <trkpt lat="49.16857" lon="1.68792">
        <ele>127.03</ele>
        <time>2016-05-15T09:14:00Z</time>
      </trkpt>
      <trkpt lat="49.16836" lon="1.68794">
        <ele>127.51</ele>
        <time>2016-05-15T09:14:18Z</time>
      </trkpt>
      <trkpt lat="49.16819" lon="1.68799">
        <ele>126.55</ele>
        <time>2016-05-15T09:14:32Z</time>
      </trkpt>
      <trkpt lat="49.16802" lon="1.68801">
        <ele>126.55</ele>
        <time>2016-05-15T09:14:47Z</time>
      </trkpt>
      <trkpt lat="49.16783" lon="1.68805">
        <ele>125.11</ele>
        <time>2016-05-15T09:15:05Z</time>
      </trkpt>
      <trkpt lat="49.16763" lon="1.68809">
        <ele>124.63</ele>
        <time>2016-05-15T09:15:21Z</time>
      </trkpt>
      <trkpt lat="49.16737" lon="1.68813">
        <ele>124.15</ele>
        <time>2016-05-15T09:15:41Z</time>
      </trkpt>
      <trkpt lat="49.16732" lon="1.68815">
        <ele>123.67</ele>
        <time>2016-05-15T09:15:45Z</time>
      </trkpt>
      <trkpt lat="49.16716" lon="1.68819">
        <ele>122.71</ele>
        <time>2016-05-15T09:15:59Z</time>
      </trkpt>
      <trkpt lat="49.16695" lon="1.68826">
        <ele>121.74</ele>
        <time>2016-05-15T09:16:15Z</time>
      </trkpt>
      <trkpt lat="49.16692" lon="1.68828">
        <ele>121.26</ele>
        <time>2016-05-15T09:16:18Z</time>
      </trkpt>
      <trkpt lat="49.16691" lon="1.68833">
        <ele>121.26</ele>
        <time>2016-05-15T09:16:21Z</time>
      </trkpt>
      <trkpt lat="49.16691" lon="1.68839">
        <ele>121.26</ele>
        <time>2016-05-15T09:16:25Z</time>
      </trkpt>
      <trkpt lat="49.16699" lon="1.68866">
        <ele>122.71</ele>
        <time>2016-05-15T09:16:41Z</time>
      </trkpt>
      <trkpt lat="49.16703" lon="1.6889">
        <ele>124.15</ele>
        <time>2016-05-15T09:16:54Z</time>
      </trkpt>
      <trkpt lat="49.16698" lon="1.68897">
        <ele>124.63</ele>
        <time>2016-05-15T09:17:04Z</time>
      </trkpt>
      <trkpt lat="49.16691" lon="1.6889">
        <ele>123.67</ele>
        <time>2016-05-15T09:17:11Z</time>
      </trkpt>
      <trkpt lat="49.16673" lon="1.68875">
        <ele>122.22</ele>
        <time>2016-05-15T09:17:27Z</time>
      </trkpt>
      <trkpt lat="49.16658" lon="1.68861">
        <ele>121.26</ele>
        <time>2016-05-15T09:17:42Z</time>
      </trkpt>
      <trkpt lat="49.1664" lon="1.68844">
        <ele>120.3</ele>
        <time>2016-05-15T09:17:59Z</time>
      </trkpt>
      <trkpt lat="49.16624" lon="1.68832">
        <ele>120.78</ele>
        <time>2016-05-15T09:18:13Z</time>
      </trkpt>
      <trkpt lat="49.1661" lon="1.68816">
        <ele>120.78</ele>
        <time>2016-05-15T09:18:28Z</time>
      </trkpt>
      <trkpt lat="49.16595" lon="1.68801">
        <ele>121.74</ele>
        <time>2016-05-15T09:18:43Z</time>
      </trkpt>
      <trkpt lat="49.16578" lon="1.68784">
        <ele>121.74</ele>
        <time>2016-05-15T09:19:00Z</time>
      </trkpt>
      <trkpt lat="49.16557" lon="1.68764">
        <ele>122.22</ele>
        <time>2016-05-15T09:19:21Z</time>
      </trkpt>
      <trkpt lat="49.16539" lon="1.68749">
        <ele>122.71</ele>
        <time>2016-05-15T09:19:36Z</time>
      </trkpt>
      <trkpt lat="49.16535" lon="1.68746">
        <ele>122.71</ele>
        <time>2016-05-15T09:19:40Z</time>
      </trkpt>
      <trkpt lat="49.16518" lon="1.6873">
        <ele>123.19</ele>
        <time>2016-05-15T09:19:56Z</time>
      </trkpt>
      <trkpt lat="49.16504" lon="1.68717">
        <ele>123.19</ele>
        <time>2016-05-15T09:20:10Z</time>
      </trkpt>
      <trkpt lat="49.16488" lon="1.68702">
        <ele>123.19</ele>
        <time>2016-05-15T09:20:26Z</time>
      </trkpt>
      <trkpt lat="49.1647" lon="1.68689">
        <ele>123.67</ele>
        <time>2016-05-15T09:20:42Z</time>
      </trkpt>
      <trkpt lat="49.16456" lon="1.68674">
        <ele>123.67</ele>
        <time>2016-05-15T09:20:57Z</time>
      </trkpt>
      <trkpt lat="49.16442" lon="1.68661">
        <ele>123.67</ele>
        <time>2016-05-15T09:21:11Z</time>
      </trkpt>
      <trkpt lat="49.16425" lon="1.68647">
        <ele>124.15</ele>
        <time>2016-05-15T09:21:26Z</time>
      </trkpt>
      <trkpt lat="49.1641" lon="1.68632">
        <ele>124.63</ele>
        <time>2016-05-15T09:21:41Z</time>
      </trkpt>
      <trkpt lat="49.16392" lon="1.68617">
        <ele>124.63</ele>
        <time>2016-05-15T09:21:57Z</time>
      </trkpt>
      <trkpt lat="49.16386" lon="1.68612">
        <ele>124.15</ele>
        <time>2016-05-15T09:22:02Z</time>
      </trkpt>
      <trkpt lat="49.16385" lon="1.68609">
        <ele>124.15</ele>
        <time>2016-05-15T09:22:04Z</time>
      </trkpt>
      <trkpt lat="49.16369" lon="1.68594">
        <ele>125.11</ele>
        <time>2016-05-15T09:22:21Z</time>
      </trkpt>
      <trkpt lat="49.16352" lon="1.68579">
        <ele>124.63</ele>
        <time>2016-05-15T09:22:37Z</time>
      </trkpt>
      <trkpt lat="49.16337" lon="1.68567">
        <ele>124.63</ele>
        <time>2016-05-15T09:22:50Z</time>
      </trkpt>
      <trkpt lat="49.16321" lon="1.68553">
        <ele>124.63</ele>
        <time>2016-05-15T09:23:04Z</time>
      </trkpt>
      <trkpt lat="49.16308" lon="1.68542">
        <ele>124.15</ele>
        <time>2016-05-15T09:23:17Z</time>
      </trkpt>
      <trkpt lat="49.16292" lon="1.6853">
        <ele>124.63</ele>
        <time>2016-05-15T09:23:32Z</time>
      </trkpt>
      <trkpt lat="49.16288" lon="1.68526">
        <ele>124.15</ele>
        <time>2016-05-15T09:23:36Z</time>
      </trkpt>
      <trkpt lat="49.16275" lon="1.68511">
        <ele>123.67</ele>
        <time>2016-05-15T09:23:51Z</time>
      </trkpt>
      <trkpt lat="49.1626" lon="1.68495">
        <ele>123.19</ele>
        <time>2016-05-15T09:24:06Z</time>
      </trkpt>
      <trkpt lat="49.16244" lon="1.6848">
        <ele>123.19</ele>
        <time>2016-05-15T09:24:21Z</time>
      </trkpt>
      <trkpt lat="49.16228" lon="1.68466">
        <ele>123.19</ele>
        <time>2016-05-15T09:24:36Z</time>
      </trkpt>
      <trkpt lat="49.16211" lon="1.68451">
        <ele>122.71</ele>
        <time>2016-05-15T09:24:53Z</time>
      </trkpt>
      <trkpt lat="49.16194" lon="1.68437">
        <ele>123.67</ele>
        <time>2016-05-15T09:25:10Z</time>
      </trkpt>
      <trkpt lat="49.16177" lon="1.68419">
        <ele>124.15</ele>
        <time>2016-05-15T09:25:28Z</time>
      </trkpt>
      <trkpt lat="49.16163" lon="1.68407">
        <ele>124.15</ele>
        <time>2016-05-15T09:25:42Z</time>
      </trkpt>
      <trkpt lat="49.16153" lon="1.68398">
        <ele>124.15</ele>
        <time>2016-05-15T09:25:52Z</time>
      </trkpt>
      <trkpt lat="49.1615" lon="1.68387">
        <ele>123.19</ele>
        <time>2016-05-15T09:26:07Z</time>
      </trkpt>
      <trkpt lat="49.16143" lon="1.68377">
        <ele>123.67</ele>
        <time>2016-05-15T09:26:22Z</time>
      </trkpt>
      <trkpt lat="49.16093" lon="1.68339">
        <ele>125.11</ele>
        <time>2016-05-15T09:29:34Z</time>
      </trkpt>
      <trkpt lat="49.16144" lon="1.68378">
        <ele>123.67</ele>
        <time>2016-05-15T09:31:42Z</time>
      </trkpt>
      <trkpt lat="49.16093" lon="1.6834">
        <ele>125.11</ele>
        <time>2016-05-15T09:32:59Z</time>
      </trkpt>
      <trkpt lat="49.16085" lon="1.68332">
        <ele>125.11</ele>
        <time>2016-05-15T09:33:16Z</time>
      </trkpt>
      <trkpt lat="49.16072" lon="1.68324">
        <ele>125.59</ele>
        <time>2016-05-15T09:33:37Z</time>
      </trkpt>
      <trkpt lat="49.16057" lon="1.68313">
        <ele>126.07</ele>
        <time>2016-05-15T09:33:56Z</time>
      </trkpt>
      <trkpt lat="49.16044" lon="1.68303">
        <ele>126.07</ele>
        <time>2016-05-15T09:34:11Z</time>
      </trkpt>
      <trkpt lat="49.1603" lon="1.68283">
        <ele>125.59</ele>
        <time>2016-05-15T09:34:29Z</time>
      </trkpt>
      <trkpt lat="49.16014" lon="1.68268">
        <ele>125.59</ele>
        <time>2016-05-15T09:34:46Z</time>
      </trkpt>
      <trkpt lat="49.16007" lon="1.6826">
        <ele>125.59</ele>
        <time>2016-05-15T09:35:04Z</time>
      </trkpt>
      <trkpt lat="49.15995" lon="1.68248">
        <ele>125.59</ele>
        <time>2016-05-15T09:35:21Z</time>
      </trkpt>
      <trkpt lat="49.15984" lon="1.68236">
        <ele>126.07</ele>
        <time>2016-05-15T09:35:35Z</time>
      </trkpt>
      <trkpt lat="49.15968" lon="1.68214">
        <ele>125.59</ele>
        <time>2016-05-15T09:35:55Z</time>
      </trkpt>
      <trkpt lat="49.15957" lon="1.68188">
        <ele>124.15</ele>
        <time>2016-05-15T09:36:15Z</time>
      </trkpt>
      <trkpt lat="49.15946" lon="1.68161">
        <ele>124.15</ele>
        <time>2016-05-15T09:36:33Z</time>
      </trkpt>
      <trkpt lat="49.15929" lon="1.6815">
        <ele>124.63</ele>
        <time>2016-05-15T09:36:50Z</time>
      </trkpt>
      <trkpt lat="49.15916" lon="1.68142">
        <ele>125.11</ele>
        <time>2016-05-15T09:37:08Z</time>
      </trkpt>
      <trkpt lat="49.15911" lon="1.68145">
        <ele>125.11</ele>
        <time>2016-05-15T09:37:32Z</time>
      </trkpt>
      <trkpt lat="49.15893" lon="1.6813">
        <ele>126.07</ele>
        <time>2016-05-15T09:37:49Z</time>
      </trkpt>
      <trkpt lat="49.15884" lon="1.68115">
        <ele>125.59</ele>
        <time>2016-05-15T09:38:05Z</time>
      </trkpt>
      <trkpt lat="49.15878" lon="1.68104">
        <ele>124.63</ele>
        <time>2016-05-15T09:38:13Z</time>
      </trkpt>
      <trkpt lat="49.15867" lon="1.6809">
        <ele>125.11</ele>
        <time>2016-05-15T09:38:27Z</time>
      </trkpt>
      <trkpt lat="49.15849" lon="1.68074">
        <ele>124.63</ele>
        <time>2016-05-15T09:38:43Z</time>
      </trkpt>
      <trkpt lat="49.15842" lon="1.68067">
        <ele>123.67</ele>
        <time>2016-05-15T09:38:52Z</time>
      </trkpt>
      <trkpt lat="49.1583" lon="1.68056">
        <ele>123.19</ele>
        <time>2016-05-15T09:39:05Z</time>
      </trkpt>
      <trkpt lat="49.15819" lon="1.68048">
        <ele>122.71</ele>
        <time>2016-05-15T09:39:19Z</time>
      </trkpt>
      <trkpt lat="49.1581" lon="1.68034">
        <ele>122.71</ele>
        <time>2016-05-15T09:39:32Z</time>
      </trkpt>
      <trkpt lat="49.15795" lon="1.68016">
        <ele>122.22</ele>
        <time>2016-05-15T09:39:47Z</time>
      </trkpt>
      <trkpt lat="49.15785" lon="1.68007">
        <ele>122.71</ele>
        <time>2016-05-15T09:40:03Z</time>
      </trkpt>
      <trkpt lat="49.15772" lon="1.67991">
        <ele>123.19</ele>
        <time>2016-05-15T09:40:16Z</time>
      </trkpt>
      <trkpt lat="49.15759" lon="1.67975">
        <ele>123.19</ele>
        <time>2016-05-15T09:40:32Z</time>
      </trkpt>
      <trkpt lat="49.15746" lon="1.67966">
        <ele>123.19</ele>
        <time>2016-05-15T09:40:47Z</time>
      </trkpt>
      <trkpt lat="49.15742" lon="1.67964">
        <ele>123.19</ele>
        <time>2016-05-15T09:41:03Z</time>
      </trkpt>
      <trkpt lat="49.15737" lon="1.6796">
        <ele>123.19</ele>
        <time>2016-05-15T09:41:12Z</time>
      </trkpt>
      <trkpt lat="49.1573" lon="1.67956">
        <ele>123.19</ele>
        <time>2016-05-15T09:41:26Z</time>
      </trkpt>
      <trkpt lat="49.15721" lon="1.67952">
        <ele>123.19</ele>
        <time>2016-05-15T09:41:38Z</time>
      </trkpt>
      <trkpt lat="49.15703" lon="1.6794">
        <ele>123.67</ele>
        <time>2016-05-15T09:41:57Z</time>
      </trkpt>
      <trkpt lat="49.15689" lon="1.67924">
        <ele>123.19</ele>
        <time>2016-05-15T09:42:12Z</time>
      </trkpt>
      <trkpt lat="49.15673" lon="1.67908">
        <ele>122.22</ele>
        <time>2016-05-15T09:42:28Z</time>
      </trkpt>
      <trkpt lat="49.15656" lon="1.67893">
        <ele>122.71</ele>
        <time>2016-05-15T09:42:45Z</time>
      </trkpt>
      <trkpt lat="49.15642" lon="1.6788">
        <ele>123.19</ele>
        <time>2016-05-15T09:42:59Z</time>
      </trkpt>
      <trkpt lat="49.15636" lon="1.67874">
        <ele>124.15</ele>
        <time>2016-05-15T09:43:07Z</time>
      </trkpt>
      <trkpt lat="49.15618" lon="1.67866">
        <ele>124.63</ele>
        <time>2016-05-15T09:43:24Z</time>
      </trkpt>
      <trkpt lat="49.15606" lon="1.67853">
        <ele>124.15</ele>
        <time>2016-05-15T09:43:39Z</time>
      </trkpt>
      <trkpt lat="49.15606" lon="1.67851">
        <ele>124.63</ele>
        <time>2016-05-15T09:43:53Z</time>
      </trkpt>
      <trkpt lat="49.15604" lon="1.67846">
        <ele>124.63</ele>
        <time>2016-05-15T09:44:08Z</time>
      </trkpt>
      <trkpt lat="49.15605" lon="1.67849">
        <ele>124.63</ele>
        <time>2016-05-15T09:44:26Z</time>
      </trkpt>
      <trkpt lat="49.15604" lon="1.67852">
        <ele>124.63</ele>
        <time>2016-05-15T09:44:43Z</time>
      </trkpt>
      <trkpt lat="49.15602" lon="1.67848">
        <ele>124.63</ele>
        <time>2016-05-15T09:44:56Z</time>
      </trkpt>
      <trkpt lat="49.15596" lon="1.67844">
        <ele>124.15</ele>
        <time>2016-05-15T09:45:03Z</time>
      </trkpt>
      <trkpt lat="49.15584" lon="1.67831">
        <ele>124.15</ele>
        <time>2016-05-15T09:45:16Z</time>
      </trkpt>
      <trkpt lat="49.15576" lon="1.67822">
        <ele>124.15</ele>
        <time>2016-05-15T09:45:27Z</time>
      </trkpt>
      <trkpt lat="49.15563" lon="1.67807">
        <ele>123.67</ele>
        <time>2016-05-15T09:45:43Z</time>
      </trkpt>
      <trkpt lat="49.15561" lon="1.67804">
        <ele>123.67</ele>
        <time>2016-05-15T09:45:46Z</time>
      </trkpt>
      <trkpt lat="49.15546" lon="1.67788">
        <ele>123.67</ele>
        <time>2016-05-15T09:46:03Z</time>
      </trkpt>
      <trkpt lat="49.15534" lon="1.67777">
        <ele>123.19</ele>
        <time>2016-05-15T09:46:18Z</time>
      </trkpt>
      <trkpt lat="49.15521" lon="1.67763">
        <ele>122.71</ele>
        <time>2016-05-15T09:46:31Z</time>
      </trkpt>
      <trkpt lat="49.15507" lon="1.67748">
        <ele>122.22</ele>
        <time>2016-05-15T09:46:46Z</time>
      </trkpt>
      <trkpt lat="49.15492" lon="1.67731">
        <ele>121.26</ele>
        <time>2016-05-15T09:47:01Z</time>
      </trkpt>
      <trkpt lat="49.15484" lon="1.67723">
        <ele>121.26</ele>
        <time>2016-05-15T09:47:10Z</time>
      </trkpt>
      <trkpt lat="49.15478" lon="1.67717">
        <ele>120.78</ele>
        <time>2016-05-15T09:47:16Z</time>
      </trkpt>
      <trkpt lat="49.15466" lon="1.67705">
        <ele>120.3</ele>
        <time>2016-05-15T09:47:29Z</time>
      </trkpt>
      <trkpt lat="49.15452" lon="1.67691">
        <ele>119.82</ele>
        <time>2016-05-15T09:47:44Z</time>
      </trkpt>
      <trkpt lat="49.15451" lon="1.67689">
        <ele>119.82</ele>
        <time>2016-05-15T09:47:46Z</time>
      </trkpt>
      <trkpt lat="49.15441" lon="1.6768">
        <ele>119.34</ele>
        <time>2016-05-15T09:47:55Z</time>
      </trkpt>
      <trkpt lat="49.15427" lon="1.67662">
        <ele>118.86</ele>
        <time>2016-05-15T09:48:10Z</time>
      </trkpt>
      <trkpt lat="49.15414" lon="1.67649">
        <ele>118.38</ele>
        <time>2016-05-15T09:48:24Z</time>
      </trkpt>
      <trkpt lat="49.15406" lon="1.6764">
        <ele>117.42</ele>
        <time>2016-05-15T09:48:32Z</time>
      </trkpt>
      <trkpt lat="49.15405" lon="1.67637">
        <ele>117.42</ele>
        <time>2016-05-15T09:48:34Z</time>
      </trkpt>
      <trkpt lat="49.15391" lon="1.67621">
        <ele>116.46</ele>
        <time>2016-05-15T09:48:49Z</time>
      </trkpt>
      <trkpt lat="49.15376" lon="1.67606">
        <ele>115.98</ele>
        <time>2016-05-15T09:49:04Z</time>
      </trkpt>
      <trkpt lat="49.15364" lon="1.67595">
        <ele>115.01</ele>
        <time>2016-05-15T09:49:18Z</time>
      </trkpt>
      <trkpt lat="49.15351" lon="1.67581">
        <ele>114.53</ele>
        <time>2016-05-15T09:49:33Z</time>
      </trkpt>
      <trkpt lat="49.15335" lon="1.67565">
        <ele>114.05</ele>
        <time>2016-05-15T09:49:48Z</time>
      </trkpt>
      <trkpt lat="49.15322" lon="1.6755">
        <ele>113.09</ele>
        <time>2016-05-15T09:50:03Z</time>
      </trkpt>
      <trkpt lat="49.15306" lon="1.67533">
        <ele>112.61</ele>
        <time>2016-05-15T09:50:16Z</time>
      </trkpt>
      <trkpt lat="49.15293" lon="1.6752">
        <ele>111.17</ele>
        <time>2016-05-15T09:50:31Z</time>
      </trkpt>
      <trkpt lat="49.15278" lon="1.67505">
        <ele>110.21</ele>
        <time>2016-05-15T09:50:46Z</time>
      </trkpt>
      <trkpt lat="49.15264" lon="1.6749">
        <ele>108.77</ele>
        <time>2016-05-15T09:51:00Z</time>
      </trkpt>
      <trkpt lat="49.1525" lon="1.67476">
        <ele>108.29</ele>
        <time>2016-05-15T09:51:14Z</time>
      </trkpt>
      <trkpt lat="49.15235" lon="1.67461">
        <ele>107.81</ele>
        <time>2016-05-15T09:51:30Z</time>
      </trkpt>
      <trkpt lat="49.1522" lon="1.67453">
        <ele>106.36</ele>
        <time>2016-05-15T09:51:46Z</time>
      </trkpt>
      <trkpt lat="49.15201" lon="1.6744">
        <ele>104.92</ele>
        <time>2016-05-15T09:52:03Z</time>
      </trkpt>
      <trkpt lat="49.15178" lon="1.6743">
        <ele>104.44</ele>
        <time>2016-05-15T09:52:21Z</time>
      </trkpt>
      <trkpt lat="49.15163" lon="1.67421">
        <ele>102.04</ele>
        <time>2016-05-15T09:52:38Z</time>
      </trkpt>
      <trkpt lat="49.15149" lon="1.6741">
        <ele>99.63</ele>
        <time>2016-05-15T09:52:54Z</time>
      </trkpt>
      <trkpt lat="49.15128" lon="1.67392">
        <ele>97.23</ele>
        <time>2016-05-15T09:53:13Z</time>
      </trkpt>
      <trkpt lat="49.15108" lon="1.67376">
        <ele>95.79</ele>
        <time>2016-05-15T09:53:31Z</time>
      </trkpt>
      <trkpt lat="49.15094" lon="1.67369">
        <ele>94.83</ele>
        <time>2016-05-15T09:53:48Z</time>
      </trkpt>
      <trkpt lat="49.15091" lon="1.67369">
        <ele>94.35</ele>
        <time>2016-05-15T09:54:07Z</time>
      </trkpt>
      <trkpt lat="49.15087" lon="1.6737">
        <ele>94.83</ele>
        <time>2016-05-15T09:54:29Z</time>
      </trkpt>
      <trkpt lat="49.15086" lon="1.67358">
        <ele>93.87</ele>
        <time>2016-05-15T09:54:44Z</time>
      </trkpt>
      <trkpt lat="49.15076" lon="1.67351">
        <ele>92.42</ele>
        <time>2016-05-15T09:55:00Z</time>
      </trkpt>
      <trkpt lat="49.15064" lon="1.67342">
        <ele>90.5</ele>
        <time>2016-05-15T09:55:17Z</time>
      </trkpt>
      <trkpt lat="49.15051" lon="1.67334">
        <ele>89.06</ele>
        <time>2016-05-15T09:55:31Z</time>
      </trkpt>
      <trkpt lat="49.15037" lon="1.67324">
        <ele>86.66</ele>
        <time>2016-05-15T09:55:46Z</time>
      </trkpt>
      <trkpt lat="49.15032" lon="1.67321">
        <ele>86.18</ele>
        <time>2016-05-15T09:55:51Z</time>
      </trkpt>
      <trkpt lat="49.1502" lon="1.67311">
        <ele>83.77</ele>
        <time>2016-05-15T09:56:04Z</time>
      </trkpt>
      <trkpt lat="49.15015" lon="1.67304">
        <ele>83.77</ele>
        <time>2016-05-15T09:56:17Z</time>
      </trkpt>
      <trkpt lat="49.15001" lon="1.67299">
        <ele>81.85</ele>
        <time>2016-05-15T09:56:37Z</time>
      </trkpt>
      <trkpt lat="49.1499" lon="1.67287">
        <ele>80.89</ele>
        <time>2016-05-15T09:56:50Z</time>
      </trkpt>
      <trkpt lat="49.14978" lon="1.67284">
        <ele>79.45</ele>
        <time>2016-05-15T09:57:06Z</time>
      </trkpt>
      <trkpt lat="49.14977" lon="1.67285">
        <ele>79.45</ele>
        <time>2016-05-15T09:57:08Z</time>
      </trkpt>
      <trkpt lat="49.14974" lon="1.67292">
        <ele>79.45</ele>
        <time>2016-05-15T09:57:16Z</time>
      </trkpt>
      <trkpt lat="49.14969" lon="1.67297">
        <ele>79.45</ele>
        <time>2016-05-15T09:57:21Z</time>
      </trkpt>
      <trkpt lat="49.14952" lon="1.67305">
        <ele>78.48</ele>
        <time>2016-05-15T09:57:38Z</time>
      </trkpt>
      <trkpt lat="49.14938" lon="1.67308">
        <ele>78.48</ele>
        <time>2016-05-15T09:57:51Z</time>
      </trkpt>
      <trkpt lat="49.14928" lon="1.6731">
        <ele>77.52</ele>
        <time>2016-05-15T09:58:00Z</time>
      </trkpt>
      <trkpt lat="49.14913" lon="1.67323">
        <ele>77.04</ele>
        <time>2016-05-15T09:58:15Z</time>
      </trkpt>
      <trkpt lat="49.14912" lon="1.67326">
        <ele>77.04</ele>
        <time>2016-05-15T09:58:17Z</time>
      </trkpt>
      <trkpt lat="49.14912" lon="1.67331">
        <ele>77.04</ele>
        <time>2016-05-15T09:58:26Z</time>
      </trkpt>
      <trkpt lat="49.1491" lon="1.67339">
        <ele>77.04</ele>
        <time>2016-05-15T09:58:32Z</time>
      </trkpt>
      <trkpt lat="49.14908" lon="1.6735">
        <ele>77.52</ele>
        <time>2016-05-15T09:58:38Z</time>
      </trkpt>
      <trkpt lat="49.14898" lon="1.67378">
        <ele>76.08</ele>
        <time>2016-05-15T09:58:55Z</time>
      </trkpt>
      <trkpt lat="49.14893" lon="1.67397">
        <ele>75.6</ele>
        <time>2016-05-15T09:59:09Z</time>
      </trkpt>
      <trkpt lat="49.14887" lon="1.67413">
        <ele>75.12</ele>
        <time>2016-05-15T09:59:23Z</time>
      </trkpt>
      <trkpt lat="49.14887" lon="1.67416">
        <ele>74.64</ele>
        <time>2016-05-15T09:59:25Z</time>
      </trkpt>
      <trkpt lat="49.14883" lon="1.67439">
        <ele>74.16</ele>
        <time>2016-05-15T09:59:40Z</time>
      </trkpt>
      <trkpt lat="49.1488" lon="1.67459">
        <ele>74.16</ele>
        <time>2016-05-15T09:59:54Z</time>
      </trkpt>
      <trkpt lat="49.14879" lon="1.67478">
        <ele>73.68</ele>
        <time>2016-05-15T10:00:06Z</time>
      </trkpt>
      <trkpt lat="49.14881" lon="1.67483">
        <ele>73.68</ele>
        <time>2016-05-15T10:00:10Z</time>
      </trkpt>
      <trkpt lat="49.14888" lon="1.6749">
        <ele>74.64</ele>
        <time>2016-05-15T10:00:24Z</time>
      </trkpt>
      <trkpt lat="49.14897" lon="1.67497">
        <ele>75.6</ele>
        <time>2016-05-15T10:00:36Z</time>
      </trkpt>
      <trkpt lat="49.14912" lon="1.6751">
        <ele>76.56</ele>
        <time>2016-05-15T10:00:54Z</time>
      </trkpt>
      <trkpt lat="49.14923" lon="1.67523">
        <ele>78.48</ele>
        <time>2016-05-15T10:01:13Z</time>
      </trkpt>
      <trkpt lat="49.14935" lon="1.67538">
        <ele>80.41</ele>
        <time>2016-05-15T10:01:28Z</time>
      </trkpt>
      <trkpt lat="49.14949" lon="1.67553">
        <ele>82.33</ele>
        <time>2016-05-15T10:01:46Z</time>
      </trkpt>
      <trkpt lat="49.14956" lon="1.67561">
        <ele>83.77</ele>
        <time>2016-05-15T10:02:04Z</time>
      </trkpt>
      <trkpt lat="49.14971" lon="1.67572">
        <ele>85.69</ele>
        <time>2016-05-15T10:02:19Z</time>
      </trkpt>
      <trkpt lat="49.14985" lon="1.67584">
        <ele>88.58</ele>
        <time>2016-05-15T10:02:39Z</time>
      </trkpt>
      <trkpt lat="49.14998" lon="1.67596">
        <ele>90.5</ele>
        <time>2016-05-15T10:02:57Z</time>
      </trkpt>
      <trkpt lat="49.15004" lon="1.67608">
        <ele>91.94</ele>
        <time>2016-05-15T10:03:12Z</time>
      </trkpt>
      <trkpt lat="49.15017" lon="1.67623">
        <ele>93.87</ele>
        <time>2016-05-15T10:03:27Z</time>
      </trkpt>
      <trkpt lat="49.15022" lon="1.67639">
        <ele>94.83</ele>
        <time>2016-05-15T10:03:42Z</time>
      </trkpt>
      <trkpt lat="49.15034" lon="1.6766">
        <ele>96.27</ele>
        <time>2016-05-15T10:03:59Z</time>
      </trkpt>
      <trkpt lat="49.15047" lon="1.67676">
        <ele>97.71</ele>
        <time>2016-05-15T10:04:16Z</time>
      </trkpt>
      <trkpt lat="49.1506" lon="1.6769">
        <ele>99.63</ele>
        <time>2016-05-15T10:04:33Z</time>
      </trkpt>
      <trkpt lat="49.15075" lon="1.67703">
        <ele>101.08</ele>
        <time>2016-05-15T10:04:50Z</time>
      </trkpt>
      <trkpt lat="49.15092" lon="1.67723">
        <ele>102.52</ele>
        <time>2016-05-15T10:05:10Z</time>
      </trkpt>
      <trkpt lat="49.15104" lon="1.67738">
        <ele>103</ele>
        <time>2016-05-15T10:05:27Z</time>
      </trkpt>
      <trkpt lat="49.1512" lon="1.6776">
        <ele>103.48</ele>
        <time>2016-05-15T10:05:44Z</time>
      </trkpt>
      <trkpt lat="49.15132" lon="1.67779">
        <ele>103.48</ele>
        <time>2016-05-15T10:06:01Z</time>
      </trkpt>
      <trkpt lat="49.15147" lon="1.67804">
        <ele>103</ele>
        <time>2016-05-15T10:06:21Z</time>
      </trkpt>
      <trkpt lat="49.15159" lon="1.67823">
        <ele>103.96</ele>
        <time>2016-05-15T10:06:37Z</time>
      </trkpt>
      <trkpt lat="49.1517" lon="1.67849">
        <ele>103.48</ele>
        <time>2016-05-15T10:06:56Z</time>
      </trkpt>
      <trkpt lat="49.15179" lon="1.67868">
        <ele>103.48</ele>
        <time>2016-05-15T10:07:10Z</time>
      </trkpt>
      <trkpt lat="49.15192" lon="1.67894">
        <ele>103.48</ele>
        <time>2016-05-15T10:07:29Z</time>
      </trkpt>
      <trkpt lat="49.152" lon="1.6791">
        <ele>103.48</ele>
        <time>2016-05-15T10:07:47Z</time>
      </trkpt>
      <trkpt lat="49.15199" lon="1.67913">
        <ele>103.48</ele>
        <time>2016-05-15T10:08:14Z</time>
      </trkpt>
      <trkpt lat="49.15208" lon="1.67919">
        <ele>103.48</ele>
        <time>2016-05-15T10:08:47Z</time>
      </trkpt>
      <trkpt lat="49.15219" lon="1.67937">
        <ele>103.48</ele>
        <time>2016-05-15T10:09:05Z</time>
      </trkpt>
      <trkpt lat="49.15234" lon="1.67958">
        <ele>103.96</ele>
        <time>2016-05-15T10:09:27Z</time>
      </trkpt>
      <trkpt lat="49.15242" lon="1.67971">
        <ele>103.96</ele>
        <time>2016-05-15T10:09:48Z</time>
      </trkpt>
      <trkpt lat="49.15256" lon="1.67995">
        <ele>104.44</ele>
        <time>2016-05-15T10:10:07Z</time>
      </trkpt>
      <trkpt lat="49.15262" lon="1.68011">
        <ele>104.92</ele>
        <time>2016-05-15T10:10:19Z</time>
      </trkpt>
      <trkpt lat="49.15269" lon="1.6803">
        <ele>103.96</ele>
        <time>2016-05-15T10:10:34Z</time>
      </trkpt>
      <trkpt lat="49.15276" lon="1.68054">
        <ele>103.48</ele>
        <time>2016-05-15T10:10:48Z</time>
      </trkpt>
      <trkpt lat="49.15285" lon="1.68081">
        <ele>102.52</ele>
        <time>2016-05-15T10:11:06Z</time>
      </trkpt>
      <trkpt lat="49.15291" lon="1.68099">
        <ele>102.04</ele>
        <time>2016-05-15T10:11:20Z</time>
      </trkpt>
      <trkpt lat="49.15297" lon="1.68129">
        <ele>101.56</ele>
        <time>2016-05-15T10:11:39Z</time>
      </trkpt>
      <trkpt lat="49.15302" lon="1.68165">
        <ele>100.6</ele>
        <time>2016-05-15T10:11:58Z</time>
      </trkpt>
      <trkpt lat="49.15307" lon="1.68195">
        <ele>100.6</ele>
        <time>2016-05-15T10:12:14Z</time>
      </trkpt>
      <trkpt lat="49.15309" lon="1.68222">
        <ele>100.6</ele>
        <time>2016-05-15T10:12:29Z</time>
      </trkpt>
      <trkpt lat="49.15316" lon="1.6825">
        <ele>100.6</ele>
        <time>2016-05-15T10:12:45Z</time>
      </trkpt>
      <trkpt lat="49.15323" lon="1.68276">
        <ele>100.6</ele>
        <time>2016-05-15T10:13:01Z</time>
      </trkpt>
      <trkpt lat="49.15326" lon="1.68297">
        <ele>100.11</ele>
        <time>2016-05-15T10:13:13Z</time>
      </trkpt>
      <trkpt lat="49.15333" lon="1.68331">
        <ele>99.63</ele>
        <time>2016-05-15T10:13:30Z</time>
      </trkpt>
      <trkpt lat="49.15342" lon="1.68344">
        <ele>99.15</ele>
        <time>2016-05-15T10:13:45Z</time>
      </trkpt>
      <trkpt lat="49.15342" lon="1.68339">
        <ele>99.15</ele>
        <time>2016-05-15T10:14:12Z</time>
      </trkpt>
      <trkpt lat="49.15342" lon="1.68343">
        <ele>99.15</ele>
        <time>2016-05-15T10:14:35Z</time>
      </trkpt>
      <trkpt lat="49.1534" lon="1.68337">
        <ele>99.15</ele>
        <time>2016-05-15T10:14:57Z</time>
      </trkpt>
      <trkpt lat="49.1534" lon="1.68342">
        <ele>99.15</ele>
        <time>2016-05-15T10:15:09Z</time>
      </trkpt>
      <trkpt lat="49.15341" lon="1.68344">
        <ele>99.15</ele>
        <time>2016-05-15T10:15:33Z</time>
      </trkpt>
      <trkpt lat="49.15343" lon="1.68346">
        <ele>98.67</ele>
        <time>2016-05-15T10:15:50Z</time>
      </trkpt>
      <trkpt lat="49.15345" lon="1.68351">
        <ele>98.67</ele>
        <time>2016-05-15T10:16:03Z</time>
      </trkpt>
      <trkpt lat="49.15353" lon="1.68366">
        <ele>98.67</ele>
        <time>2016-05-15T10:16:17Z</time>
      </trkpt>
      <trkpt lat="49.15357" lon="1.68377">
        <ele>98.19</ele>
        <time>2016-05-15T10:16:25Z</time>
      </trkpt>
      <trkpt lat="49.15364" lon="1.68401">
        <ele>98.19</ele>
        <time>2016-05-15T10:16:43Z</time>
      </trkpt>
      <trkpt lat="49.15373" lon="1.68431">
        <ele>98.67</ele>
        <time>2016-05-15T10:17:00Z</time>
      </trkpt>
      <trkpt lat="49.1538" lon="1.68452">
        <ele>99.15</ele>
        <time>2016-05-15T10:17:13Z</time>
      </trkpt>
      <trkpt lat="49.15388" lon="1.68472">
        <ele>98.67</ele>
        <time>2016-05-15T10:17:29Z</time>
      </trkpt>
      <trkpt lat="49.15401" lon="1.68503">
        <ele>97.71</ele>
        <time>2016-05-15T10:17:49Z</time>
      </trkpt>
      <trkpt lat="49.15411" lon="1.68531">
        <ele>96.27</ele>
        <time>2016-05-15T10:18:07Z</time>
      </trkpt>
      <trkpt lat="49.15412" lon="1.68534">
        <ele>95.79</ele>
        <time>2016-05-15T10:18:09Z</time>
      </trkpt>
      <trkpt lat="49.15418" lon="1.68553">
        <ele>94.83</ele>
        <time>2016-05-15T10:18:25Z</time>
      </trkpt>
      <trkpt lat="49.15422" lon="1.68589">
        <ele>93.87</ele>
        <time>2016-05-15T10:18:43Z</time>
      </trkpt>
      <trkpt lat="49.15426" lon="1.68618">
        <ele>93.39</ele>
        <time>2016-05-15T10:18:58Z</time>
      </trkpt>
      <trkpt lat="49.15429" lon="1.68638">
        <ele>93.39</ele>
        <time>2016-05-15T10:19:10Z</time>
      </trkpt>
      <trkpt lat="49.15431" lon="1.68646">
        <ele>93.39</ele>
        <time>2016-05-15T10:19:15Z</time>
      </trkpt>
      <trkpt lat="49.15435" lon="1.68671">
        <ele>92.9</ele>
        <time>2016-05-15T10:19:30Z</time>
      </trkpt>
      <trkpt lat="49.1544" lon="1.68693">
        <ele>92.42</ele>
        <time>2016-05-15T10:19:43Z</time>
      </trkpt>
      <trkpt lat="49.15447" lon="1.68718">
        <ele>91.46</ele>
        <time>2016-05-15T10:19:58Z</time>
      </trkpt>
      <trkpt lat="49.15451" lon="1.68742">
        <ele>90.5</ele>
        <time>2016-05-15T10:20:12Z</time>
      </trkpt>
      <trkpt lat="49.15455" lon="1.68756">
        <ele>90.02</ele>
        <time>2016-05-15T10:20:24Z</time>
      </trkpt>
      <trkpt lat="49.15455" lon="1.68758">
        <ele>90.5</ele>
        <time>2016-05-15T10:20:25Z</time>
      </trkpt>
      <trkpt lat="49.15458" lon="1.68767">
        <ele>90.02</ele>
        <time>2016-05-15T10:20:31Z</time>
      </trkpt>
      <trkpt lat="49.15464" lon="1.68797">
        <ele>89.54</ele>
        <time>2016-05-15T10:20:47Z</time>
      </trkpt>
      <trkpt lat="49.15465" lon="1.68805">
        <ele>89.06</ele>
        <time>2016-05-15T10:20:51Z</time>
      </trkpt>
      <trkpt lat="49.1547" lon="1.68821">
        <ele>89.54</ele>
        <time>2016-05-15T10:21:01Z</time>
      </trkpt>
      <trkpt lat="49.15471" lon="1.68828">
        <ele>89.06</ele>
        <time>2016-05-15T10:21:05Z</time>
      </trkpt>
      <trkpt lat="49.15472" lon="1.68837">
        <ele>89.54</ele>
        <time>2016-05-15T10:21:09Z</time>
      </trkpt>
      <trkpt lat="49.15473" lon="1.6884">
        <ele>89.54</ele>
        <time>2016-05-15T10:21:11Z</time>
      </trkpt>
      <trkpt lat="49.15475" lon="1.68871">
        <ele>89.06</ele>
        <time>2016-05-15T10:21:27Z</time>
      </trkpt>
      <trkpt lat="49.15482" lon="1.689">
        <ele>89.06</ele>
        <time>2016-05-15T10:21:43Z</time>
      </trkpt>
      <trkpt lat="49.15485" lon="1.68918">
        <ele>88.58</ele>
        <time>2016-05-15T10:21:53Z</time>
      </trkpt>
      <trkpt lat="49.15485" lon="1.68926">
        <ele>88.58</ele>
        <time>2016-05-15T10:21:57Z</time>
      </trkpt>
      <trkpt lat="49.15489" lon="1.68944">
        <ele>88.58</ele>
        <time>2016-05-15T10:22:09Z</time>
      </trkpt>
      <trkpt lat="49.15495" lon="1.68965">
        <ele>88.1</ele>
        <time>2016-05-15T10:22:22Z</time>
      </trkpt>
      <trkpt lat="49.15498" lon="1.68977">
        <ele>88.1</ele>
        <time>2016-05-15T10:22:28Z</time>
      </trkpt>
      <trkpt lat="49.155" lon="1.68982">
        <ele>88.1</ele>
        <time>2016-05-15T10:22:31Z</time>
      </trkpt>
      <trkpt lat="49.15501" lon="1.68994">
        <ele>88.1</ele>
        <time>2016-05-15T10:22:37Z</time>
      </trkpt>
      <trkpt lat="49.15502" lon="1.69002">
        <ele>88.1</ele>
        <time>2016-05-15T10:22:42Z</time>
      </trkpt>
      <trkpt lat="49.15504" lon="1.69013">
        <ele>88.1</ele>
        <time>2016-05-15T10:22:48Z</time>
      </trkpt>
      <trkpt lat="49.15505" lon="1.69016">
        <ele>88.1</ele>
        <time>2016-05-15T10:22:50Z</time>
      </trkpt>
      <trkpt lat="49.15506" lon="1.6904">
        <ele>87.62</ele>
        <time>2016-05-15T10:23:03Z</time>
      </trkpt>
      <trkpt lat="49.1551" lon="1.6907">
        <ele>87.14</ele>
        <time>2016-05-15T10:23:18Z</time>
      </trkpt>
      <trkpt lat="49.15519" lon="1.69093">
        <ele>86.18</ele>
        <time>2016-05-15T10:23:34Z</time>
      </trkpt>
      <trkpt lat="49.1552" lon="1.69106">
        <ele>85.69</ele>
        <time>2016-05-15T10:23:52Z</time>
      </trkpt>
      <trkpt lat="49.15519" lon="1.69134">
        <ele>84.25</ele>
        <time>2016-05-15T10:24:08Z</time>
      </trkpt>
      <trkpt lat="49.15531" lon="1.69163">
        <ele>83.29</ele>
        <time>2016-05-15T10:24:25Z</time>
      </trkpt>
      <trkpt lat="49.15536" lon="1.69187">
        <ele>83.29</ele>
        <time>2016-05-15T10:24:40Z</time>
      </trkpt>
      <trkpt lat="49.15537" lon="1.69219">
        <ele>83.29</ele>
        <time>2016-05-15T10:24:56Z</time>
      </trkpt>
      <trkpt lat="49.15551" lon="1.69238">
        <ele>83.29</ele>
        <time>2016-05-15T10:25:08Z</time>
      </trkpt>
      <trkpt lat="49.15555" lon="1.69266">
        <ele>83.77</ele>
        <time>2016-05-15T10:25:27Z</time>
      </trkpt>
      <trkpt lat="49.15553" lon="1.69298">
        <ele>84.25</ele>
        <time>2016-05-15T10:25:44Z</time>
      </trkpt>
      <trkpt lat="49.15555" lon="1.69328">
        <ele>85.21</ele>
        <time>2016-05-15T10:26:01Z</time>
      </trkpt>
      <trkpt lat="49.15556" lon="1.69351">
        <ele>86.18</ele>
        <time>2016-05-15T10:26:16Z</time>
      </trkpt>
      <trkpt lat="49.15557" lon="1.69364">
        <ele>86.66</ele>
        <time>2016-05-15T10:26:30Z</time>
      </trkpt>
      <trkpt lat="49.15564" lon="1.69402">
        <ele>87.14</ele>
        <time>2016-05-15T10:26:47Z</time>
      </trkpt>
      <trkpt lat="49.15568" lon="1.69424">
        <ele>88.1</ele>
        <time>2016-05-15T10:27:03Z</time>
      </trkpt>
      <trkpt lat="49.15568" lon="1.69454">
        <ele>89.06</ele>
        <time>2016-05-15T10:27:18Z</time>
      </trkpt>
      <trkpt lat="49.15571" lon="1.69478">
        <ele>88.1</ele>
        <time>2016-05-15T10:27:34Z</time>
      </trkpt>
      <trkpt lat="49.1557" lon="1.69504">
        <ele>87.62</ele>
        <time>2016-05-15T10:27:47Z</time>
      </trkpt>
      <trkpt lat="49.15574" lon="1.6953">
        <ele>86.18</ele>
        <time>2016-05-15T10:28:02Z</time>
      </trkpt>
      <trkpt lat="49.15576" lon="1.69558">
        <ele>85.69</ele>
        <time>2016-05-15T10:28:19Z</time>
      </trkpt>
      <trkpt lat="49.15578" lon="1.69595">
        <ele>85.21</ele>
        <time>2016-05-15T10:28:37Z</time>
      </trkpt>
      <trkpt lat="49.15579" lon="1.69604">
        <ele>85.21</ele>
        <time>2016-05-15T10:28:42Z</time>
      </trkpt>
      <trkpt lat="49.15582" lon="1.69635">
        <ele>84.25</ele>
        <time>2016-05-15T10:28:59Z</time>
      </trkpt>
      <trkpt lat="49.15586" lon="1.69662">
        <ele>83.77</ele>
        <time>2016-05-15T10:29:16Z</time>
      </trkpt>
      <trkpt lat="49.15589" lon="1.69694">
        <ele>83.29</ele>
        <time>2016-05-15T10:29:33Z</time>
      </trkpt>
      <trkpt lat="49.15592" lon="1.6972">
        <ele>83.29</ele>
        <time>2016-05-15T10:29:49Z</time>
      </trkpt>
      <trkpt lat="49.15595" lon="1.69746">
        <ele>83.29</ele>
        <time>2016-05-15T10:30:05Z</time>
      </trkpt>
      <trkpt lat="49.15596" lon="1.69751">
        <ele>83.29</ele>
        <time>2016-05-15T10:30:18Z</time>
      </trkpt>
      <trkpt lat="49.15595" lon="1.6976">
        <ele>83.29</ele>
        <time>2016-05-15T10:30:43Z</time>
      </trkpt>
      <trkpt lat="49.15592" lon="1.69769">
        <ele>83.29</ele>
        <time>2016-05-15T10:30:56Z</time>
      </trkpt>
      <trkpt lat="49.15595" lon="1.69794">
        <ele>83.29</ele>
        <time>2016-05-15T10:31:12Z</time>
      </trkpt>
      <trkpt lat="49.15596" lon="1.69806">
        <ele>83.29</ele>
        <time>2016-05-15T10:31:18Z</time>
      </trkpt>
      <trkpt lat="49.15599" lon="1.69828">
        <ele>83.77</ele>
        <time>2016-05-15T10:31:33Z</time>
      </trkpt>
      <trkpt lat="49.15599" lon="1.69842">
        <ele>83.77</ele>
        <time>2016-05-15T10:31:41Z</time>
      </trkpt>
      <trkpt lat="49.15601" lon="1.69864">
        <ele>83.77</ele>
        <time>2016-05-15T10:31:54Z</time>
      </trkpt>
      <trkpt lat="49.15601" lon="1.69873">
        <ele>83.77</ele>
        <time>2016-05-15T10:32:00Z</time>
      </trkpt>
      <trkpt lat="49.15605" lon="1.69886">
        <ele>83.77</ele>
        <time>2016-05-15T10:32:12Z</time>
      </trkpt>
      <trkpt lat="49.15611" lon="1.69906">
        <ele>84.25</ele>
        <time>2016-05-15T10:32:25Z</time>
      </trkpt>
      <trkpt lat="49.15614" lon="1.69928">
        <ele>84.73</ele>
        <time>2016-05-15T10:32:39Z</time>
      </trkpt>
      <trkpt lat="49.15613" lon="1.69951">
        <ele>85.69</ele>
        <time>2016-05-15T10:32:55Z</time>
      </trkpt>
      <trkpt lat="49.15612" lon="1.69982">
        <ele>86.18</ele>
        <time>2016-05-15T10:33:11Z</time>
      </trkpt>
      <trkpt lat="49.15616" lon="1.70009">
        <ele>87.14</ele>
        <time>2016-05-15T10:33:25Z</time>
      </trkpt>
      <trkpt lat="49.15614" lon="1.7003">
        <ele>87.14</ele>
        <time>2016-05-15T10:33:40Z</time>
      </trkpt>
      <trkpt lat="49.1561" lon="1.7006">
        <ele>87.14</ele>
        <time>2016-05-15T10:33:55Z</time>
      </trkpt>
      <trkpt lat="49.15611" lon="1.70086">
        <ele>87.14</ele>
        <time>2016-05-15T10:34:08Z</time>
      </trkpt>
      <trkpt lat="49.15612" lon="1.70105">
        <ele>87.14</ele>
        <time>2016-05-15T10:34:18Z</time>
      </trkpt>
      <trkpt lat="49.15618" lon="1.70121">
        <ele>87.62</ele>
        <time>2016-05-15T10:34:32Z</time>
      </trkpt>
      <trkpt lat="49.15617" lon="1.70114">
        <ele>87.14</ele>
        <time>2016-05-15T10:34:47Z</time>
      </trkpt>
      <trkpt lat="49.15621" lon="1.7012">
        <ele>87.14</ele>
        <time>2016-05-15T10:35:05Z</time>
      </trkpt>
      <trkpt lat="49.15621" lon="1.70129">
        <ele>87.62</ele>
        <time>2016-05-15T10:35:18Z</time>
      </trkpt>
      <trkpt lat="49.15622" lon="1.70139">
        <ele>87.14</ele>
        <time>2016-05-15T10:35:30Z</time>
      </trkpt>
      <trkpt lat="49.15619" lon="1.70133">
        <ele>87.62</ele>
        <time>2016-05-15T10:35:52Z</time>
      </trkpt>
      <trkpt lat="49.1562" lon="1.70134">
        <ele>87.62</ele>
        <time>2016-05-15T10:36:10Z</time>
      </trkpt>
      <trkpt lat="49.15621" lon="1.70133">
        <ele>87.62</ele>
        <time>2016-05-15T10:36:35Z</time>
      </trkpt>
      <trkpt lat="49.15622" lon="1.70136">
        <ele>87.62</ele>
        <time>2016-05-15T10:36:44Z</time>
      </trkpt>
      <trkpt lat="49.15626" lon="1.70149">
        <ele>87.62</ele>
        <time>2016-05-15T10:36:51Z</time>
      </trkpt>
      <trkpt lat="49.15632" lon="1.70175">
        <ele>88.1</ele>
        <time>2016-05-15T10:37:08Z</time>
      </trkpt>
      <trkpt lat="49.15634" lon="1.70181">
        <ele>88.1</ele>
        <time>2016-05-15T10:37:11Z</time>
      </trkpt>
      <trkpt lat="49.15638" lon="1.70193">
        <ele>88.1</ele>
        <time>2016-05-15T10:37:18Z</time>
      </trkpt>
      <trkpt lat="49.15641" lon="1.70197">
        <ele>87.62</ele>
        <time>2016-05-15T10:37:22Z</time>
      </trkpt>
      <trkpt lat="49.15653" lon="1.70218">
        <ele>87.62</ele>
        <time>2016-05-15T10:37:38Z</time>
      </trkpt>
      <trkpt lat="49.15654" lon="1.70219">
        <ele>87.62</ele>
        <time>2016-05-15T10:37:39Z</time>
      </trkpt>
      <trkpt lat="49.15656" lon="1.70221">
        <ele>87.14</ele>
        <time>2016-05-15T10:37:42Z</time>
      </trkpt>
      <trkpt lat="49.15662" lon="1.70229">
        <ele>86.66</ele>
        <time>2016-05-15T10:37:50Z</time>
      </trkpt>
      <trkpt lat="49.15676" lon="1.70251">
        <ele>85.69</ele>
        <time>2016-05-15T10:38:08Z</time>
      </trkpt>
      <trkpt lat="49.15679" lon="1.70256">
        <ele>85.69</ele>
        <time>2016-05-15T10:38:12Z</time>
      </trkpt>
      <trkpt lat="49.15685" lon="1.70263">
        <ele>85.21</ele>
        <time>2016-05-15T10:38:26Z</time>
      </trkpt>
      <trkpt lat="49.15689" lon="1.70264">
        <ele>85.21</ele>
        <time>2016-05-15T10:38:29Z</time>
      </trkpt>
      <trkpt lat="49.15694" lon="1.70268">
        <ele>85.21</ele>
        <time>2016-05-15T10:38:34Z</time>
      </trkpt>
      <trkpt lat="49.15703" lon="1.7027">
        <ele>84.73</ele>
        <time>2016-05-15T10:38:43Z</time>
      </trkpt>
      <trkpt lat="49.15717" lon="1.70278">
        <ele>84.73</ele>
        <time>2016-05-15T10:39:00Z</time>
      </trkpt>
      <trkpt lat="49.15727" lon="1.70284">
        <ele>84.73</ele>
        <time>2016-05-15T10:39:14Z</time>
      </trkpt>
      <trkpt lat="49.15742" lon="1.70299">
        <ele>84.25</ele>
        <time>2016-05-15T10:39:28Z</time>
      </trkpt>
      <trkpt lat="49.15756" lon="1.70317">
        <ele>84.25</ele>
        <time>2016-05-15T10:39:43Z</time>
      </trkpt>
      <trkpt lat="49.1577" lon="1.70335">
        <ele>84.73</ele>
        <time>2016-05-15T10:39:58Z</time>
      </trkpt>
      <trkpt lat="49.15784" lon="1.70359">
        <ele>84.25</ele>
        <time>2016-05-15T10:40:15Z</time>
      </trkpt>
      <trkpt lat="49.15792" lon="1.70371">
        <ele>84.25</ele>
        <time>2016-05-15T10:40:25Z</time>
      </trkpt>
      <trkpt lat="49.15796" lon="1.70376">
        <ele>84.25</ele>
        <time>2016-05-15T10:40:29Z</time>
      </trkpt>
      <trkpt lat="49.15807" lon="1.70388">
        <ele>84.25</ele>
        <time>2016-05-15T10:40:41Z</time>
      </trkpt>
      <trkpt lat="49.1581" lon="1.70393">
        <ele>84.25</ele>
        <time>2016-05-15T10:40:54Z</time>
      </trkpt>
      <trkpt lat="49.15811" lon="1.70394">
        <ele>84.25</ele>
        <time>2016-05-15T10:41:11Z</time>
      </trkpt>
      <trkpt lat="49.15811" lon="1.70395">
        <ele>84.25</ele>
        <time>2016-05-15T10:41:32Z</time>
      </trkpt>
      <trkpt lat="49.15811" lon="1.70393">
        <ele>84.25</ele>
        <time>2016-05-15T10:41:59Z</time>
      </trkpt>
      <trkpt lat="49.15813" lon="1.70392">
        <ele>84.73</ele>
        <time>2016-05-15T10:42:17Z</time>
      </trkpt>
      <trkpt lat="49.15813" lon="1.70392">
        <ele>84.73</ele>
        <time>2016-05-15T10:42:43Z</time>
      </trkpt>
      <trkpt lat="49.15814" lon="1.70391">
        <ele>84.73</ele>
        <time>2016-05-15T10:43:08Z</time>
      </trkpt>
      <trkpt lat="49.15814" lon="1.70394">
        <ele>84.73</ele>
        <time>2016-05-15T10:43:18Z</time>
      </trkpt>
      <trkpt lat="49.15818" lon="1.70404">
        <ele>85.21</ele>
        <time>2016-05-15T10:43:25Z</time>
      </trkpt>
      <trkpt lat="49.15829" lon="1.70422">
        <ele>85.21</ele>
        <time>2016-05-15T10:43:42Z</time>
      </trkpt>
      <trkpt lat="49.15836" lon="1.70432">
        <ele>85.21</ele>
        <time>2016-05-15T10:43:55Z</time>
      </trkpt>
      <trkpt lat="49.1584" lon="1.70439">
        <ele>85.69</ele>
        <time>2016-05-15T10:44:00Z</time>
      </trkpt>
      <trkpt lat="49.15852" lon="1.70457">
        <ele>86.18</ele>
        <time>2016-05-15T10:44:16Z</time>
      </trkpt>
      <trkpt lat="49.15867" lon="1.70477">
        <ele>86.66</ele>
        <time>2016-05-15T10:44:33Z</time>
      </trkpt>
      <trkpt lat="49.15875" lon="1.7049">
        <ele>87.14</ele>
        <time>2016-05-15T10:44:44Z</time>
      </trkpt>
      <trkpt lat="49.15879" lon="1.70496">
        <ele>87.14</ele>
        <time>2016-05-15T10:44:48Z</time>
      </trkpt>
      <trkpt lat="49.15885" lon="1.70508">
        <ele>87.62</ele>
        <time>2016-05-15T10:44:57Z</time>
      </trkpt>
      <trkpt lat="49.15896" lon="1.70524">
        <ele>86.66</ele>
        <time>2016-05-15T10:45:10Z</time>
      </trkpt>
      <trkpt lat="49.15904" lon="1.70533">
        <ele>86.18</ele>
        <time>2016-05-15T10:45:21Z</time>
      </trkpt>
      <trkpt lat="49.15905" lon="1.70535">
        <ele>86.18</ele>
        <time>2016-05-15T10:45:23Z</time>
      </trkpt>
      <trkpt lat="49.15909" lon="1.70541">
        <ele>85.69</ele>
        <time>2016-05-15T10:45:27Z</time>
      </trkpt>
      <trkpt lat="49.15909" lon="1.70564">
        <ele>84.25</ele>
        <time>2016-05-15T10:45:40Z</time>
      </trkpt>
      <trkpt lat="49.15889" lon="1.70584">
        <ele>82.81</ele>
        <time>2016-05-15T10:46:01Z</time>
      </trkpt>
      <trkpt lat="49.15885" lon="1.70599">
        <ele>81.85</ele>
        <time>2016-05-15T10:46:23Z</time>
      </trkpt>
      <trkpt lat="49.15883" lon="1.70617">
        <ele>80.89</ele>
        <time>2016-05-15T10:46:46Z</time>
      </trkpt>
      <trkpt lat="49.15882" lon="1.70632">
        <ele>80.41</ele>
        <time>2016-05-15T10:46:58Z</time>
      </trkpt>
      <trkpt lat="49.15873" lon="1.70652">
        <ele>83.77</ele>
        <time>2016-05-15T11:25:19Z</time>
      </trkpt>
      <trkpt lat="49.15873" lon="1.70652">
        <ele>83.29</ele>
        <time>2016-05-15T11:26:26Z</time>
      </trkpt>
      <trkpt lat="49.15872" lon="1.70661">
        <ele>83.29</ele>
        <time>2016-05-15T11:27:13Z</time>
      </trkpt>
      <trkpt lat="49.15872" lon="1.70664">
        <ele>83.29</ele>
        <time>2016-05-15T11:27:29Z</time>
      </trkpt>
      <trkpt lat="49.15873" lon="1.70671">
        <ele>82.81</ele>
        <time>2016-05-15T11:27:43Z</time>
      </trkpt>
      <trkpt lat="49.15871" lon="1.70684">
        <ele>82.81</ele>
        <time>2016-05-15T11:28:02Z</time>
      </trkpt>
      <trkpt lat="49.15876" lon="1.70699">
        <ele>82.81</ele>
        <time>2016-05-15T11:28:16Z</time>
      </trkpt>
      <trkpt lat="49.1588" lon="1.70716">
        <ele>82.33</ele>
        <time>2016-05-15T11:28:32Z</time>
      </trkpt>
      <trkpt lat="49.15883" lon="1.70717">
        <ele>81.85</ele>
        <time>2016-05-15T11:28:52Z</time>
      </trkpt>
      <trkpt lat="49.15886" lon="1.70719">
        <ele>81.85</ele>
        <time>2016-05-15T11:29:10Z</time>
      </trkpt>
      <trkpt lat="49.15891" lon="1.70727">
        <ele>80.89</ele>
        <time>2016-05-15T11:29:21Z</time>
      </trkpt>
      <trkpt lat="49.15899" lon="1.7074">
        <ele>80.89</ele>
        <time>2016-05-15T11:29:30Z</time>
      </trkpt>
      <trkpt lat="49.15899" lon="1.70745">
        <ele>79.93</ele>
        <time>2016-05-15T11:29:32Z</time>
      </trkpt>
      <trkpt lat="49.15906" lon="1.70769">
        <ele>79.45</ele>
        <time>2016-05-15T11:29:45Z</time>
      </trkpt>
      <trkpt lat="49.15911" lon="1.70787">
        <ele>79.45</ele>
        <time>2016-05-15T11:29:57Z</time>
      </trkpt>
      <trkpt lat="49.15912" lon="1.70791">
        <ele>78.97</ele>
        <time>2016-05-15T11:30:00Z</time>
      </trkpt>
      <trkpt lat="49.15916" lon="1.70799">
        <ele>78.97</ele>
        <time>2016-05-15T11:30:06Z</time>
      </trkpt>
      <trkpt lat="49.1592" lon="1.70803">
        <ele>78.97</ele>
        <time>2016-05-15T11:30:19Z</time>
      </trkpt>
      <trkpt lat="49.15919" lon="1.70805">
        <ele>78.97</ele>
        <time>2016-05-15T11:30:36Z</time>
      </trkpt>
      <trkpt lat="49.15918" lon="1.70812">
        <ele>78.97</ele>
        <time>2016-05-15T11:30:52Z</time>
      </trkpt>
      <trkpt lat="49.15916" lon="1.70817">
        <ele>78.97</ele>
        <time>2016-05-15T11:30:55Z</time>
      </trkpt>
      <trkpt lat="49.15906" lon="1.70833">
        <ele>79.93</ele>
        <time>2016-05-15T11:31:08Z</time>
      </trkpt>
      <trkpt lat="49.15904" lon="1.70835">
        <ele>79.93</ele>
        <time>2016-05-15T11:31:10Z</time>
      </trkpt>
      <trkpt lat="49.15903" lon="1.70837">
        <ele>80.41</ele>
        <time>2016-05-15T11:31:12Z</time>
      </trkpt>
      <trkpt lat="49.15883" lon="1.70846">
        <ele>81.37</ele>
        <time>2016-05-15T11:31:29Z</time>
      </trkpt>
      <trkpt lat="49.15878" lon="1.70847">
        <ele>80.89</ele>
        <time>2016-05-15T11:31:43Z</time>
      </trkpt>
      <trkpt lat="49.15871" lon="1.7085">
        <ele>81.37</ele>
        <time>2016-05-15T11:31:53Z</time>
      </trkpt>
      <trkpt lat="49.15863" lon="1.70854">
        <ele>81.37</ele>
        <time>2016-05-15T11:32:04Z</time>
      </trkpt>
      <trkpt lat="49.15854" lon="1.70865">
        <ele>81.85</ele>
        <time>2016-05-15T11:32:17Z</time>
      </trkpt>
      <trkpt lat="49.15843" lon="1.70884">
        <ele>83.29</ele>
        <time>2016-05-15T11:32:34Z</time>
      </trkpt>
      <trkpt lat="49.15838" lon="1.70892">
        <ele>84.25</ele>
        <time>2016-05-15T11:32:45Z</time>
      </trkpt>
      <trkpt lat="49.1583" lon="1.70908">
        <ele>85.69</ele>
        <time>2016-05-15T11:33:00Z</time>
      </trkpt>
      <trkpt lat="49.15824" lon="1.70922">
        <ele>86.66</ele>
        <time>2016-05-15T11:33:12Z</time>
      </trkpt>
      <trkpt lat="49.15817" lon="1.70936">
        <ele>87.14</ele>
        <time>2016-05-15T11:33:25Z</time>
      </trkpt>
      <trkpt lat="49.15811" lon="1.70953">
        <ele>88.58</ele>
        <time>2016-05-15T11:33:38Z</time>
      </trkpt>
      <trkpt lat="49.1581" lon="1.70954">
        <ele>88.58</ele>
        <time>2016-05-15T11:33:39Z</time>
      </trkpt>
      <trkpt lat="49.15803" lon="1.70972">
        <ele>89.06</ele>
        <time>2016-05-15T11:33:54Z</time>
      </trkpt>
      <trkpt lat="49.15795" lon="1.70989">
        <ele>90.02</ele>
        <time>2016-05-15T11:34:09Z</time>
      </trkpt>
      <trkpt lat="49.15792" lon="1.70995">
        <ele>90.5</ele>
        <time>2016-05-15T11:34:15Z</time>
      </trkpt>
      <trkpt lat="49.15788" lon="1.71018">
        <ele>90.98</ele>
        <time>2016-05-15T11:34:30Z</time>
      </trkpt>
      <trkpt lat="49.15787" lon="1.71029">
        <ele>92.42</ele>
        <time>2016-05-15T11:34:37Z</time>
      </trkpt>
      <trkpt lat="49.15782" lon="1.71047">
        <ele>93.39</ele>
        <time>2016-05-15T11:34:52Z</time>
      </trkpt>
      <trkpt lat="49.15779" lon="1.71066">
        <ele>94.35</ele>
        <time>2016-05-15T11:35:06Z</time>
      </trkpt>
      <trkpt lat="49.15774" lon="1.71083">
        <ele>95.79</ele>
        <time>2016-05-15T11:35:19Z</time>
      </trkpt>
      <trkpt lat="49.15772" lon="1.7109">
        <ele>95.79</ele>
        <time>2016-05-15T11:35:24Z</time>
      </trkpt>
      <trkpt lat="49.15767" lon="1.71107">
        <ele>96.75</ele>
        <time>2016-05-15T11:35:39Z</time>
      </trkpt>
      <trkpt lat="49.15766" lon="1.71112">
        <ele>96.75</ele>
        <time>2016-05-15T11:35:58Z</time>
      </trkpt>
      <trkpt lat="49.15765" lon="1.71121">
        <ele>97.71</ele>
        <time>2016-05-15T11:36:06Z</time>
      </trkpt>
      <trkpt lat="49.15759" lon="1.71141">
        <ele>98.19</ele>
        <time>2016-05-15T11:36:20Z</time>
      </trkpt>
      <trkpt lat="49.15754" lon="1.71154">
        <ele>99.15</ele>
        <time>2016-05-15T11:36:32Z</time>
      </trkpt>
      <trkpt lat="49.1575" lon="1.71171">
        <ele>100.11</ele>
        <time>2016-05-15T11:36:45Z</time>
      </trkpt>
      <trkpt lat="49.15744" lon="1.7119">
        <ele>101.08</ele>
        <time>2016-05-15T11:37:00Z</time>
      </trkpt>
      <trkpt lat="49.15743" lon="1.71196">
        <ele>101.56</ele>
        <time>2016-05-15T11:37:05Z</time>
      </trkpt>
      <trkpt lat="49.15739" lon="1.71205">
        <ele>102.04</ele>
        <time>2016-05-15T11:37:12Z</time>
      </trkpt>
      <trkpt lat="49.15737" lon="1.71209">
        <ele>102.04</ele>
        <time>2016-05-15T11:37:15Z</time>
      </trkpt>
      <trkpt lat="49.1573" lon="1.71232">
        <ele>103</ele>
        <time>2016-05-15T11:37:30Z</time>
      </trkpt>
      <trkpt lat="49.15724" lon="1.71251">
        <ele>103</ele>
        <time>2016-05-15T11:37:44Z</time>
      </trkpt>
      <trkpt lat="49.15721" lon="1.71267">
        <ele>103.96</ele>
        <time>2016-05-15T11:37:55Z</time>
      </trkpt>
      <trkpt lat="49.15721" lon="1.71285">
        <ele>104.44</ele>
        <time>2016-05-15T11:38:10Z</time>
      </trkpt>
      <trkpt lat="49.15721" lon="1.71285">
        <ele>104.92</ele>
        <time>2016-05-15T11:38:23Z</time>
      </trkpt>
      <trkpt lat="49.15724" lon="1.71291">
        <ele>105.4</ele>
        <time>2016-05-15T11:38:26Z</time>
      </trkpt>
      <trkpt lat="49.15726" lon="1.71294">
        <ele>105.4</ele>
        <time>2016-05-15T11:38:29Z</time>
      </trkpt>
      <trkpt lat="49.15729" lon="1.71299">
        <ele>105.4</ele>
        <time>2016-05-15T11:38:35Z</time>
      </trkpt>
      <trkpt lat="49.15735" lon="1.71317">
        <ele>106.36</ele>
        <time>2016-05-15T11:38:46Z</time>
      </trkpt>
      <trkpt lat="49.15743" lon="1.71339">
        <ele>107.81</ele>
        <time>2016-05-15T11:39:03Z</time>
      </trkpt>
      <trkpt lat="49.1575" lon="1.71359">
        <ele>108.77</ele>
        <time>2016-05-15T11:39:18Z</time>
      </trkpt>
      <trkpt lat="49.15752" lon="1.7138">
        <ele>110.21</ele>
        <time>2016-05-15T11:39:34Z</time>
      </trkpt>
      <trkpt lat="49.15762" lon="1.71402">
        <ele>111.65</ele>
        <time>2016-05-15T11:39:50Z</time>
      </trkpt>
      <trkpt lat="49.15762" lon="1.71403">
        <ele>111.65</ele>
        <time>2016-05-15T11:39:51Z</time>
      </trkpt>
      <trkpt lat="49.1577" lon="1.71424">
        <ele>113.09</ele>
        <time>2016-05-15T11:40:07Z</time>
      </trkpt>
      <trkpt lat="49.15778" lon="1.71442">
        <ele>113.57</ele>
        <time>2016-05-15T11:40:22Z</time>
      </trkpt>
      <trkpt lat="49.15789" lon="1.71464">
        <ele>114.05</ele>
        <time>2016-05-15T11:40:39Z</time>
      </trkpt>
      <trkpt lat="49.15803" lon="1.7148">
        <ele>115.01</ele>
        <time>2016-05-15T11:40:57Z</time>
      </trkpt>
      <trkpt lat="49.15822" lon="1.71499">
        <ele>115.01</ele>
        <time>2016-05-15T11:41:15Z</time>
      </trkpt>
      <trkpt lat="49.15837" lon="1.7151">
        <ele>115.98</ele>
        <time>2016-05-15T11:41:31Z</time>
      </trkpt>
      <trkpt lat="49.1584" lon="1.71516">
        <ele>115.98</ele>
        <time>2016-05-15T11:41:47Z</time>
      </trkpt>
      <trkpt lat="49.15842" lon="1.71514">
        <ele>115.98</ele>
        <time>2016-05-15T11:42:04Z</time>
      </trkpt>
      <trkpt lat="49.15853" lon="1.71522">
        <ele>115.98</ele>
        <time>2016-05-15T11:42:14Z</time>
      </trkpt>
      <trkpt lat="49.15855" lon="1.71527">
        <ele>115.98</ele>
        <time>2016-05-15T11:42:17Z</time>
      </trkpt>
      <trkpt lat="49.15855" lon="1.7153">
        <ele>115.98</ele>
        <time>2016-05-15T11:42:19Z</time>
      </trkpt>
      <trkpt lat="49.15845" lon="1.71539">
        <ele>116.46</ele>
        <time>2016-05-15T11:42:33Z</time>
      </trkpt>
      <trkpt lat="49.15829" lon="1.71558">
        <ele>116.46</ele>
        <time>2016-05-15T11:42:52Z</time>
      </trkpt>
      <trkpt lat="49.15819" lon="1.71574">
        <ele>116.94</ele>
        <time>2016-05-15T11:43:06Z</time>
      </trkpt>
      <trkpt lat="49.15804" lon="1.71589">
        <ele>117.42</ele>
        <time>2016-05-15T11:43:22Z</time>
      </trkpt>
      <trkpt lat="49.15786" lon="1.71606">
        <ele>117.9</ele>
        <time>2016-05-15T11:43:40Z</time>
      </trkpt>
      <trkpt lat="49.15773" lon="1.71619">
        <ele>118.86</ele>
        <time>2016-05-15T11:43:55Z</time>
      </trkpt>
      <trkpt lat="49.15772" lon="1.71619">
        <ele>118.86</ele>
        <time>2016-05-15T11:43:56Z</time>
      </trkpt>
      <trkpt lat="49.15755" lon="1.71632">
        <ele>120.3</ele>
        <time>2016-05-15T11:44:13Z</time>
      </trkpt>
      <trkpt lat="49.15741" lon="1.71645">
        <ele>121.26</ele>
        <time>2016-05-15T11:44:28Z</time>
      </trkpt>
      <trkpt lat="49.15737" lon="1.71649">
        <ele>121.74</ele>
        <time>2016-05-15T11:44:33Z</time>
      </trkpt>
      <trkpt lat="49.15728" lon="1.7166">
        <ele>121.74</ele>
        <time>2016-05-15T11:44:46Z</time>
      </trkpt>
      <trkpt lat="49.15722" lon="1.71671">
        <ele>121.74</ele>
        <time>2016-05-15T11:45:01Z</time>
      </trkpt>
      <trkpt lat="49.15708" lon="1.71688">
        <ele>122.22</ele>
        <time>2016-05-15T11:45:16Z</time>
      </trkpt>
      <trkpt lat="49.15695" lon="1.71695">
        <ele>122.71</ele>
        <time>2016-05-15T11:45:29Z</time>
      </trkpt>
      <trkpt lat="49.15694" lon="1.71692">
        <ele>122.71</ele>
        <time>2016-05-15T11:45:47Z</time>
      </trkpt>
      <trkpt lat="49.15692" lon="1.71695">
        <ele>122.22</ele>
        <time>2016-05-15T11:45:51Z</time>
      </trkpt>
      <trkpt lat="49.15689" lon="1.71697">
        <ele>122.22</ele>
        <time>2016-05-15T11:45:54Z</time>
      </trkpt>
      <trkpt lat="49.15671" lon="1.71707">
        <ele>123.19</ele>
        <time>2016-05-15T11:46:11Z</time>
      </trkpt>
      <trkpt lat="49.15664" lon="1.71708">
        <ele>123.19</ele>
        <time>2016-05-15T11:46:16Z</time>
      </trkpt>
      <trkpt lat="49.15648" lon="1.71715">
        <ele>123.19</ele>
        <time>2016-05-15T11:46:31Z</time>
      </trkpt>
      <trkpt lat="49.1563" lon="1.71721">
        <ele>123.67</ele>
        <time>2016-05-15T11:46:46Z</time>
      </trkpt>
      <trkpt lat="49.15609" lon="1.71726">
        <ele>123.67</ele>
        <time>2016-05-15T11:47:05Z</time>
      </trkpt>
      <trkpt lat="49.15589" lon="1.71733">
        <ele>124.15</ele>
        <time>2016-05-15T11:47:22Z</time>
      </trkpt>
      <trkpt lat="49.15569" lon="1.71747">
        <ele>123.67</ele>
        <time>2016-05-15T11:47:41Z</time>
      </trkpt>
      <trkpt lat="49.15554" lon="1.7176">
        <ele>122.71</ele>
        <time>2016-05-15T11:47:57Z</time>
      </trkpt>
      <trkpt lat="49.15536" lon="1.71774">
        <ele>121.74</ele>
        <time>2016-05-15T11:48:15Z</time>
      </trkpt>
      <trkpt lat="49.15532" lon="1.71777">
        <ele>122.22</ele>
        <time>2016-05-15T11:48:33Z</time>
      </trkpt>
      <trkpt lat="49.15525" lon="1.7178">
        <ele>121.74</ele>
        <time>2016-05-15T11:48:42Z</time>
      </trkpt>
      <trkpt lat="49.15521" lon="1.71783">
        <ele>121.74</ele>
        <time>2016-05-15T11:48:46Z</time>
      </trkpt>
      <trkpt lat="49.15514" lon="1.71788">
        <ele>121.74</ele>
        <time>2016-05-15T11:48:54Z</time>
      </trkpt>
      <trkpt lat="49.15508" lon="1.71795">
        <ele>121.26</ele>
        <time>2016-05-15T11:49:01Z</time>
      </trkpt>
      <trkpt lat="49.15496" lon="1.71801">
        <ele>121.26</ele>
        <time>2016-05-15T11:49:15Z</time>
      </trkpt>
      <trkpt lat="49.15497" lon="1.71804">
        <ele>121.26</ele>
        <time>2016-05-15T11:49:34Z</time>
      </trkpt>
      <trkpt lat="49.15494" lon="1.71807">
        <ele>121.26</ele>
        <time>2016-05-15T11:49:45Z</time>
      </trkpt>
      <trkpt lat="49.15483" lon="1.71819">
        <ele>121.26</ele>
        <time>2016-05-15T11:49:58Z</time>
      </trkpt>
      <trkpt lat="49.15474" lon="1.71826">
        <ele>121.26</ele>
        <time>2016-05-15T11:50:09Z</time>
      </trkpt>
      <trkpt lat="49.15464" lon="1.71835">
        <ele>120.78</ele>
        <time>2016-05-15T11:50:22Z</time>
      </trkpt>
      <trkpt lat="49.15452" lon="1.71846">
        <ele>120.78</ele>
        <time>2016-05-15T11:50:35Z</time>
      </trkpt>
      <trkpt lat="49.15438" lon="1.71864">
        <ele>119.82</ele>
        <time>2016-05-15T11:50:50Z</time>
      </trkpt>
      <trkpt lat="49.15428" lon="1.71889">
        <ele>119.82</ele>
        <time>2016-05-15T11:51:06Z</time>
      </trkpt>
      <trkpt lat="49.15417" lon="1.71914">
        <ele>119.82</ele>
        <time>2016-05-15T11:51:23Z</time>
      </trkpt>
      <trkpt lat="49.15407" lon="1.7194">
        <ele>119.34</ele>
        <time>2016-05-15T11:51:39Z</time>
      </trkpt>
      <trkpt lat="49.15397" lon="1.71971">
        <ele>119.34</ele>
        <time>2016-05-15T11:51:58Z</time>
      </trkpt>
      <trkpt lat="49.15391" lon="1.71994">
        <ele>119.82</ele>
        <time>2016-05-15T11:52:12Z</time>
      </trkpt>
      <trkpt lat="49.15387" lon="1.72014">
        <ele>119.82</ele>
        <time>2016-05-15T11:52:25Z</time>
      </trkpt>
      <trkpt lat="49.15381" lon="1.7204">
        <ele>119.34</ele>
        <time>2016-05-15T11:52:42Z</time>
      </trkpt>
      <trkpt lat="49.15377" lon="1.72059">
        <ele>119.34</ele>
        <time>2016-05-15T11:52:56Z</time>
      </trkpt>
      <trkpt lat="49.15373" lon="1.72077">
        <ele>118.86</ele>
        <time>2016-05-15T11:53:13Z</time>
      </trkpt>
      <trkpt lat="49.15372" lon="1.72083">
        <ele>118.86</ele>
        <time>2016-05-15T11:53:17Z</time>
      </trkpt>
      <trkpt lat="49.15367" lon="1.72111">
        <ele>117.9</ele>
        <time>2016-05-15T11:53:33Z</time>
      </trkpt>
      <trkpt lat="49.15365" lon="1.72116">
        <ele>117.9</ele>
        <time>2016-05-15T11:53:37Z</time>
      </trkpt>
      <trkpt lat="49.15364" lon="1.72119">
        <ele>118.38</ele>
        <time>2016-05-15T11:53:39Z</time>
      </trkpt>
      <trkpt lat="49.1536" lon="1.72145">
        <ele>117.9</ele>
        <time>2016-05-15T11:53:55Z</time>
      </trkpt>
      <trkpt lat="49.15359" lon="1.72155">
        <ele>117.42</ele>
        <time>2016-05-15T11:54:01Z</time>
      </trkpt>
      <trkpt lat="49.15353" lon="1.72181">
        <ele>117.9</ele>
        <time>2016-05-15T11:54:17Z</time>
      </trkpt>
      <trkpt lat="49.15352" lon="1.72183">
        <ele>117.9</ele>
        <time>2016-05-15T11:54:19Z</time>
      </trkpt>
      <trkpt lat="49.15347" lon="1.72216">
        <ele>117.42</ele>
        <time>2016-05-15T11:54:36Z</time>
      </trkpt>
      <trkpt lat="49.15345" lon="1.72229">
        <ele>116.94</ele>
        <time>2016-05-15T11:54:44Z</time>
      </trkpt>
      <trkpt lat="49.15338" lon="1.7226">
        <ele>116.46</ele>
        <time>2016-05-15T11:55:03Z</time>
      </trkpt>
      <trkpt lat="49.15335" lon="1.72281">
        <ele>115.98</ele>
        <time>2016-05-15T11:55:14Z</time>
      </trkpt>
      <trkpt lat="49.15327" lon="1.72312">
        <ele>115.01</ele>
        <time>2016-05-15T11:55:33Z</time>
      </trkpt>
      <trkpt lat="49.15325" lon="1.72321">
        <ele>114.53</ele>
        <time>2016-05-15T11:55:47Z</time>
      </trkpt>
      <trkpt lat="49.15321" lon="1.72338">
        <ele>114.53</ele>
        <time>2016-05-15T11:56:02Z</time>
      </trkpt>
      <trkpt lat="49.15314" lon="1.72358">
        <ele>113.57</ele>
        <time>2016-05-15T11:56:17Z</time>
      </trkpt>
      <trkpt lat="49.15311" lon="1.72363">
        <ele>114.05</ele>
        <time>2016-05-15T11:56:21Z</time>
      </trkpt>
      <trkpt lat="49.15304" lon="1.72394">
        <ele>112.13</ele>
        <time>2016-05-15T11:56:39Z</time>
      </trkpt>
      <trkpt lat="49.15302" lon="1.72414">
        <ele>111.65</ele>
        <time>2016-05-15T11:56:49Z</time>
      </trkpt>
      <trkpt lat="49.15297" lon="1.72426">
        <ele>111.17</ele>
        <time>2016-05-15T11:56:57Z</time>
      </trkpt>
      <trkpt lat="49.15294" lon="1.72451">
        <ele>109.73</ele>
        <time>2016-05-15T11:57:11Z</time>
      </trkpt>
      <trkpt lat="49.15294" lon="1.72453">
        <ele>109.73</ele>
        <time>2016-05-15T11:57:12Z</time>
      </trkpt>
      <trkpt lat="49.15295" lon="1.7248">
        <ele>107.81</ele>
        <time>2016-05-15T11:57:28Z</time>
      </trkpt>
      <trkpt lat="49.15293" lon="1.72508">
        <ele>105.88</ele>
        <time>2016-05-15T11:57:44Z</time>
      </trkpt>
      <trkpt lat="49.15291" lon="1.72521">
        <ele>105.88</ele>
        <time>2016-05-15T11:57:56Z</time>
      </trkpt>
      <trkpt lat="49.15291" lon="1.72538">
        <ele>104.44</ele>
        <time>2016-05-15T11:58:05Z</time>
      </trkpt>
      <trkpt lat="49.15286" lon="1.72571">
        <ele>103</ele>
        <time>2016-05-15T11:58:24Z</time>
      </trkpt>
      <trkpt lat="49.15285" lon="1.72585">
        <ele>102.52</ele>
        <time>2016-05-15T11:58:41Z</time>
      </trkpt>
      <trkpt lat="49.15283" lon="1.72598">
        <ele>101.56</ele>
        <time>2016-05-15T11:58:49Z</time>
      </trkpt>
      <trkpt lat="49.15279" lon="1.72629">
        <ele>100.11</ele>
        <time>2016-05-15T11:59:07Z</time>
      </trkpt>
      <trkpt lat="49.15277" lon="1.72659">
        <ele>98.67</ele>
        <time>2016-05-15T11:59:24Z</time>
      </trkpt>
      <trkpt lat="49.15273" lon="1.72688">
        <ele>97.71</ele>
        <time>2016-05-15T11:59:40Z</time>
      </trkpt>
      <trkpt lat="49.15272" lon="1.72704">
        <ele>96.75</ele>
        <time>2016-05-15T11:59:50Z</time>
      </trkpt>
      <trkpt lat="49.15271" lon="1.72733">
        <ele>95.31</ele>
        <time>2016-05-15T12:00:06Z</time>
      </trkpt>
      <trkpt lat="49.1527" lon="1.72736">
        <ele>95.31</ele>
        <time>2016-05-15T12:00:08Z</time>
      </trkpt>
      <trkpt lat="49.1527" lon="1.72757">
        <ele>94.35</ele>
        <time>2016-05-15T12:00:21Z</time>
      </trkpt>
      <trkpt lat="49.1527" lon="1.72767">
        <ele>93.87</ele>
        <time>2016-05-15T12:00:26Z</time>
      </trkpt>
      <trkpt lat="49.15268" lon="1.72782">
        <ele>92.42</ele>
        <time>2016-05-15T12:00:36Z</time>
      </trkpt>
      <trkpt lat="49.15266" lon="1.72793">
        <ele>91.46</ele>
        <time>2016-05-15T12:00:43Z</time>
      </trkpt>
      <trkpt lat="49.15257" lon="1.72818">
        <ele>89.54</ele>
        <time>2016-05-15T12:01:00Z</time>
      </trkpt>
      <trkpt lat="49.15256" lon="1.72819">
        <ele>89.54</ele>
        <time>2016-05-15T12:01:01Z</time>
      </trkpt>
      <trkpt lat="49.15242" lon="1.72812">
        <ele>87.62</ele>
        <time>2016-05-15T12:01:15Z</time>
      </trkpt>
      <trkpt lat="49.15222" lon="1.72799">
        <ele>85.69</ele>
        <time>2016-05-15T12:01:33Z</time>
      </trkpt>
      <trkpt lat="49.15202" lon="1.728">
        <ele>84.25</ele>
        <time>2016-05-15T12:01:49Z</time>
      </trkpt>
      <trkpt lat="49.15186" lon="1.72808">
        <ele>83.29</ele>
        <time>2016-05-15T12:02:05Z</time>
      </trkpt>
      <trkpt lat="49.15166" lon="1.7282">
        <ele>82.81</ele>
        <time>2016-05-15T12:02:22Z</time>
      </trkpt>
      <trkpt lat="49.15161" lon="1.72823">
        <ele>82.33</ele>
        <time>2016-05-15T12:02:27Z</time>
      </trkpt>
      <trkpt lat="49.15147" lon="1.72831">
        <ele>82.33</ele>
        <time>2016-05-15T12:02:41Z</time>
      </trkpt>
      <trkpt lat="49.15145" lon="1.72831">
        <ele>81.85</ele>
        <time>2016-05-15T12:02:43Z</time>
      </trkpt>
      <trkpt lat="49.15135" lon="1.72838">
        <ele>81.85</ele>
        <time>2016-05-15T12:02:52Z</time>
      </trkpt>
      <trkpt lat="49.15132" lon="1.7284">
        <ele>81.85</ele>
        <time>2016-05-15T12:02:55Z</time>
      </trkpt>
      <trkpt lat="49.15108" lon="1.72855">
        <ele>81.37</ele>
        <time>2016-05-15T12:03:16Z</time>
      </trkpt>
      <trkpt lat="49.15105" lon="1.7286">
        <ele>81.37</ele>
        <time>2016-05-15T12:03:20Z</time>
      </trkpt>
      <trkpt lat="49.15102" lon="1.72874">
        <ele>81.37</ele>
        <time>2016-05-15T12:03:33Z</time>
      </trkpt>
      <trkpt lat="49.15101" lon="1.72895">
        <ele>80.89</ele>
        <time>2016-05-15T12:03:43Z</time>
      </trkpt>
      <trkpt lat="49.15098" lon="1.72901">
        <ele>80.89</ele>
        <time>2016-05-15T12:03:58Z</time>
      </trkpt>
      <trkpt lat="49.151" lon="1.72905">
        <ele>80.41</ele>
        <time>2016-05-15T12:04:14Z</time>
      </trkpt>
      <trkpt lat="49.15101" lon="1.72907">
        <ele>80.41</ele>
        <time>2016-05-15T12:04:16Z</time>
      </trkpt>
      <trkpt lat="49.15107" lon="1.72915">
        <ele>80.89</ele>
        <time>2016-05-15T12:04:29Z</time>
      </trkpt>
      <trkpt lat="49.15106" lon="1.72917">
        <ele>81.37</ele>
        <time>2016-05-15T12:04:31Z</time>
      </trkpt>
      <trkpt lat="49.15105" lon="1.72947">
        <ele>81.37</ele>
        <time>2016-05-15T12:04:48Z</time>
      </trkpt>
      <trkpt lat="49.15104" lon="1.72979">
        <ele>81.85</ele>
        <time>2016-05-15T12:05:07Z</time>
      </trkpt>
      <trkpt lat="49.15105" lon="1.73001">
        <ele>82.33</ele>
        <time>2016-05-15T12:05:21Z</time>
      </trkpt>
      <trkpt lat="49.15104" lon="1.73005">
        <ele>82.33</ele>
        <time>2016-05-15T12:05:33Z</time>
      </trkpt>
      <trkpt lat="49.15105" lon="1.73009">
        <ele>82.33</ele>
        <time>2016-05-15T12:05:35Z</time>
      </trkpt>
      <trkpt lat="49.15107" lon="1.73019">
        <ele>82.81</ele>
        <time>2016-05-15T12:05:51Z</time>
      </trkpt>
      <trkpt lat="49.15109" lon="1.73042">
        <ele>83.29</ele>
        <time>2016-05-15T12:06:04Z</time>
      </trkpt>
      <trkpt lat="49.15112" lon="1.73044">
        <ele>83.29</ele>
        <time>2016-05-15T12:06:16Z</time>
      </trkpt>
      <trkpt lat="49.15116" lon="1.73067">
        <ele>83.77</ele>
        <time>2016-05-15T12:06:29Z</time>
      </trkpt>
      <trkpt lat="49.15123" lon="1.73092">
        <ele>85.21</ele>
        <time>2016-05-15T12:06:44Z</time>
      </trkpt>
      <trkpt lat="49.15123" lon="1.73094">
        <ele>85.21</ele>
        <time>2016-05-15T12:06:45Z</time>
      </trkpt>
      <trkpt lat="49.15126" lon="1.73103">
        <ele>85.69</ele>
        <time>2016-05-15T12:06:51Z</time>
      </trkpt>
      <trkpt lat="49.15127" lon="1.73136">
        <ele>85.21</ele>
        <time>2016-05-15T12:07:09Z</time>
      </trkpt>
      <trkpt lat="49.15124" lon="1.73161">
        <ele>84.73</ele>
        <time>2016-05-15T12:07:23Z</time>
      </trkpt>
      <trkpt lat="49.15123" lon="1.73185">
        <ele>84.25</ele>
        <time>2016-05-15T12:07:39Z</time>
      </trkpt>
      <trkpt lat="49.15122" lon="1.73212">
        <ele>84.73</ele>
        <time>2016-05-15T12:07:53Z</time>
      </trkpt>
      <trkpt lat="49.15121" lon="1.73229">
        <ele>84.25</ele>
        <time>2016-05-15T12:08:01Z</time>
      </trkpt>
      <trkpt lat="49.15121" lon="1.73231">
        <ele>84.25</ele>
        <time>2016-05-15T12:08:03Z</time>
      </trkpt>
      <trkpt lat="49.15118" lon="1.73267">
        <ele>83.77</ele>
        <time>2016-05-15T12:08:23Z</time>
      </trkpt>
      <trkpt lat="49.15118" lon="1.73295">
        <ele>84.25</ele>
        <time>2016-05-15T12:08:38Z</time>
      </trkpt>
      <trkpt lat="49.1512" lon="1.73322">
        <ele>84.25</ele>
        <time>2016-05-15T12:08:54Z</time>
      </trkpt>
      <trkpt lat="49.1512" lon="1.73333">
        <ele>84.73</ele>
        <time>2016-05-15T12:09:00Z</time>
      </trkpt>
      <trkpt lat="49.15126" lon="1.73362">
        <ele>84.73</ele>
        <time>2016-05-15T12:09:17Z</time>
      </trkpt>
      <trkpt lat="49.15127" lon="1.73368">
        <ele>84.25</ele>
        <time>2016-05-15T12:09:21Z</time>
      </trkpt>
      <trkpt lat="49.15128" lon="1.73375">
        <ele>84.73</ele>
        <time>2016-05-15T12:09:25Z</time>
      </trkpt>
      <trkpt lat="49.15135" lon="1.73396">
        <ele>84.25</ele>
        <time>2016-05-15T12:09:39Z</time>
      </trkpt>
      <trkpt lat="49.15137" lon="1.73406">
        <ele>84.25</ele>
        <time>2016-05-15T12:09:45Z</time>
      </trkpt>
      <trkpt lat="49.15138" lon="1.73412">
        <ele>84.73</ele>
        <time>2016-05-15T12:09:49Z</time>
      </trkpt>
      <trkpt lat="49.15144" lon="1.73434">
        <ele>84.25</ele>
        <time>2016-05-15T12:10:04Z</time>
      </trkpt>
      <trkpt lat="49.15146" lon="1.73463">
        <ele>82.33</ele>
        <time>2016-05-15T12:10:20Z</time>
      </trkpt>
      <trkpt lat="49.15146" lon="1.73469">
        <ele>82.33</ele>
        <time>2016-05-15T12:10:23Z</time>
      </trkpt>
      <trkpt lat="49.15149" lon="1.7349">
        <ele>81.37</ele>
        <time>2016-05-15T12:10:39Z</time>
      </trkpt>
      <trkpt lat="49.1515" lon="1.73487">
        <ele>80.89</ele>
        <time>2016-05-15T12:10:57Z</time>
      </trkpt>
      <trkpt lat="49.1515" lon="1.73486">
        <ele>81.37</ele>
        <time>2016-05-15T12:11:21Z</time>
      </trkpt>
      <trkpt lat="49.15149" lon="1.73486">
        <ele>80.89</ele>
        <time>2016-05-15T12:11:50Z</time>
      </trkpt>
      <trkpt lat="49.1515" lon="1.73487">
        <ele>81.37</ele>
        <time>2016-05-15T12:12:13Z</time>
      </trkpt>
      <trkpt lat="49.15148" lon="1.73487">
        <ele>81.37</ele>
        <time>2016-05-15T12:12:38Z</time>
      </trkpt>
      <trkpt lat="49.15149" lon="1.73487">
        <ele>80.89</ele>
        <time>2016-05-15T12:13:04Z</time>
      </trkpt>
      <trkpt lat="49.1515" lon="1.73487">
        <ele>80.89</ele>
        <time>2016-05-15T12:13:26Z</time>
      </trkpt>
      <trkpt lat="49.1515" lon="1.73486">
        <ele>80.89</ele>
        <time>2016-05-15T12:13:45Z</time>
      </trkpt>
      <trkpt lat="49.1515" lon="1.73486">
        <ele>80.89</ele>
        <time>2016-05-15T12:14:11Z</time>
      </trkpt>
      <trkpt lat="49.1515" lon="1.73489">
        <ele>80.89</ele>
        <time>2016-05-15T12:14:31Z</time>
      </trkpt>
      <trkpt lat="49.1515" lon="1.735">
        <ele>80.41</ele>
        <time>2016-05-15T12:14:38Z</time>
      </trkpt>
      <trkpt lat="49.15152" lon="1.73513">
        <ele>79.93</ele>
        <time>2016-05-15T12:14:45Z</time>
      </trkpt>
      <trkpt lat="49.15154" lon="1.73527">
        <ele>78.97</ele>
        <time>2016-05-15T12:14:53Z</time>
      </trkpt>
      <trkpt lat="49.1516" lon="1.73563">
        <ele>78</ele>
        <time>2016-05-15T12:15:13Z</time>
      </trkpt>
      <trkpt lat="49.15165" lon="1.73588">
        <ele>77.04</ele>
        <time>2016-05-15T12:15:27Z</time>
      </trkpt>
      <trkpt lat="49.15172" lon="1.73617">
        <ele>76.08</ele>
        <time>2016-05-15T12:15:44Z</time>
      </trkpt>
      <trkpt lat="49.15178" lon="1.7365">
        <ele>74.16</ele>
        <time>2016-05-15T12:16:03Z</time>
      </trkpt>
      <trkpt lat="49.15185" lon="1.73683">
        <ele>71.76</ele>
        <time>2016-05-15T12:16:22Z</time>
      </trkpt>
      <trkpt lat="49.15192" lon="1.73717">
        <ele>69.35</ele>
        <time>2016-05-15T12:16:41Z</time>
      </trkpt>
      <trkpt lat="49.15194" lon="1.73736">
        <ele>68.39</ele>
        <time>2016-05-15T12:16:52Z</time>
      </trkpt>
      <trkpt lat="49.15197" lon="1.73764">
        <ele>67.91</ele>
        <time>2016-05-15T12:17:08Z</time>
      </trkpt>
      <trkpt lat="49.15201" lon="1.73793">
        <ele>68.39</ele>
        <time>2016-05-15T12:17:25Z</time>
      </trkpt>
      <trkpt lat="49.15202" lon="1.73809">
        <ele>70.31</ele>
        <time>2016-05-15T12:17:39Z</time>
      </trkpt>
      <trkpt lat="49.15194" lon="1.73815">
        <ele>71.27</ele>
        <time>2016-05-15T12:17:49Z</time>
      </trkpt>
      <trkpt lat="49.15181" lon="1.73821">
        <ele>73.2</ele>
        <time>2016-05-15T12:18:04Z</time>
      </trkpt>
      <trkpt lat="49.15175" lon="1.73827">
        <ele>73.68</ele>
        <time>2016-05-15T12:18:22Z</time>
      </trkpt>
      <trkpt lat="49.15168" lon="1.73821">
        <ele>73.68</ele>
        <time>2016-05-15T12:18:35Z</time>
      </trkpt>
      <trkpt lat="49.1515" lon="1.73828">
        <ele>75.12</ele>
        <time>2016-05-15T12:18:51Z</time>
      </trkpt>
      <trkpt lat="49.15141" lon="1.73829">
        <ele>74.16</ele>
        <time>2016-05-15T12:19:08Z</time>
      </trkpt>
      <trkpt lat="49.15133" lon="1.73826">
        <ele>75.12</ele>
        <time>2016-05-15T12:19:26Z</time>
      </trkpt>
      <trkpt lat="49.15119" lon="1.73826">
        <ele>73.68</ele>
        <time>2016-05-15T12:19:44Z</time>
      </trkpt>
      <trkpt lat="49.1511" lon="1.73824">
        <ele>72.72</ele>
        <time>2016-05-15T12:19:50Z</time>
      </trkpt>
      <trkpt lat="49.15096" lon="1.73817">
        <ele>72.24</ele>
        <time>2016-05-15T12:20:03Z</time>
      </trkpt>
      <trkpt lat="49.15085" lon="1.73814">
        <ele>70.79</ele>
        <time>2016-05-15T12:20:11Z</time>
      </trkpt>
      <trkpt lat="49.1507" lon="1.73812">
        <ele>69.83</ele>
        <time>2016-05-15T12:20:26Z</time>
      </trkpt>
      <trkpt lat="49.15065" lon="1.73811">
        <ele>69.83</ele>
        <time>2016-05-15T12:20:31Z</time>
      </trkpt>
      <trkpt lat="49.15047" lon="1.73808">
        <ele>68.39</ele>
        <time>2016-05-15T12:20:48Z</time>
      </trkpt>
      <trkpt lat="49.15025" lon="1.73804">
        <ele>67.91</ele>
        <time>2016-05-15T12:21:04Z</time>
      </trkpt>
      <trkpt lat="49.1501" lon="1.73799">
        <ele>66.95</ele>
        <time>2016-05-15T12:21:21Z</time>
      </trkpt>
      <trkpt lat="49.14991" lon="1.73794">
        <ele>65.99</ele>
        <time>2016-05-15T12:21:37Z</time>
      </trkpt>
      <trkpt lat="49.14975" lon="1.73791">
        <ele>65.51</ele>
        <time>2016-05-15T12:21:51Z</time>
      </trkpt>
      <trkpt lat="49.14961" lon="1.73791">
        <ele>65.51</ele>
        <time>2016-05-15T12:22:07Z</time>
      </trkpt>
      <trkpt lat="49.14941" lon="1.73791">
        <ele>65.51</ele>
        <time>2016-05-15T12:22:23Z</time>
      </trkpt>
      <trkpt lat="49.14918" lon="1.73789">
        <ele>65.51</ele>
        <time>2016-05-15T12:22:40Z</time>
      </trkpt>
      <trkpt lat="49.14896" lon="1.73791">
        <ele>65.99</ele>
        <time>2016-05-15T12:22:58Z</time>
      </trkpt>
      <trkpt lat="49.14875" lon="1.73799">
        <ele>66.47</ele>
        <time>2016-05-15T12:23:18Z</time>
      </trkpt>
      <trkpt lat="49.14865" lon="1.7381">
        <ele>66.47</ele>
        <time>2016-05-15T12:23:33Z</time>
      </trkpt>
      <trkpt lat="49.14854" lon="1.73835">
        <ele>66.95</ele>
        <time>2016-05-15T12:23:49Z</time>
      </trkpt>
      <trkpt lat="49.14842" lon="1.73855">
        <ele>65.99</ele>
        <time>2016-05-15T12:24:07Z</time>
      </trkpt>
      <trkpt lat="49.1483" lon="1.73874">
        <ele>65.03</ele>
        <time>2016-05-15T12:24:24Z</time>
      </trkpt>
      <trkpt lat="49.14823" lon="1.73892">
        <ele>65.03</ele>
        <time>2016-05-15T12:24:37Z</time>
      </trkpt>
      <trkpt lat="49.14819" lon="1.73919">
        <ele>64.55</ele>
        <time>2016-05-15T12:24:54Z</time>
      </trkpt>
      <trkpt lat="49.14815" lon="1.73936">
        <ele>64.07</ele>
        <time>2016-05-15T12:25:06Z</time>
      </trkpt>
      <trkpt lat="49.14807" lon="1.7397">
        <ele>64.07</ele>
        <time>2016-05-15T12:25:25Z</time>
      </trkpt>
      <trkpt lat="49.14801" lon="1.73995">
        <ele>63.58</ele>
        <time>2016-05-15T12:25:41Z</time>
      </trkpt>
      <trkpt lat="49.14795" lon="1.74025">
        <ele>63.1</ele>
        <time>2016-05-15T12:25:58Z</time>
      </trkpt>
      <trkpt lat="49.1479" lon="1.74048">
        <ele>63.1</ele>
        <time>2016-05-15T12:26:12Z</time>
      </trkpt>
      <trkpt lat="49.14786" lon="1.74065">
        <ele>63.58</ele>
        <time>2016-05-15T12:26:23Z</time>
      </trkpt>
      <trkpt lat="49.14782" lon="1.74082">
        <ele>62.62</ele>
        <time>2016-05-15T12:26:32Z</time>
      </trkpt>
      <trkpt lat="49.14781" lon="1.74087">
        <ele>62.62</ele>
        <time>2016-05-15T12:26:35Z</time>
      </trkpt>
      <trkpt lat="49.14777" lon="1.74099">
        <ele>62.14</ele>
        <time>2016-05-15T12:26:43Z</time>
      </trkpt>
      <trkpt lat="49.14767" lon="1.74132">
        <ele>61.66</ele>
        <time>2016-05-15T12:27:01Z</time>
      </trkpt>
      <trkpt lat="49.14763" lon="1.74154">
        <ele>60.7</ele>
        <time>2016-05-15T12:27:15Z</time>
      </trkpt>
      <trkpt lat="49.1476" lon="1.74178">
        <ele>60.7</ele>
        <time>2016-05-15T12:27:30Z</time>
      </trkpt>
      <trkpt lat="49.14754" lon="1.74197">
        <ele>61.18</ele>
        <time>2016-05-15T12:27:45Z</time>
      </trkpt>
      <trkpt lat="49.14748" lon="1.74225">
        <ele>62.62</ele>
        <time>2016-05-15T12:28:03Z</time>
      </trkpt>
      <trkpt lat="49.14742" lon="1.74253">
        <ele>64.55</ele>
        <time>2016-05-15T12:28:22Z</time>
      </trkpt>
      <trkpt lat="49.14735" lon="1.74283">
        <ele>65.99</ele>
        <time>2016-05-15T12:28:38Z</time>
      </trkpt>
      <trkpt lat="49.14726" lon="1.74316">
        <ele>66.47</ele>
        <time>2016-05-15T12:28:56Z</time>
      </trkpt>
      <trkpt lat="49.1472" lon="1.74343">
        <ele>65.51</ele>
        <time>2016-05-15T12:29:14Z</time>
      </trkpt>
      <trkpt lat="49.14717" lon="1.74353">
        <ele>65.51</ele>
        <time>2016-05-15T12:29:20Z</time>
      </trkpt>
      <trkpt lat="49.14713" lon="1.74374">
        <ele>64.55</ele>
        <time>2016-05-15T12:29:32Z</time>
      </trkpt>
      <trkpt lat="49.14713" lon="1.74382">
        <ele>64.55</ele>
        <time>2016-05-15T12:29:48Z</time>
      </trkpt>
      <trkpt lat="49.14712" lon="1.74385">
        <ele>64.55</ele>
        <time>2016-05-15T12:30:19Z</time>
      </trkpt>
      <trkpt lat="49.14708" lon="1.74384">
        <ele>64.55</ele>
        <time>2016-05-15T12:30:52Z</time>
      </trkpt>
      <trkpt lat="49.14707" lon="1.7439">
        <ele>64.07</ele>
        <time>2016-05-15T12:31:15Z</time>
      </trkpt>
      <trkpt lat="49.14706" lon="1.74412">
        <ele>62.62</ele>
        <time>2016-05-15T12:31:31Z</time>
      </trkpt>
      <trkpt lat="49.14702" lon="1.74445">
        <ele>61.66</ele>
        <time>2016-05-15T12:31:54Z</time>
      </trkpt>
      <trkpt lat="49.14699" lon="1.74468">
        <ele>61.18</ele>
        <time>2016-05-15T12:32:08Z</time>
      </trkpt>
      <trkpt lat="49.14698" lon="1.74474">
        <ele>61.18</ele>
        <time>2016-05-15T12:32:11Z</time>
      </trkpt>
      <trkpt lat="49.14694" lon="1.74503">
        <ele>60.22</ele>
        <time>2016-05-15T12:32:26Z</time>
      </trkpt>
      <trkpt lat="49.14687" lon="1.74524">
        <ele>59.74</ele>
        <time>2016-05-15T12:32:44Z</time>
      </trkpt>
      <trkpt lat="49.14681" lon="1.74562">
        <ele>59.26</ele>
        <time>2016-05-15T12:33:03Z</time>
      </trkpt>
      <trkpt lat="49.14678" lon="1.74589">
        <ele>58.78</ele>
        <time>2016-05-15T12:33:20Z</time>
      </trkpt>
      <trkpt lat="49.14672" lon="1.7462">
        <ele>57.82</ele>
        <time>2016-05-15T12:33:39Z</time>
      </trkpt>
      <trkpt lat="49.14668" lon="1.74649">
        <ele>56.86</ele>
        <time>2016-05-15T12:33:58Z</time>
      </trkpt>
      <trkpt lat="49.14662" lon="1.74673">
        <ele>56.37</ele>
        <time>2016-05-15T12:34:14Z</time>
      </trkpt>
      <trkpt lat="49.14657" lon="1.74709">
        <ele>56.37</ele>
        <time>2016-05-15T12:34:30Z</time>
      </trkpt>
      <trkpt lat="49.14652" lon="1.7473">
        <ele>55.89</ele>
        <time>2016-05-15T12:34:45Z</time>
      </trkpt>
      <trkpt lat="49.14642" lon="1.7476">
        <ele>55.41</ele>
        <time>2016-05-15T12:35:03Z</time>
      </trkpt>
      <trkpt lat="49.14632" lon="1.74791">
        <ele>55.41</ele>
        <time>2016-05-15T12:35:22Z</time>
      </trkpt>
      <trkpt lat="49.14624" lon="1.74813">
        <ele>54.93</ele>
        <time>2016-05-15T12:35:39Z</time>
      </trkpt>
      <trkpt lat="49.14614" lon="1.74844">
        <ele>53.97</ele>
        <time>2016-05-15T12:35:59Z</time>
      </trkpt>
      <trkpt lat="49.14604" lon="1.7487">
        <ele>53.01</ele>
        <time>2016-05-15T12:36:17Z</time>
      </trkpt>
      <trkpt lat="49.14596" lon="1.749">
        <ele>52.53</ele>
        <time>2016-05-15T12:36:36Z</time>
      </trkpt>
      <trkpt lat="49.14591" lon="1.74919">
        <ele>52.53</ele>
        <time>2016-05-15T12:36:52Z</time>
      </trkpt>
      <trkpt lat="49.14586" lon="1.74944">
        <ele>52.05</ele>
        <time>2016-05-15T12:37:06Z</time>
      </trkpt>
      <trkpt lat="49.14584" lon="1.74955">
        <ele>52.53</ele>
        <time>2016-05-15T12:37:12Z</time>
      </trkpt>
      <trkpt lat="49.1458" lon="1.74979">
        <ele>52.53</ele>
        <time>2016-05-15T12:37:28Z</time>
      </trkpt>
      <trkpt lat="49.14576" lon="1.75">
        <ele>52.53</ele>
        <time>2016-05-15T12:37:42Z</time>
      </trkpt>
      <trkpt lat="49.14576" lon="1.74999">
        <ele>52.53</ele>
        <time>2016-05-15T12:37:47Z</time>
      </trkpt>
      <trkpt lat="49.1457" lon="1.75017">
        <ele>52.53</ele>
        <time>2016-05-15T12:38:01Z</time>
      </trkpt>
      <trkpt lat="49.14568" lon="1.75032">
        <ele>52.53</ele>
        <time>2016-05-15T12:38:17Z</time>
      </trkpt>
      <trkpt lat="49.14564" lon="1.75053">
        <ele>52.53</ele>
        <time>2016-05-15T12:38:34Z</time>
      </trkpt>
      <trkpt lat="49.14561" lon="1.75073">
        <ele>53.01</ele>
        <time>2016-05-15T12:38:50Z</time>
      </trkpt>
      <trkpt lat="49.14556" lon="1.75096">
        <ele>53.01</ele>
        <time>2016-05-15T12:39:03Z</time>
      </trkpt>
      <trkpt lat="49.14551" lon="1.75123">
        <ele>53.01</ele>
        <time>2016-05-15T12:39:20Z</time>
      </trkpt>
      <trkpt lat="49.14545" lon="1.7515">
        <ele>53.01</ele>
        <time>2016-05-15T12:39:36Z</time>
      </trkpt>
      <trkpt lat="49.14539" lon="1.75179">
        <ele>53.01</ele>
        <time>2016-05-15T12:39:53Z</time>
      </trkpt>
      <trkpt lat="49.14532" lon="1.75208">
        <ele>53.01</ele>
        <time>2016-05-15T12:40:12Z</time>
      </trkpt>
      <trkpt lat="49.1453" lon="1.75242">
        <ele>52.53</ele>
        <time>2016-05-15T12:40:30Z</time>
      </trkpt>
      <trkpt lat="49.14526" lon="1.75266">
        <ele>52.05</ele>
        <time>2016-05-15T12:40:47Z</time>
      </trkpt>
      <trkpt lat="49.14533" lon="1.75298">
        <ele>53.01</ele>
        <time>2016-05-15T12:41:04Z</time>
      </trkpt>
      <trkpt lat="49.1454" lon="1.75331">
        <ele>53.01</ele>
        <time>2016-05-15T12:41:24Z</time>
      </trkpt>
      <trkpt lat="49.14547" lon="1.75364">
        <ele>53.97</ele>
        <time>2016-05-15T12:41:43Z</time>
      </trkpt>
      <trkpt lat="49.14555" lon="1.75392">
        <ele>53.97</ele>
        <time>2016-05-15T12:42:02Z</time>
      </trkpt>
      <trkpt lat="49.14557" lon="1.754">
        <ele>54.45</ele>
        <time>2016-05-15T12:42:07Z</time>
      </trkpt>
      <trkpt lat="49.14565" lon="1.75428">
        <ele>54.45</ele>
        <time>2016-05-15T12:42:24Z</time>
      </trkpt>
      <trkpt lat="49.14573" lon="1.75453">
        <ele>54.93</ele>
        <time>2016-05-15T12:42:41Z</time>
      </trkpt>
      <trkpt lat="49.14582" lon="1.75483">
        <ele>54.93</ele>
        <time>2016-05-15T12:42:59Z</time>
      </trkpt>
      <trkpt lat="49.1459" lon="1.75509">
        <ele>55.41</ele>
        <time>2016-05-15T12:43:14Z</time>
      </trkpt>
      <trkpt lat="49.14595" lon="1.75532">
        <ele>55.41</ele>
        <time>2016-05-15T12:43:28Z</time>
      </trkpt>
      <trkpt lat="49.146" lon="1.75555">
        <ele>54.93</ele>
        <time>2016-05-15T12:43:43Z</time>
      </trkpt>
      <trkpt lat="49.14601" lon="1.75576">
        <ele>54.93</ele>
        <time>2016-05-15T12:44:00Z</time>
      </trkpt>
      <trkpt lat="49.146" lon="1.75582">
        <ele>54.45</ele>
        <time>2016-05-15T12:44:06Z</time>
      </trkpt>
      <trkpt lat="49.146" lon="1.75592">
        <ele>53.97</ele>
        <time>2016-05-15T12:44:21Z</time>
      </trkpt>
      <trkpt lat="49.14607" lon="1.75603">
        <ele>54.45</ele>
        <time>2016-05-15T12:44:35Z</time>
      </trkpt>
      <trkpt lat="49.14614" lon="1.75619">
        <ele>54.93</ele>
        <time>2016-05-15T12:44:49Z</time>
      </trkpt>
      <trkpt lat="49.14622" lon="1.75642">
        <ele>55.89</ele>
        <time>2016-05-15T12:45:05Z</time>
      </trkpt>
      <trkpt lat="49.14628" lon="1.7566">
        <ele>56.86</ele>
        <time>2016-05-15T12:45:17Z</time>
      </trkpt>
      <trkpt lat="49.14629" lon="1.75662">
        <ele>56.86</ele>
        <time>2016-05-15T12:45:18Z</time>
      </trkpt>
      <trkpt lat="49.14635" lon="1.75687">
        <ele>58.3</ele>
        <time>2016-05-15T12:45:35Z</time>
      </trkpt>
      <trkpt lat="49.14643" lon="1.75699">
        <ele>59.26</ele>
        <time>2016-05-15T12:45:46Z</time>
      </trkpt>
      <trkpt lat="49.14658" lon="1.75709">
        <ele>60.7</ele>
        <time>2016-05-15T12:46:02Z</time>
      </trkpt>
      <trkpt lat="49.14659" lon="1.7571">
        <ele>60.7</ele>
        <time>2016-05-15T12:46:03Z</time>
      </trkpt>
      <trkpt lat="49.14675" lon="1.75716">
        <ele>62.14</ele>
        <time>2016-05-15T12:46:19Z</time>
      </trkpt>
      <trkpt lat="49.14688" lon="1.75721">
        <ele>63.1</ele>
        <time>2016-05-15T12:46:31Z</time>
      </trkpt>
      <trkpt lat="49.14704" lon="1.75729">
        <ele>64.07</ele>
        <time>2016-05-15T12:46:46Z</time>
      </trkpt>
      <trkpt lat="49.14707" lon="1.75729">
        <ele>64.55</ele>
        <time>2016-05-15T12:46:49Z</time>
      </trkpt>
      <trkpt lat="49.14724" lon="1.75734">
        <ele>65.99</ele>
        <time>2016-05-15T12:47:06Z</time>
      </trkpt>
      <trkpt lat="49.14739" lon="1.75738">
        <ele>66.95</ele>
        <time>2016-05-15T12:47:20Z</time>
      </trkpt>
      <trkpt lat="49.14752" lon="1.75741">
        <ele>68.39</ele>
        <time>2016-05-15T12:47:35Z</time>
      </trkpt>
      <trkpt lat="49.14767" lon="1.75744">
        <ele>69.83</ele>
        <time>2016-05-15T12:47:50Z</time>
      </trkpt>
      <trkpt lat="49.1478" lon="1.75742">
        <ele>71.27</ele>
        <time>2016-05-15T12:48:04Z</time>
      </trkpt>
      <trkpt lat="49.14792" lon="1.75743">
        <ele>72.72</ele>
        <time>2016-05-15T12:48:16Z</time>
      </trkpt>
      <trkpt lat="49.14806" lon="1.75742">
        <ele>73.68</ele>
        <time>2016-05-15T12:48:32Z</time>
      </trkpt>
      <trkpt lat="49.14819" lon="1.7574">
        <ele>75.6</ele>
        <time>2016-05-15T12:48:47Z</time>
      </trkpt>
      <trkpt lat="49.14831" lon="1.75736">
        <ele>77.04</ele>
        <time>2016-05-15T12:49:01Z</time>
      </trkpt>
      <trkpt lat="49.14844" lon="1.75727">
        <ele>78.48</ele>
        <time>2016-05-15T12:49:16Z</time>
      </trkpt>
      <trkpt lat="49.14854" lon="1.75716">
        <ele>80.41</ele>
        <time>2016-05-15T12:49:31Z</time>
      </trkpt>
      <trkpt lat="49.14865" lon="1.75707">
        <ele>82.33</ele>
        <time>2016-05-15T12:49:46Z</time>
      </trkpt>
      <trkpt lat="49.14875" lon="1.757">
        <ele>83.29</ele>
        <time>2016-05-15T12:49:57Z</time>
      </trkpt>
      <trkpt lat="49.14886" lon="1.75692">
        <ele>85.21</ele>
        <time>2016-05-15T12:50:12Z</time>
      </trkpt>
      <trkpt lat="49.14898" lon="1.75684">
        <ele>86.66</ele>
        <time>2016-05-15T12:50:26Z</time>
      </trkpt>
      <trkpt lat="49.14905" lon="1.75675">
        <ele>88.1</ele>
        <time>2016-05-15T12:50:38Z</time>
      </trkpt>
      <trkpt lat="49.14913" lon="1.75667">
        <ele>89.54</ele>
        <time>2016-05-15T12:50:50Z</time>
      </trkpt>
      <trkpt lat="49.14922" lon="1.75658">
        <ele>90.98</ele>
        <time>2016-05-15T12:51:03Z</time>
      </trkpt>
      <trkpt lat="49.14926" lon="1.75655">
        <ele>91.46</ele>
        <time>2016-05-15T12:51:08Z</time>
      </trkpt>
      <trkpt lat="49.14936" lon="1.75647">
        <ele>92.9</ele>
        <time>2016-05-15T12:51:21Z</time>
      </trkpt>
      <trkpt lat="49.14937" lon="1.75647">
        <ele>92.9</ele>
        <time>2016-05-15T12:51:22Z</time>
      </trkpt>
      <trkpt lat="49.14944" lon="1.75639">
        <ele>94.35</ele>
        <time>2016-05-15T12:51:34Z</time>
      </trkpt>
      <trkpt lat="49.14953" lon="1.75632">
        <ele>95.79</ele>
        <time>2016-05-15T12:51:46Z</time>
      </trkpt>
      <trkpt lat="49.14956" lon="1.75629">
        <ele>96.27</ele>
        <time>2016-05-15T12:51:51Z</time>
      </trkpt>
      <trkpt lat="49.14958" lon="1.75629">
        <ele>96.75</ele>
        <time>2016-05-15T12:51:53Z</time>
      </trkpt>
      <trkpt lat="49.14969" lon="1.75625">
        <ele>98.19</ele>
        <time>2016-05-15T12:52:06Z</time>
      </trkpt>
      <trkpt lat="49.14971" lon="1.75625">
        <ele>98.19</ele>
        <time>2016-05-15T12:52:09Z</time>
      </trkpt>
      <trkpt lat="49.14982" lon="1.75623">
        <ele>99.63</ele>
        <time>2016-05-15T12:52:21Z</time>
      </trkpt>
      <trkpt lat="49.14987" lon="1.7562">
        <ele>100.6</ele>
        <time>2016-05-15T12:52:28Z</time>
      </trkpt>
      <trkpt lat="49.14997" lon="1.75617">
        <ele>101.56</ele>
        <time>2016-05-15T12:52:39Z</time>
      </trkpt>
      <trkpt lat="49.15006" lon="1.75617">
        <ele>103</ele>
        <time>2016-05-15T12:52:51Z</time>
      </trkpt>
      <trkpt lat="49.15012" lon="1.75615">
        <ele>103.48</ele>
        <time>2016-05-15T12:52:59Z</time>
      </trkpt>
      <trkpt lat="49.15016" lon="1.75615">
        <ele>103.96</ele>
        <time>2016-05-15T12:53:03Z</time>
      </trkpt>
      <trkpt lat="49.15018" lon="1.75616">
        <ele>103.96</ele>
        <time>2016-05-15T12:53:06Z</time>
      </trkpt>
      <trkpt lat="49.1502" lon="1.75615">
        <ele>104.44</ele>
        <time>2016-05-15T12:53:08Z</time>
      </trkpt>
      <trkpt lat="49.15023" lon="1.75615">
        <ele>104.44</ele>
        <time>2016-05-15T12:53:10Z</time>
      </trkpt>
      <trkpt lat="49.15026" lon="1.75615">
        <ele>104.44</ele>
        <time>2016-05-15T12:53:13Z</time>
      </trkpt>
      <trkpt lat="49.15038" lon="1.75615">
        <ele>105.4</ele>
        <time>2016-05-15T12:53:25Z</time>
      </trkpt>
      <trkpt lat="49.1504" lon="1.75615">
        <ele>104.92</ele>
        <time>2016-05-15T12:53:27Z</time>
      </trkpt>
      <trkpt lat="49.15054" lon="1.75616">
        <ele>105.88</ele>
        <time>2016-05-15T12:53:42Z</time>
      </trkpt>
      <trkpt lat="49.15056" lon="1.75616">
        <ele>105.88</ele>
        <time>2016-05-15T12:53:44Z</time>
      </trkpt>
      <trkpt lat="49.15072" lon="1.75616">
        <ele>106.36</ele>
        <time>2016-05-15T12:53:58Z</time>
      </trkpt>
      <trkpt lat="49.15086" lon="1.75616">
        <ele>106.84</ele>
        <time>2016-05-15T12:54:12Z</time>
      </trkpt>
      <trkpt lat="49.15087" lon="1.75616">
        <ele>106.84</ele>
        <time>2016-05-15T12:54:13Z</time>
      </trkpt>
      <trkpt lat="49.15104" lon="1.75614">
        <ele>106.84</ele>
        <time>2016-05-15T12:54:29Z</time>
      </trkpt>
      <trkpt lat="49.15118" lon="1.75609">
        <ele>107.81</ele>
        <time>2016-05-15T12:54:43Z</time>
      </trkpt>
      <trkpt lat="49.1513" lon="1.75606">
        <ele>107.81</ele>
        <time>2016-05-15T12:54:56Z</time>
      </trkpt>
      <trkpt lat="49.15144" lon="1.75605">
        <ele>108.29</ele>
        <time>2016-05-15T12:55:09Z</time>
      </trkpt>
      <trkpt lat="49.15153" lon="1.75604">
        <ele>108.77</ele>
        <time>2016-05-15T12:55:19Z</time>
      </trkpt>
      <trkpt lat="49.15162" lon="1.75601">
        <ele>108.77</ele>
        <time>2016-05-15T12:55:27Z</time>
      </trkpt>
      <trkpt lat="49.1517" lon="1.75599">
        <ele>109.25</ele>
        <time>2016-05-15T12:55:35Z</time>
      </trkpt>
      <trkpt lat="49.15184" lon="1.75597">
        <ele>109.73</ele>
        <time>2016-05-15T12:55:48Z</time>
      </trkpt>
      <trkpt lat="49.15186" lon="1.75597">
        <ele>109.73</ele>
        <time>2016-05-15T12:55:50Z</time>
      </trkpt>
      <trkpt lat="49.15189" lon="1.75596">
        <ele>109.73</ele>
        <time>2016-05-15T12:55:53Z</time>
      </trkpt>
      <trkpt lat="49.15195" lon="1.75596">
        <ele>109.73</ele>
        <time>2016-05-15T12:55:59Z</time>
      </trkpt>
      <trkpt lat="49.15211" lon="1.75595">
        <ele>110.21</ele>
        <time>2016-05-15T12:56:14Z</time>
      </trkpt>
      <trkpt lat="49.15221" lon="1.75591">
        <ele>110.21</ele>
        <time>2016-05-15T12:56:24Z</time>
      </trkpt>
      <trkpt lat="49.15239" lon="1.75588">
        <ele>110.21</ele>
        <time>2016-05-15T12:56:40Z</time>
      </trkpt>
      <trkpt lat="49.15246" lon="1.75587">
        <ele>110.69</ele>
        <time>2016-05-15T12:56:47Z</time>
      </trkpt>
      <trkpt lat="49.15249" lon="1.75585">
        <ele>110.69</ele>
        <time>2016-05-15T12:56:50Z</time>
      </trkpt>
      <trkpt lat="49.15263" lon="1.75585">
        <ele>110.69</ele>
        <time>2016-05-15T12:57:04Z</time>
      </trkpt>
      <trkpt lat="49.15272" lon="1.75585">
        <ele>110.69</ele>
        <time>2016-05-15T12:57:13Z</time>
      </trkpt>
      <trkpt lat="49.15278" lon="1.75595">
        <ele>110.69</ele>
        <time>2016-05-15T12:57:27Z</time>
      </trkpt>
      <trkpt lat="49.15278" lon="1.75594">
        <ele>110.69</ele>
        <time>2016-05-15T12:57:47Z</time>
      </trkpt>
      <trkpt lat="49.15278" lon="1.75595">
        <ele>110.69</ele>
        <time>2016-05-15T12:58:10Z</time>
      </trkpt>
      <trkpt lat="49.15277" lon="1.75594">
        <ele>110.69</ele>
        <time>2016-05-15T12:58:24Z</time>
      </trkpt>
      <trkpt lat="49.15278" lon="1.75595">
        <ele>111.17</ele>
        <time>2016-05-15T12:58:52Z</time>
      </trkpt>
      <trkpt lat="49.15278" lon="1.75595">
        <ele>110.69</ele>
        <time>2016-05-15T12:59:22Z</time>
      </trkpt>
      <trkpt lat="49.15278" lon="1.75595">
        <ele>111.17</ele>
        <time>2016-05-15T12:59:42Z</time>
      </trkpt>
      <trkpt lat="49.15282" lon="1.75599">
        <ele>111.17</ele>
        <time>2016-05-15T13:00:00Z</time>
      </trkpt>
      <trkpt lat="49.15285" lon="1.75607">
        <ele>111.17</ele>
        <time>2016-05-15T13:00:07Z</time>
      </trkpt>
      <trkpt lat="49.15287" lon="1.75614">
        <ele>110.69</ele>
        <time>2016-05-15T13:00:11Z</time>
      </trkpt>
      <trkpt lat="49.15291" lon="1.75624">
        <ele>110.69</ele>
        <time>2016-05-15T13:00:18Z</time>
      </trkpt>
      <trkpt lat="49.15297" lon="1.75633">
        <ele>110.69</ele>
        <time>2016-05-15T13:00:25Z</time>
      </trkpt>
      <trkpt lat="49.153" lon="1.75642">
        <ele>110.69</ele>
        <time>2016-05-15T13:00:31Z</time>
      </trkpt>
      <trkpt lat="49.15304" lon="1.75648">
        <ele>110.21</ele>
        <time>2016-05-15T13:00:36Z</time>
      </trkpt>
      <trkpt lat="49.15315" lon="1.75671">
        <ele>109.73</ele>
        <time>2016-05-15T13:00:52Z</time>
      </trkpt>
      <trkpt lat="49.15332" lon="1.75689">
        <ele>109.73</ele>
        <time>2016-05-15T13:01:09Z</time>
      </trkpt>
      <trkpt lat="49.15349" lon="1.75698">
        <ele>108.77</ele>
        <time>2016-05-15T13:01:25Z</time>
      </trkpt>
      <trkpt lat="49.15363" lon="1.75699">
        <ele>108.77</ele>
        <time>2016-05-15T13:01:38Z</time>
      </trkpt>
      <trkpt lat="49.15375" lon="1.757">
        <ele>109.25</ele>
        <time>2016-05-15T13:01:48Z</time>
      </trkpt>
      <trkpt lat="49.15377" lon="1.757">
        <ele>108.77</ele>
        <time>2016-05-15T13:01:50Z</time>
      </trkpt>
      <trkpt lat="49.15391" lon="1.75706">
        <ele>109.25</ele>
        <time>2016-05-15T13:02:02Z</time>
      </trkpt>
      <trkpt lat="49.15402" lon="1.75714">
        <ele>109.25</ele>
        <time>2016-05-15T13:02:12Z</time>
      </trkpt>
      <trkpt lat="49.1541" lon="1.75724">
        <ele>109.25</ele>
        <time>2016-05-15T13:02:22Z</time>
      </trkpt>
      <trkpt lat="49.1542" lon="1.75732">
        <ele>109.25</ele>
        <time>2016-05-15T13:02:34Z</time>
      </trkpt>
      <trkpt lat="49.15425" lon="1.75734">
        <ele>109.25</ele>
        <time>2016-05-15T13:02:38Z</time>
      </trkpt>
      <trkpt lat="49.1544" lon="1.75743">
        <ele>108.77</ele>
        <time>2016-05-15T13:02:52Z</time>
      </trkpt>
      <trkpt lat="49.15455" lon="1.75748">
        <ele>109.25</ele>
        <time>2016-05-15T13:03:06Z</time>
      </trkpt>
      <trkpt lat="49.15469" lon="1.75759">
        <ele>109.25</ele>
        <time>2016-05-15T13:03:19Z</time>
      </trkpt>
      <trkpt lat="49.15482" lon="1.75776">
        <ele>109.25</ele>
        <time>2016-05-15T13:03:34Z</time>
      </trkpt>
      <trkpt lat="49.15493" lon="1.75795">
        <ele>109.25</ele>
        <time>2016-05-15T13:03:49Z</time>
      </trkpt>
      <trkpt lat="49.15497" lon="1.75802">
        <ele>109.25</ele>
        <time>2016-05-15T13:03:54Z</time>
      </trkpt>
      <trkpt lat="49.15508" lon="1.75826">
        <ele>108.77</ele>
        <time>2016-05-15T13:04:10Z</time>
      </trkpt>
      <trkpt lat="49.15517" lon="1.75842">
        <ele>108.77</ele>
        <time>2016-05-15T13:04:21Z</time>
      </trkpt>
      <trkpt lat="49.1553" lon="1.75864">
        <ele>108.29</ele>
        <time>2016-05-15T13:04:38Z</time>
      </trkpt>
      <trkpt lat="49.15536" lon="1.75873">
        <ele>108.29</ele>
        <time>2016-05-15T13:04:46Z</time>
      </trkpt>
      <trkpt lat="49.15547" lon="1.75884">
        <ele>108.29</ele>
        <time>2016-05-15T13:04:57Z</time>
      </trkpt>
      <trkpt lat="49.15556" lon="1.75895">
        <ele>108.29</ele>
        <time>2016-05-15T13:05:06Z</time>
      </trkpt>
      <trkpt lat="49.15572" lon="1.75915">
        <ele>107.81</ele>
        <time>2016-05-15T13:05:23Z</time>
      </trkpt>
      <trkpt lat="49.15585" lon="1.75935">
        <ele>107.32</ele>
        <time>2016-05-15T13:05:39Z</time>
      </trkpt>
      <trkpt lat="49.15592" lon="1.75947">
        <ele>106.84</ele>
        <time>2016-05-15T13:05:48Z</time>
      </trkpt>
      <trkpt lat="49.15602" lon="1.75962">
        <ele>106.84</ele>
        <time>2016-05-15T13:06:00Z</time>
      </trkpt>
      <trkpt lat="49.15605" lon="1.75968">
        <ele>106.84</ele>
        <time>2016-05-15T13:06:04Z</time>
      </trkpt>
      <trkpt lat="49.15613" lon="1.75985">
        <ele>105.88</ele>
        <time>2016-05-15T13:06:16Z</time>
      </trkpt>
      <trkpt lat="49.15624" lon="1.76011">
        <ele>105.4</ele>
        <time>2016-05-15T13:06:34Z</time>
      </trkpt>
      <trkpt lat="49.15637" lon="1.76028">
        <ele>104.92</ele>
        <time>2016-05-15T13:06:50Z</time>
      </trkpt>
      <trkpt lat="49.15647" lon="1.76047">
        <ele>104.44</ele>
        <time>2016-05-15T13:07:04Z</time>
      </trkpt>
      <trkpt lat="49.1566" lon="1.76071">
        <ele>103.48</ele>
        <time>2016-05-15T13:07:20Z</time>
      </trkpt>
      <trkpt lat="49.15681" lon="1.7609">
        <ele>102.52</ele>
        <time>2016-05-15T13:07:40Z</time>
      </trkpt>
      <trkpt lat="49.15695" lon="1.76103">
        <ele>101.56</ele>
        <time>2016-05-15T13:07:55Z</time>
      </trkpt>
      <trkpt lat="49.15697" lon="1.76105">
        <ele>100.6</ele>
        <time>2016-05-15T13:08:06Z</time>
      </trkpt>
      <trkpt lat="49.15698" lon="1.76107">
        <ele>101.08</ele>
        <time>2016-05-15T13:08:21Z</time>
      </trkpt>
      <trkpt lat="49.15696" lon="1.76106">
        <ele>101.08</ele>
        <time>2016-05-15T13:08:37Z</time>
      </trkpt>
      <trkpt lat="49.15696" lon="1.76108">
        <ele>101.08</ele>
        <time>2016-05-15T13:08:53Z</time>
      </trkpt>
      <trkpt lat="49.15697" lon="1.76107">
        <ele>101.08</ele>
        <time>2016-05-15T13:09:12Z</time>
      </trkpt>
      <trkpt lat="49.15698" lon="1.76107">
        <ele>101.08</ele>
        <time>2016-05-15T13:09:32Z</time>
      </trkpt>
      <trkpt lat="49.15695" lon="1.76109">
        <ele>101.08</ele>
        <time>2016-05-15T13:09:51Z</time>
      </trkpt>
      <trkpt lat="49.15697" lon="1.76102">
        <ele>101.08</ele>
        <time>2016-05-15T13:10:07Z</time>
      </trkpt>
      <trkpt lat="49.15698" lon="1.76104">
        <ele>101.08</ele>
        <time>2016-05-15T13:10:26Z</time>
      </trkpt>
      <trkpt lat="49.15698" lon="1.76104">
        <ele>101.08</ele>
        <time>2016-05-15T13:10:47Z</time>
      </trkpt>
      <trkpt lat="49.15697" lon="1.76105">
        <ele>101.08</ele>
        <time>2016-05-15T13:11:01Z</time>
      </trkpt>
      <trkpt lat="49.15697" lon="1.76104">
        <ele>101.08</ele>
        <time>2016-05-15T13:11:20Z</time>
      </trkpt>
      <trkpt lat="49.15699" lon="1.76105">
        <ele>101.08</ele>
        <time>2016-05-15T13:11:39Z</time>
      </trkpt>
      <trkpt lat="49.15699" lon="1.76104">
        <ele>101.08</ele>
        <time>2016-05-15T13:11:53Z</time>
      </trkpt>
      <trkpt lat="49.15699" lon="1.76099">
        <ele>100.6</ele>
        <time>2016-05-15T13:12:00Z</time>
      </trkpt>
      <trkpt lat="49.15707" lon="1.76083">
        <ele>101.08</ele>
        <time>2016-05-15T13:12:12Z</time>
      </trkpt>
      <trkpt lat="49.15717" lon="1.76071">
        <ele>102.04</ele>
        <time>2016-05-15T13:12:26Z</time>
      </trkpt>
      <trkpt lat="49.15724" lon="1.76063">
        <ele>102.04</ele>
        <time>2016-05-15T13:12:34Z</time>
      </trkpt>
      <trkpt lat="49.15729" lon="1.76054">
        <ele>102.04</ele>
        <time>2016-05-15T13:12:40Z</time>
      </trkpt>
      <trkpt lat="49.15737" lon="1.76033">
        <ele>103</ele>
        <time>2016-05-15T13:12:54Z</time>
      </trkpt>
      <trkpt lat="49.15748" lon="1.76005">
        <ele>103.48</ele>
        <time>2016-05-15T13:13:11Z</time>
      </trkpt>
      <trkpt lat="49.15759" lon="1.75981">
        <ele>103.96</ele>
        <time>2016-05-15T13:13:30Z</time>
      </trkpt>
      <trkpt lat="49.15764" lon="1.75961">
        <ele>104.44</ele>
        <time>2016-05-15T13:13:44Z</time>
      </trkpt>
      <trkpt lat="49.15769" lon="1.75949">
        <ele>105.4</ele>
        <time>2016-05-15T13:13:57Z</time>
      </trkpt>
      <trkpt lat="49.15771" lon="1.7594">
        <ele>106.36</ele>
        <time>2016-05-15T13:14:05Z</time>
      </trkpt>
      <trkpt lat="49.15775" lon="1.75926">
        <ele>107.32</ele>
        <time>2016-05-15T13:14:16Z</time>
      </trkpt>
      <trkpt lat="49.15789" lon="1.7591">
        <ele>108.77</ele>
        <time>2016-05-15T13:14:31Z</time>
      </trkpt>
      <trkpt lat="49.15795" lon="1.75891">
        <ele>110.69</ele>
        <time>2016-05-15T13:14:45Z</time>
      </trkpt>
      <trkpt lat="49.15802" lon="1.75878">
        <ele>112.61</ele>
        <time>2016-05-15T13:15:00Z</time>
      </trkpt>
      <trkpt lat="49.15812" lon="1.75863">
        <ele>114.53</ele>
        <time>2016-05-15T13:15:18Z</time>
      </trkpt>
      <trkpt lat="49.1582" lon="1.75842">
        <ele>116.94</ele>
        <time>2016-05-15T13:15:35Z</time>
      </trkpt>
      <trkpt lat="49.1583" lon="1.75821">
        <ele>119.34</ele>
        <time>2016-05-15T13:15:53Z</time>
      </trkpt>
      <trkpt lat="49.15838" lon="1.75801">
        <ele>121.26</ele>
        <time>2016-05-15T13:16:14Z</time>
      </trkpt>
      <trkpt lat="49.15846" lon="1.75782">
        <ele>123.19</ele>
        <time>2016-05-15T13:16:41Z</time>
      </trkpt>
      <trkpt lat="49.1585" lon="1.75763">
        <ele>125.59</ele>
        <time>2016-05-15T13:16:55Z</time>
      </trkpt>
      <trkpt lat="49.1585" lon="1.75739">
        <ele>127.51</ele>
        <time>2016-05-15T13:17:12Z</time>
      </trkpt>
      <trkpt lat="49.1585" lon="1.7572">
        <ele>127.99</ele>
        <time>2016-05-15T13:17:28Z</time>
      </trkpt>
      <trkpt lat="49.15848" lon="1.75708">
        <ele>128.95</ele>
        <time>2016-05-15T13:17:41Z</time>
      </trkpt>
      <trkpt lat="49.15848" lon="1.75697">
        <ele>128.95</ele>
        <time>2016-05-15T13:17:57Z</time>
      </trkpt>
      <trkpt lat="49.15846" lon="1.75669">
        <ele>130.4</ele>
        <time>2016-05-15T13:18:15Z</time>
      </trkpt>
      <trkpt lat="49.15847" lon="1.75652">
        <ele>131.36</ele>
        <time>2016-05-15T13:18:27Z</time>
      </trkpt>
      <trkpt lat="49.15848" lon="1.75627">
        <ele>131.84</ele>
        <time>2016-05-15T13:18:43Z</time>
      </trkpt>
      <trkpt lat="49.15848" lon="1.75626">
        <ele>131.84</ele>
        <time>2016-05-15T13:18:44Z</time>
      </trkpt>
      <trkpt lat="49.15847" lon="1.75622">
        <ele>132.32</ele>
        <time>2016-05-15T13:18:46Z</time>
      </trkpt>
      <trkpt lat="49.15851" lon="1.75597">
        <ele>132.8</ele>
        <time>2016-05-15T13:19:02Z</time>
      </trkpt>
      <trkpt lat="49.15853" lon="1.75578">
        <ele>133.28</ele>
        <time>2016-05-15T13:19:15Z</time>
      </trkpt>
      <trkpt lat="49.15853" lon="1.75574">
        <ele>133.76</ele>
        <time>2016-05-15T13:19:18Z</time>
      </trkpt>
      <trkpt lat="49.15857" lon="1.75545">
        <ele>134.24</ele>
        <time>2016-05-15T13:19:34Z</time>
      </trkpt>
      <trkpt lat="49.15861" lon="1.75518">
        <ele>135.2</ele>
        <time>2016-05-15T13:19:51Z</time>
      </trkpt>
      <trkpt lat="49.15865" lon="1.75494">
        <ele>135.2</ele>
        <time>2016-05-15T13:20:07Z</time>
      </trkpt>
      <trkpt lat="49.15867" lon="1.75478">
        <ele>135.68</ele>
        <time>2016-05-15T13:20:16Z</time>
      </trkpt>
      <trkpt lat="49.1587" lon="1.75451">
        <ele>136.64</ele>
        <time>2016-05-15T13:20:33Z</time>
      </trkpt>
      <trkpt lat="49.15873" lon="1.75425">
        <ele>136.64</ele>
        <time>2016-05-15T13:20:47Z</time>
      </trkpt>
      <trkpt lat="49.15873" lon="1.75406">
        <ele>137.13</ele>
        <time>2016-05-15T13:20:58Z</time>
      </trkpt>
      <trkpt lat="49.15875" lon="1.75374">
        <ele>137.13</ele>
        <time>2016-05-15T13:21:14Z</time>
      </trkpt>
      <trkpt lat="49.15876" lon="1.75361">
        <ele>137.13</ele>
        <time>2016-05-15T13:21:22Z</time>
      </trkpt>
      <trkpt lat="49.1588" lon="1.75333">
        <ele>137.61</ele>
        <time>2016-05-15T13:21:37Z</time>
      </trkpt>
      <trkpt lat="49.15885" lon="1.75308">
        <ele>137.61</ele>
        <time>2016-05-15T13:21:51Z</time>
      </trkpt>
      <trkpt lat="49.15885" lon="1.75309">
        <ele>137.61</ele>
        <time>2016-05-15T13:22:07Z</time>
      </trkpt>
      <trkpt lat="49.15885" lon="1.75306">
        <ele>137.61</ele>
        <time>2016-05-15T13:22:22Z</time>
      </trkpt>
      <trkpt lat="49.15887" lon="1.75301">
        <ele>137.61</ele>
        <time>2016-05-15T13:22:41Z</time>
      </trkpt>
      <trkpt lat="49.15887" lon="1.753">
        <ele>137.61</ele>
        <time>2016-05-15T13:22:58Z</time>
      </trkpt>
      <trkpt lat="49.15887" lon="1.75301">
        <ele>137.61</ele>
        <time>2016-05-15T13:23:25Z</time>
      </trkpt>
      <trkpt lat="49.15886" lon="1.753">
        <ele>137.61</ele>
        <time>2016-05-15T13:23:46Z</time>
      </trkpt>
      <trkpt lat="49.15884" lon="1.75301">
        <ele>137.61</ele>
        <time>2016-05-15T13:24:16Z</time>
      </trkpt>
      <trkpt lat="49.15887" lon="1.75299">
        <ele>137.61</ele>
        <time>2016-05-15T13:24:36Z</time>
      </trkpt>
      <trkpt lat="49.15888" lon="1.75296">
        <ele>138.09</ele>
        <time>2016-05-15T13:24:53Z</time>
      </trkpt>
      <trkpt lat="49.15888" lon="1.75296">
        <ele>137.61</ele>
        <time>2016-05-15T13:25:07Z</time>
      </trkpt>
      <trkpt lat="49.15887" lon="1.75292">
        <ele>138.09</ele>
        <time>2016-05-15T13:25:22Z</time>
      </trkpt>
      <trkpt lat="49.15889" lon="1.7529">
        <ele>138.09</ele>
        <time>2016-05-15T13:25:26Z</time>
      </trkpt>
      <trkpt lat="49.15889" lon="1.75286">
        <ele>137.61</ele>
        <time>2016-05-15T13:25:29Z</time>
      </trkpt>
      <trkpt lat="49.15893" lon="1.75266">
        <ele>137.61</ele>
        <time>2016-05-15T13:25:44Z</time>
      </trkpt>
      <trkpt lat="49.15899" lon="1.75247">
        <ele>137.61</ele>
        <time>2016-05-15T13:25:58Z</time>
      </trkpt>
      <trkpt lat="49.15908" lon="1.75222">
        <ele>137.13</ele>
        <time>2016-05-15T13:26:13Z</time>
      </trkpt>
      <trkpt lat="49.15914" lon="1.75201">
        <ele>136.64</ele>
        <time>2016-05-15T13:26:28Z</time>
      </trkpt>
      <trkpt lat="49.15922" lon="1.75176">
        <ele>136.64</ele>
        <time>2016-05-15T13:26:43Z</time>
      </trkpt>
      <trkpt lat="49.15926" lon="1.75171">
        <ele>136.16</ele>
        <time>2016-05-15T13:26:58Z</time>
      </trkpt>
      <trkpt lat="49.15933" lon="1.75144">
        <ele>135.68</ele>
        <time>2016-05-15T13:27:15Z</time>
      </trkpt>
      <trkpt lat="49.1595" lon="1.75138">
        <ele>135.68</ele>
        <time>2016-05-15T13:27:32Z</time>
      </trkpt>
      <trkpt lat="49.15963" lon="1.75132">
        <ele>136.16</ele>
        <time>2016-05-15T13:27:50Z</time>
      </trkpt>
      <trkpt lat="49.15978" lon="1.75128">
        <ele>136.16</ele>
        <time>2016-05-15T13:28:05Z</time>
      </trkpt>
      <trkpt lat="49.15998" lon="1.75125">
        <ele>136.64</ele>
        <time>2016-05-15T13:28:20Z</time>
      </trkpt>
      <trkpt lat="49.16018" lon="1.75121">
        <ele>137.13</ele>
        <time>2016-05-15T13:28:36Z</time>
      </trkpt>
      <trkpt lat="49.1604" lon="1.75116">
        <ele>137.13</ele>
        <time>2016-05-15T13:28:53Z</time>
      </trkpt>
      <trkpt lat="49.16058" lon="1.7511">
        <ele>137.61</ele>
        <time>2016-05-15T13:29:10Z</time>
      </trkpt>
      <trkpt lat="49.16081" lon="1.75102">
        <ele>138.09</ele>
        <time>2016-05-15T13:29:30Z</time>
      </trkpt>
      <trkpt lat="49.16098" lon="1.75099">
        <ele>138.57</ele>
        <time>2016-05-15T13:29:46Z</time>
      </trkpt>
      <trkpt lat="49.16123" lon="1.75088">
        <ele>139.05</ele>
        <time>2016-05-15T13:30:03Z</time>
      </trkpt>
      <trkpt lat="49.16134" lon="1.75074">
        <ele>139.05</ele>
        <time>2016-05-15T13:30:18Z</time>
      </trkpt>
      <trkpt lat="49.16149" lon="1.75052">
        <ele>139.05</ele>
        <time>2016-05-15T13:30:36Z</time>
      </trkpt>
      <trkpt lat="49.16162" lon="1.7503">
        <ele>139.53</ele>
        <time>2016-05-15T13:30:52Z</time>
      </trkpt>
      <trkpt lat="49.16174" lon="1.75011">
        <ele>139.53</ele>
        <time>2016-05-15T13:31:07Z</time>
      </trkpt>
      <trkpt lat="49.16177" lon="1.75004">
        <ele>139.53</ele>
        <time>2016-05-15T13:31:10Z</time>
      </trkpt>
      <trkpt lat="49.16187" lon="1.74989">
        <ele>140.01</ele>
        <time>2016-05-15T13:31:25Z</time>
      </trkpt>
      <trkpt lat="49.16199" lon="1.74967">
        <ele>140.49</ele>
        <time>2016-05-15T13:31:40Z</time>
      </trkpt>
      <trkpt lat="49.16213" lon="1.74948">
        <ele>140.49</ele>
        <time>2016-05-15T13:31:56Z</time>
      </trkpt>
      <trkpt lat="49.16225" lon="1.74927">
        <ele>140.97</ele>
        <time>2016-05-15T13:32:12Z</time>
      </trkpt>
      <trkpt lat="49.1624" lon="1.74904">
        <ele>141.93</ele>
        <time>2016-05-15T13:32:29Z</time>
      </trkpt>
      <trkpt lat="49.1625" lon="1.74888">
        <ele>141.45</ele>
        <time>2016-05-15T13:32:42Z</time>
      </trkpt>
      <trkpt lat="49.16262" lon="1.74876">
        <ele>141.45</ele>
        <time>2016-05-15T13:32:56Z</time>
      </trkpt>
      <trkpt lat="49.16276" lon="1.74871">
        <ele>141.45</ele>
        <time>2016-05-15T13:33:13Z</time>
      </trkpt>
      <trkpt lat="49.16289" lon="1.74865">
        <ele>141.45</ele>
        <time>2016-05-15T13:33:30Z</time>
      </trkpt>
      <trkpt lat="49.16307" lon="1.74858">
        <ele>140.97</ele>
        <time>2016-05-15T13:33:43Z</time>
      </trkpt>
      <trkpt lat="49.16323" lon="1.7485">
        <ele>140.97</ele>
        <time>2016-05-15T13:33:57Z</time>
      </trkpt>
      <trkpt lat="49.16326" lon="1.74846">
        <ele>140.97</ele>
        <time>2016-05-15T13:34:08Z</time>
      </trkpt>
      <trkpt lat="49.16326" lon="1.74846">
        <ele>140.97</ele>
        <time>2016-05-15T13:34:22Z</time>
      </trkpt>
      <trkpt lat="49.16325" lon="1.74845">
        <ele>140.97</ele>
        <time>2016-05-15T13:34:42Z</time>
      </trkpt>
      <trkpt lat="49.16329" lon="1.74848">
        <ele>140.97</ele>
        <time>2016-05-15T13:35:01Z</time>
      </trkpt>
      <trkpt lat="49.16336" lon="1.74851">
        <ele>140.49</ele>
        <time>2016-05-15T13:35:13Z</time>
      </trkpt>
      <trkpt lat="49.16353" lon="1.7485">
        <ele>140.01</ele>
        <time>2016-05-15T13:35:26Z</time>
      </trkpt>
      <trkpt lat="49.1636" lon="1.74852">
        <ele>140.49</ele>
        <time>2016-05-15T13:35:33Z</time>
      </trkpt>
      <trkpt lat="49.16378" lon="1.74869">
        <ele>140.01</ele>
        <time>2016-05-15T13:35:52Z</time>
      </trkpt>
      <trkpt lat="49.16379" lon="1.74872">
        <ele>140.97</ele>
        <time>2016-05-15T13:36:08Z</time>
      </trkpt>
      <trkpt lat="49.16382" lon="1.74874">
        <ele>140.97</ele>
        <time>2016-05-15T13:36:23Z</time>
      </trkpt>
      <trkpt lat="49.1639" lon="1.74886">
        <ele>141.45</ele>
        <time>2016-05-15T13:36:39Z</time>
      </trkpt>
      <trkpt lat="49.16396" lon="1.74894">
        <ele>141.45</ele>
        <time>2016-05-15T13:36:54Z</time>
      </trkpt>
      <trkpt lat="49.16407" lon="1.74908">
        <ele>141.93</ele>
        <time>2016-05-15T13:37:12Z</time>
      </trkpt>
      <trkpt lat="49.16425" lon="1.74915">
        <ele>141.93</ele>
        <time>2016-05-15T13:37:28Z</time>
      </trkpt>
      <trkpt lat="49.1643" lon="1.74915">
        <ele>141.45</ele>
        <time>2016-05-15T13:37:33Z</time>
      </trkpt>
      <trkpt lat="49.16434" lon="1.74913">
        <ele>141.45</ele>
        <time>2016-05-15T13:37:36Z</time>
      </trkpt>
      <trkpt lat="49.16451" lon="1.74897">
        <ele>141.93</ele>
        <time>2016-05-15T13:37:53Z</time>
      </trkpt>
      <trkpt lat="49.16455" lon="1.74892">
        <ele>141.93</ele>
        <time>2016-05-15T13:37:58Z</time>
      </trkpt>
      <trkpt lat="49.16462" lon="1.74879">
        <ele>140.97</ele>
        <time>2016-05-15T13:38:08Z</time>
      </trkpt>
      <trkpt lat="49.16475" lon="1.74854">
        <ele>140.49</ele>
        <time>2016-05-15T13:38:26Z</time>
      </trkpt>
      <trkpt lat="49.16485" lon="1.74836">
        <ele>140.01</ele>
        <time>2016-05-15T13:38:41Z</time>
      </trkpt>
      <trkpt lat="49.16485" lon="1.74829">
        <ele>140.01</ele>
        <time>2016-05-15T13:38:51Z</time>
      </trkpt>
      <trkpt lat="49.16489" lon="1.74826">
        <ele>139.53</ele>
        <time>2016-05-15T13:38:56Z</time>
      </trkpt>
      <trkpt lat="49.16495" lon="1.74817">
        <ele>139.53</ele>
        <time>2016-05-15T13:39:02Z</time>
      </trkpt>
      <trkpt lat="49.16505" lon="1.74804">
        <ele>139.05</ele>
        <time>2016-05-15T13:39:14Z</time>
      </trkpt>
      <trkpt lat="49.16517" lon="1.74784">
        <ele>138.57</ele>
        <time>2016-05-15T13:39:29Z</time>
      </trkpt>
      <trkpt lat="49.16521" lon="1.74782">
        <ele>139.05</ele>
        <time>2016-05-15T13:39:44Z</time>
      </trkpt>
      <trkpt lat="49.16523" lon="1.74782">
        <ele>137.61</ele>
        <time>2016-05-15T13:39:47Z</time>
      </trkpt>
      <trkpt lat="49.16531" lon="1.74767">
        <ele>137.61</ele>
        <time>2016-05-15T13:40:05Z</time>
      </trkpt>
      <trkpt lat="49.16527" lon="1.74771">
        <ele>137.61</ele>
        <time>2016-05-15T13:40:21Z</time>
      </trkpt>
      <trkpt lat="49.16541" lon="1.74756">
        <ele>137.13</ele>
        <time>2016-05-15T13:40:38Z</time>
      </trkpt>
      <trkpt lat="49.16546" lon="1.74748">
        <ele>136.64</ele>
        <time>2016-05-15T13:40:55Z</time>
      </trkpt>
      <trkpt lat="49.16553" lon="1.74741">
        <ele>136.64</ele>
        <time>2016-05-15T13:41:17Z</time>
      </trkpt>
      <trkpt lat="49.16565" lon="1.74733">
        <ele>136.16</ele>
        <time>2016-05-15T13:41:31Z</time>
      </trkpt>
      <trkpt lat="49.1658" lon="1.7472">
        <ele>136.16</ele>
        <time>2016-05-15T13:41:46Z</time>
      </trkpt>
      <trkpt lat="49.16585" lon="1.74713">
        <ele>136.16</ele>
        <time>2016-05-15T13:41:52Z</time>
      </trkpt>
      <trkpt lat="49.16593" lon="1.74694">
        <ele>136.16</ele>
        <time>2016-05-15T13:42:08Z</time>
      </trkpt>
      <trkpt lat="49.16598" lon="1.74683">
        <ele>137.13</ele>
        <time>2016-05-15T13:42:21Z</time>
      </trkpt>
      <trkpt lat="49.16605" lon="1.74662">
        <ele>137.13</ele>
        <time>2016-05-15T13:42:37Z</time>
      </trkpt>
      <trkpt lat="49.1661" lon="1.74644">
        <ele>137.13</ele>
        <time>2016-05-15T13:42:55Z</time>
      </trkpt>
      <trkpt lat="49.16619" lon="1.74624">
        <ele>137.61</ele>
        <time>2016-05-15T13:43:10Z</time>
      </trkpt>
      <trkpt lat="49.16629" lon="1.74603">
        <ele>138.57</ele>
        <time>2016-05-15T13:43:29Z</time>
      </trkpt>
      <trkpt lat="49.16642" lon="1.74579">
        <ele>138.57</ele>
        <time>2016-05-15T13:43:51Z</time>
      </trkpt>
      <trkpt lat="49.16649" lon="1.74563">
        <ele>139.05</ele>
        <time>2016-05-15T13:44:06Z</time>
      </trkpt>
      <trkpt lat="49.16657" lon="1.74545">
        <ele>139.53</ele>
        <time>2016-05-15T13:44:23Z</time>
      </trkpt>
      <trkpt lat="49.16665" lon="1.74528">
        <ele>140.01</ele>
        <time>2016-05-15T13:44:38Z</time>
      </trkpt>
      <trkpt lat="49.16671" lon="1.74513">
        <ele>140.49</ele>
        <time>2016-05-15T13:44:49Z</time>
      </trkpt>
      <trkpt lat="49.16682" lon="1.74494">
        <ele>140.97</ele>
        <time>2016-05-15T13:45:04Z</time>
      </trkpt>
      <trkpt lat="49.16691" lon="1.74475">
        <ele>140.97</ele>
        <time>2016-05-15T13:45:18Z</time>
      </trkpt>
      <trkpt lat="49.16699" lon="1.74456">
        <ele>140.97</ele>
        <time>2016-05-15T13:45:32Z</time>
      </trkpt>
      <trkpt lat="49.16704" lon="1.74446">
        <ele>141.45</ele>
        <time>2016-05-15T13:45:41Z</time>
      </trkpt>
      <trkpt lat="49.16713" lon="1.74424">
        <ele>141.45</ele>
        <time>2016-05-15T13:45:57Z</time>
      </trkpt>
      <trkpt lat="49.16719" lon="1.74408">
        <ele>141.45</ele>
        <time>2016-05-15T13:46:08Z</time>
      </trkpt>
      <trkpt lat="49.16727" lon="1.74389">
        <ele>141.45</ele>
        <time>2016-05-15T13:46:22Z</time>
      </trkpt>
      <trkpt lat="49.16733" lon="1.7437">
        <ele>141.45</ele>
        <time>2016-05-15T13:46:35Z</time>
      </trkpt>
      <trkpt lat="49.16734" lon="1.74367">
        <ele>140.97</ele>
        <time>2016-05-15T13:46:37Z</time>
      </trkpt>
      <trkpt lat="49.16741" lon="1.74338">
        <ele>140.97</ele>
        <time>2016-05-15T13:46:55Z</time>
      </trkpt>
      <trkpt lat="49.16742" lon="1.74328">
        <ele>140.49</ele>
        <time>2016-05-15T13:47:03Z</time>
      </trkpt>
      <trkpt lat="49.16742" lon="1.74323">
        <ele>140.97</ele>
        <time>2016-05-15T13:47:06Z</time>
      </trkpt>
      <trkpt lat="49.16746" lon="1.74301">
        <ele>140.01</ele>
        <time>2016-05-15T13:47:20Z</time>
      </trkpt>
      <trkpt lat="49.16746" lon="1.74297">
        <ele>140.01</ele>
        <time>2016-05-15T13:47:22Z</time>
      </trkpt>
      <trkpt lat="49.16749" lon="1.74289">
        <ele>140.01</ele>
        <time>2016-05-15T13:47:28Z</time>
      </trkpt>
      <trkpt lat="49.16749" lon="1.74281">
        <ele>140.01</ele>
        <time>2016-05-15T13:47:33Z</time>
      </trkpt>
      <trkpt lat="49.16751" lon="1.74268">
        <ele>140.01</ele>
        <time>2016-05-15T13:47:40Z</time>
      </trkpt>
      <trkpt lat="49.16752" lon="1.74253">
        <ele>138.57</ele>
        <time>2016-05-15T13:47:50Z</time>
      </trkpt>
      <trkpt lat="49.16756" lon="1.74234">
        <ele>137.61</ele>
        <time>2016-05-15T13:48:04Z</time>
      </trkpt>
      <trkpt lat="49.16761" lon="1.74215">
        <ele>137.61</ele>
        <time>2016-05-15T13:48:20Z</time>
      </trkpt>
      <trkpt lat="49.16762" lon="1.74207">
        <ele>137.61</ele>
        <time>2016-05-15T13:48:34Z</time>
      </trkpt>
      <trkpt lat="49.16764" lon="1.74192">
        <ele>137.13</ele>
        <time>2016-05-15T13:48:47Z</time>
      </trkpt>
      <trkpt lat="49.16762" lon="1.74177">
        <ele>136.64</ele>
        <time>2016-05-15T13:48:58Z</time>
      </trkpt>
      <trkpt lat="49.16762" lon="1.7416">
        <ele>136.64</ele>
        <time>2016-05-15T13:49:10Z</time>
      </trkpt>
      <trkpt lat="49.16763" lon="1.74148">
        <ele>136.64</ele>
        <time>2016-05-15T13:49:18Z</time>
      </trkpt>
      <trkpt lat="49.16764" lon="1.74122">
        <ele>136.64</ele>
        <time>2016-05-15T13:49:34Z</time>
      </trkpt>
      <trkpt lat="49.16765" lon="1.74091">
        <ele>136.16</ele>
        <time>2016-05-15T13:49:52Z</time>
      </trkpt>
      <trkpt lat="49.16769" lon="1.74062">
        <ele>136.64</ele>
        <time>2016-05-15T13:50:08Z</time>
      </trkpt>
      <trkpt lat="49.1677" lon="1.74046">
        <ele>136.16</ele>
        <time>2016-05-15T13:50:16Z</time>
      </trkpt>
      <trkpt lat="49.16766" lon="1.7403">
        <ele>136.64</ele>
        <time>2016-05-15T13:50:32Z</time>
      </trkpt>
      <trkpt lat="49.16762" lon="1.74016">
        <ele>137.13</ele>
        <time>2016-05-15T13:50:46Z</time>
      </trkpt>
      <trkpt lat="49.16759" lon="1.73996">
        <ele>137.13</ele>
        <time>2016-05-15T13:51:02Z</time>
      </trkpt>
      <trkpt lat="49.16755" lon="1.73978">
        <ele>136.64</ele>
        <time>2016-05-15T13:51:16Z</time>
      </trkpt>
      <trkpt lat="49.16751" lon="1.73957">
        <ele>136.64</ele>
        <time>2016-05-15T13:51:30Z</time>
      </trkpt>
      <trkpt lat="49.16748" lon="1.73931">
        <ele>135.68</ele>
        <time>2016-05-15T13:51:46Z</time>
      </trkpt>
      <trkpt lat="49.16744" lon="1.73912">
        <ele>135.68</ele>
        <time>2016-05-15T13:52:01Z</time>
      </trkpt>
      <trkpt lat="49.16744" lon="1.73898">
        <ele>135.2</ele>
        <time>2016-05-15T13:52:16Z</time>
      </trkpt>
      <trkpt lat="49.16741" lon="1.73883">
        <ele>136.16</ele>
        <time>2016-05-15T13:52:32Z</time>
      </trkpt>
      <trkpt lat="49.16734" lon="1.73863">
        <ele>136.64</ele>
        <time>2016-05-15T13:52:49Z</time>
      </trkpt>
      <trkpt lat="49.16723" lon="1.73843">
        <ele>137.13</ele>
        <time>2016-05-15T13:53:06Z</time>
      </trkpt>
      <trkpt lat="49.16718" lon="1.73822">
        <ele>137.61</ele>
        <time>2016-05-15T13:53:22Z</time>
      </trkpt>
      <trkpt lat="49.1672" lon="1.73814">
        <ele>138.57</ele>
        <time>2016-05-15T13:53:34Z</time>
      </trkpt>
      <trkpt lat="49.16726" lon="1.73803">
        <ele>140.01</ele>
        <time>2016-05-15T13:53:48Z</time>
      </trkpt>
      <trkpt lat="49.16731" lon="1.73788">
        <ele>141.93</ele>
        <time>2016-05-15T13:54:03Z</time>
      </trkpt>
      <trkpt lat="49.16734" lon="1.73777">
        <ele>142.89</ele>
        <time>2016-05-15T13:54:11Z</time>
      </trkpt>
      <trkpt lat="49.16729" lon="1.73769">
        <ele>143.85</ele>
        <time>2016-05-15T13:54:23Z</time>
      </trkpt>
      <trkpt lat="49.16737" lon="1.73764">
        <ele>144.34</ele>
        <time>2016-05-15T13:54:46Z</time>
      </trkpt>
      <trkpt lat="49.16737" lon="1.73751">
        <ele>145.3</ele>
        <time>2016-05-15T13:55:00Z</time>
      </trkpt>
      <trkpt lat="49.16739" lon="1.73734">
        <ele>145.78</ele>
        <time>2016-05-15T13:55:11Z</time>
      </trkpt>
      <trkpt lat="49.16741" lon="1.7372">
        <ele>146.74</ele>
        <time>2016-05-15T13:55:23Z</time>
      </trkpt>
      <trkpt lat="49.16746" lon="1.73707">
        <ele>147.22</ele>
        <time>2016-05-15T13:55:35Z</time>
      </trkpt>
      <trkpt lat="49.16752" lon="1.73693">
        <ele>149.14</ele>
        <time>2016-05-15T13:55:52Z</time>
      </trkpt>
      <trkpt lat="49.16751" lon="1.73696">
        <ele>149.14</ele>
        <time>2016-05-15T13:56:18Z</time>
      </trkpt>
      <trkpt lat="49.16762" lon="1.73696">
        <ele>149.14</ele>
        <time>2016-05-15T13:56:48Z</time>
      </trkpt>
      <trkpt lat="49.16754" lon="1.73707">
        <ele>149.14</ele>
        <time>2016-05-15T13:57:15Z</time>
      </trkpt>
      <trkpt lat="49.16756" lon="1.73699">
        <ele>148.66</ele>
        <time>2016-05-15T13:57:39Z</time>
      </trkpt>
      <trkpt lat="49.16751" lon="1.73694">
        <ele>148.66</ele>
        <time>2016-05-15T13:57:58Z</time>
      </trkpt>
      <trkpt lat="49.16758" lon="1.73684">
        <ele>148.66</ele>
        <time>2016-05-15T13:58:20Z</time>
      </trkpt>
      <trkpt lat="49.16768" lon="1.73679">
        <ele>149.14</ele>
        <time>2016-05-15T13:58:34Z</time>
      </trkpt>
      <trkpt lat="49.16777" lon="1.73677">
        <ele>150.1</ele>
        <time>2016-05-15T13:58:49Z</time>
      </trkpt>
      <trkpt lat="49.16794" lon="1.73661">
        <ele>151.06</ele>
        <time>2016-05-15T13:59:05Z</time>
      </trkpt>
      <trkpt lat="49.16807" lon="1.73652">
        <ele>151.06</ele>
        <time>2016-05-15T13:59:19Z</time>
      </trkpt>
      <trkpt lat="49.1682" lon="1.73642">
        <ele>152.03</ele>
        <time>2016-05-15T13:59:32Z</time>
      </trkpt>
      <trkpt lat="49.16837" lon="1.73633">
        <ele>152.51</ele>
        <time>2016-05-15T13:59:50Z</time>
      </trkpt>
      <trkpt lat="49.16841" lon="1.73632">
        <ele>152.03</ele>
        <time>2016-05-15T13:59:55Z</time>
      </trkpt>
      <trkpt lat="49.16844" lon="1.73625">
        <ele>152.03</ele>
        <time>2016-05-15T14:00:07Z</time>
      </trkpt>
      <trkpt lat="49.16855" lon="1.73618">
        <ele>152.99</ele>
        <time>2016-05-15T14:00:21Z</time>
      </trkpt>
      <trkpt lat="49.1687" lon="1.73607">
        <ele>152.99</ele>
        <time>2016-05-15T14:00:37Z</time>
      </trkpt>
      <trkpt lat="49.16879" lon="1.73593">
        <ele>152.51</ele>
        <time>2016-05-15T14:00:55Z</time>
      </trkpt>
      <trkpt lat="49.16882" lon="1.73587">
        <ele>152.51</ele>
        <time>2016-05-15T14:00:58Z</time>
      </trkpt>
      <trkpt lat="49.16893" lon="1.73572">
        <ele>153.47</ele>
        <time>2016-05-15T14:01:12Z</time>
      </trkpt>
      <trkpt lat="49.16896" lon="1.7357">
        <ele>151.54</ele>
        <time>2016-05-15T14:01:24Z</time>
      </trkpt>
      <trkpt lat="49.16906" lon="1.73553">
        <ele>151.06</ele>
        <time>2016-05-15T14:01:39Z</time>
      </trkpt>
      <trkpt lat="49.16915" lon="1.73542">
        <ele>150.1</ele>
        <time>2016-05-15T14:01:51Z</time>
      </trkpt>
      <trkpt lat="49.16916" lon="1.7354">
        <ele>149.62</ele>
        <time>2016-05-15T14:01:53Z</time>
      </trkpt>
      <trkpt lat="49.16927" lon="1.73528">
        <ele>148.66</ele>
        <time>2016-05-15T14:02:07Z</time>
      </trkpt>
      <trkpt lat="49.16935" lon="1.73523">
        <ele>148.18</ele>
        <time>2016-05-15T14:02:13Z</time>
      </trkpt>
      <trkpt lat="49.16948" lon="1.73517">
        <ele>147.22</ele>
        <time>2016-05-15T14:02:27Z</time>
      </trkpt>
      <trkpt lat="49.16951" lon="1.7352">
        <ele>147.7</ele>
        <time>2016-05-15T14:02:34Z</time>
      </trkpt>
      <trkpt lat="49.16954" lon="1.73521">
        <ele>147.22</ele>
        <time>2016-05-15T14:02:37Z</time>
      </trkpt>
      <trkpt lat="49.16972" lon="1.73518">
        <ele>145.78</ele>
        <time>2016-05-15T14:02:55Z</time>
      </trkpt>
      <trkpt lat="49.16975" lon="1.73518">
        <ele>145.78</ele>
        <time>2016-05-15T14:02:57Z</time>
      </trkpt>
      <trkpt lat="49.16988" lon="1.7353">
        <ele>144.82</ele>
        <time>2016-05-15T14:03:13Z</time>
      </trkpt>
      <trkpt lat="49.16992" lon="1.73531">
        <ele>143.85</ele>
        <time>2016-05-15T14:03:20Z</time>
      </trkpt>
      <trkpt lat="49.17007" lon="1.73532">
        <ele>142.89</ele>
        <time>2016-05-15T14:03:33Z</time>
      </trkpt>
      <trkpt lat="49.17027" lon="1.73543">
        <ele>142.41</ele>
        <time>2016-05-15T14:03:50Z</time>
      </trkpt>
      <trkpt lat="49.17046" lon="1.73554">
        <ele>140.97</ele>
        <time>2016-05-15T14:04:06Z</time>
      </trkpt>
      <trkpt lat="49.17054" lon="1.73556">
        <ele>140.97</ele>
        <time>2016-05-15T14:04:15Z</time>
      </trkpt>
      <trkpt lat="49.17073" lon="1.7356">
        <ele>140.49</ele>
        <time>2016-05-15T14:04:29Z</time>
      </trkpt>
      <trkpt lat="49.17092" lon="1.73566">
        <ele>139.05</ele>
        <time>2016-05-15T14:04:48Z</time>
      </trkpt>
      <trkpt lat="49.17098" lon="1.73566">
        <ele>138.57</ele>
        <time>2016-05-15T14:05:03Z</time>
      </trkpt>
      <trkpt lat="49.17099" lon="1.73568">
        <ele>138.57</ele>
        <time>2016-05-15T14:05:23Z</time>
      </trkpt>
      <trkpt lat="49.17109" lon="1.73568">
        <ele>138.09</ele>
        <time>2016-05-15T14:05:38Z</time>
      </trkpt>
      <trkpt lat="49.17123" lon="1.7357">
        <ele>137.13</ele>
        <time>2016-05-15T14:05:53Z</time>
      </trkpt>
      <trkpt lat="49.1713" lon="1.73575">
        <ele>137.13</ele>
        <time>2016-05-15T14:06:00Z</time>
      </trkpt>
      <trkpt lat="49.17147" lon="1.73581">
        <ele>135.68</ele>
        <time>2016-05-15T14:06:16Z</time>
      </trkpt>
      <trkpt lat="49.17148" lon="1.73583">
        <ele>135.68</ele>
        <time>2016-05-15T14:06:18Z</time>
      </trkpt>
      <trkpt lat="49.17158" lon="1.73591">
        <ele>135.68</ele>
        <time>2016-05-15T14:06:28Z</time>
      </trkpt>
      <trkpt lat="49.17173" lon="1.73602">
        <ele>134.72</ele>
        <time>2016-05-15T14:06:42Z</time>
      </trkpt>
      <trkpt lat="49.1718" lon="1.73608">
        <ele>134.72</ele>
        <time>2016-05-15T14:06:58Z</time>
      </trkpt>
      <trkpt lat="49.17183" lon="1.73607">
        <ele>134.72</ele>
        <time>2016-05-15T14:07:15Z</time>
      </trkpt>
      <trkpt lat="49.17199" lon="1.73628">
        <ele>134.72</ele>
        <time>2016-05-15T14:07:33Z</time>
      </trkpt>
      <trkpt lat="49.17213" lon="1.73634">
        <ele>134.24</ele>
        <time>2016-05-15T14:07:48Z</time>
      </trkpt>
      <trkpt lat="49.17215" lon="1.73633">
        <ele>134.24</ele>
        <time>2016-05-15T14:08:00Z</time>
      </trkpt>
      <trkpt lat="49.17215" lon="1.73628">
        <ele>133.76</ele>
        <time>2016-05-15T14:08:24Z</time>
      </trkpt>
      <trkpt lat="49.17216" lon="1.7363">
        <ele>133.76</ele>
        <time>2016-05-15T14:08:42Z</time>
      </trkpt>
      <trkpt lat="49.17219" lon="1.73633">
        <ele>134.24</ele>
        <time>2016-05-15T14:09:04Z</time>
      </trkpt>
      <trkpt lat="49.17228" lon="1.73634">
        <ele>133.76</ele>
        <time>2016-05-15T14:09:17Z</time>
      </trkpt>
      <trkpt lat="49.17236" lon="1.73641">
        <ele>133.76</ele>
        <time>2016-05-15T14:09:40Z</time>
      </trkpt>
      <trkpt lat="49.17238" lon="1.73645">
        <ele>133.76</ele>
        <time>2016-05-15T14:09:46Z</time>
      </trkpt>
      <trkpt lat="49.17252" lon="1.73648">
        <ele>132.8</ele>
        <time>2016-05-15T14:10:01Z</time>
      </trkpt>
      <trkpt lat="49.17272" lon="1.73647">
        <ele>133.28</ele>
        <time>2016-05-15T14:10:19Z</time>
      </trkpt>
      <trkpt lat="49.17287" lon="1.73641">
        <ele>133.28</ele>
        <time>2016-05-15T14:10:36Z</time>
      </trkpt>
      <trkpt lat="49.173" lon="1.73628">
        <ele>133.76</ele>
        <time>2016-05-15T14:10:52Z</time>
      </trkpt>
      <trkpt lat="49.17314" lon="1.73608">
        <ele>134.24</ele>
        <time>2016-05-15T14:11:11Z</time>
      </trkpt>
      <trkpt lat="49.17326" lon="1.73586">
        <ele>133.76</ele>
        <time>2016-05-15T14:11:28Z</time>
      </trkpt>
      <trkpt lat="49.17343" lon="1.73564">
        <ele>132.8</ele>
        <time>2016-05-15T14:11:45Z</time>
      </trkpt>
      <trkpt lat="49.17356" lon="1.73541">
        <ele>131.36</ele>
        <time>2016-05-15T14:12:02Z</time>
      </trkpt>
      <trkpt lat="49.17364" lon="1.7352">
        <ele>130.4</ele>
        <time>2016-05-15T14:12:18Z</time>
      </trkpt>
      <trkpt lat="49.1737" lon="1.735">
        <ele>129.92</ele>
        <time>2016-05-15T14:12:34Z</time>
      </trkpt>
      <trkpt lat="49.17386" lon="1.73472">
        <ele>130.4</ele>
        <time>2016-05-15T14:12:53Z</time>
      </trkpt>
      <trkpt lat="49.17397" lon="1.73445">
        <ele>130.88</ele>
        <time>2016-05-15T14:13:12Z</time>
      </trkpt>
      <trkpt lat="49.174" lon="1.73435">
        <ele>130.88</ele>
        <time>2016-05-15T14:13:36Z</time>
      </trkpt>
      <trkpt lat="49.17408" lon="1.73417">
        <ele>130.88</ele>
        <time>2016-05-15T14:13:48Z</time>
      </trkpt>
      <trkpt lat="49.17415" lon="1.73403">
        <ele>130.88</ele>
        <time>2016-05-15T14:13:57Z</time>
      </trkpt>
      <trkpt lat="49.17428" lon="1.73372">
        <ele>131.36</ele>
        <time>2016-05-15T14:14:16Z</time>
      </trkpt>
      <trkpt lat="49.17426" lon="1.73367">
        <ele>131.36</ele>
        <time>2016-05-15T14:14:38Z</time>
      </trkpt>
      <trkpt lat="49.17425" lon="1.73361">
        <ele>131.36</ele>
        <time>2016-05-15T14:15:12Z</time>
      </trkpt>
      <trkpt lat="49.17425" lon="1.73362">
        <ele>131.36</ele>
        <time>2016-05-15T14:15:43Z</time>
      </trkpt>
      <trkpt lat="49.17424" lon="1.73364">
        <ele>131.36</ele>
        <time>2016-05-15T14:16:07Z</time>
      </trkpt>
      <trkpt lat="49.17425" lon="1.73366">
        <ele>131.36</ele>
        <time>2016-05-15T14:16:40Z</time>
      </trkpt>
      <trkpt lat="49.17427" lon="1.73371">
        <ele>131.36</ele>
        <time>2016-05-15T14:17:09Z</time>
      </trkpt>
      <trkpt lat="49.17429" lon="1.7336">
        <ele>130.88</ele>
        <time>2016-05-15T14:17:27Z</time>
      </trkpt>
      <trkpt lat="49.17432" lon="1.7335">
        <ele>131.36</ele>
        <time>2016-05-15T14:17:43Z</time>
      </trkpt>
      <trkpt lat="49.17441" lon="1.73328">
        <ele>131.84</ele>
        <time>2016-05-15T14:18:01Z</time>
      </trkpt>
      <trkpt lat="49.17444" lon="1.73309">
        <ele>131.36</ele>
        <time>2016-05-15T14:18:16Z</time>
      </trkpt>
      <trkpt lat="49.17447" lon="1.73296">
        <ele>131.36</ele>
        <time>2016-05-15T14:18:34Z</time>
      </trkpt>
      <trkpt lat="49.17448" lon="1.73285">
        <ele>131.36</ele>
        <time>2016-05-15T14:18:53Z</time>
      </trkpt>
      <trkpt lat="49.17463" lon="1.73247">
        <ele>130.4</ele>
        <time>2016-05-15T14:19:10Z</time>
      </trkpt>
      <trkpt lat="49.17468" lon="1.73222">
        <ele>128.47</ele>
        <time>2016-05-15T14:19:26Z</time>
      </trkpt>
      <trkpt lat="49.17468" lon="1.732">
        <ele>127.99</ele>
        <time>2016-05-15T14:19:41Z</time>
      </trkpt>
      <trkpt lat="49.17468" lon="1.73187">
        <ele>126.55</ele>
        <time>2016-05-15T14:19:57Z</time>
      </trkpt>
      <trkpt lat="49.17468" lon="1.73175">
        <ele>123.67</ele>
        <time>2016-05-15T14:20:04Z</time>
      </trkpt>
      <trkpt lat="49.17469" lon="1.73174">
        <ele>127.03</ele>
        <time>2016-05-15T14:20:06Z</time>
      </trkpt>
      <trkpt lat="49.1747" lon="1.73175">
        <ele>127.03</ele>
        <time>2016-05-15T14:20:07Z</time>
      </trkpt>
      <trkpt lat="49.17468" lon="1.73179">
        <ele>126.55</ele>
        <time>2016-05-15T14:20:28Z</time>
      </trkpt>
      <trkpt lat="49.17474" lon="1.7319">
        <ele>127.51</ele>
        <time>2016-05-15T14:20:39Z</time>
      </trkpt>
      <trkpt lat="49.17478" lon="1.73186">
        <ele>127.03</ele>
        <time>2016-05-15T14:20:54Z</time>
      </trkpt>
      <trkpt lat="49.17473" lon="1.73192">
        <ele>127.51</ele>
        <time>2016-05-15T14:21:24Z</time>
      </trkpt>
      <trkpt lat="49.17476" lon="1.73175">
        <ele>126.07</ele>
        <time>2016-05-15T14:21:49Z</time>
      </trkpt>
      <trkpt lat="49.17477" lon="1.73173">
        <ele>125.59</ele>
        <time>2016-05-15T14:21:50Z</time>
      </trkpt>
      <trkpt lat="49.17481" lon="1.73153">
        <ele>125.11</ele>
        <time>2016-05-15T14:22:05Z</time>
      </trkpt>
      <trkpt lat="49.17486" lon="1.73136">
        <ele>124.63</ele>
        <time>2016-05-15T14:22:16Z</time>
      </trkpt>
      <trkpt lat="49.17489" lon="1.73121">
        <ele>124.15</ele>
        <time>2016-05-15T14:22:31Z</time>
      </trkpt>
      <trkpt lat="49.17493" lon="1.73103">
        <ele>123.67</ele>
        <time>2016-05-15T14:22:47Z</time>
      </trkpt>
      <trkpt lat="49.17495" lon="1.7308">
        <ele>123.19</ele>
        <time>2016-05-15T14:23:05Z</time>
      </trkpt>
      <trkpt lat="49.17506" lon="1.73056">
        <ele>122.22</ele>
        <time>2016-05-15T14:23:19Z</time>
      </trkpt>
      <trkpt lat="49.17513" lon="1.73039">
        <ele>121.74</ele>
        <time>2016-05-15T14:23:33Z</time>
      </trkpt>
      <trkpt lat="49.17517" lon="1.73027">
        <ele>121.74</ele>
        <time>2016-05-15T14:23:45Z</time>
      </trkpt>
      <trkpt lat="49.1752" lon="1.73017">
        <ele>121.74</ele>
        <time>2016-05-15T14:23:57Z</time>
      </trkpt>
      <trkpt lat="49.17535" lon="1.72991">
        <ele>121.74</ele>
        <time>2016-05-15T14:24:11Z</time>
      </trkpt>
      <trkpt lat="49.17543" lon="1.72971">
        <ele>121.26</ele>
        <time>2016-05-15T14:24:25Z</time>
      </trkpt>
      <trkpt lat="49.17549" lon="1.72948">
        <ele>121.26</ele>
        <time>2016-05-15T14:24:42Z</time>
      </trkpt>
      <trkpt lat="49.17555" lon="1.72935">
        <ele>121.26</ele>
        <time>2016-05-15T14:24:53Z</time>
      </trkpt>
      <trkpt lat="49.17566" lon="1.72915">
        <ele>121.26</ele>
        <time>2016-05-15T14:25:08Z</time>
      </trkpt>
      <trkpt lat="49.17582" lon="1.72898">
        <ele>121.26</ele>
        <time>2016-05-15T14:25:22Z</time>
      </trkpt>
      <trkpt lat="49.17589" lon="1.72879">
        <ele>121.26</ele>
        <time>2016-05-15T14:25:37Z</time>
      </trkpt>
      <trkpt lat="49.17596" lon="1.72857">
        <ele>121.26</ele>
        <time>2016-05-15T14:25:53Z</time>
      </trkpt>
      <trkpt lat="49.17603" lon="1.72824">
        <ele>121.26</ele>
        <time>2016-05-15T14:26:12Z</time>
      </trkpt>
      <trkpt lat="49.17608" lon="1.72809">
        <ele>121.26</ele>
        <time>2016-05-15T14:26:27Z</time>
      </trkpt>
      <trkpt lat="49.17617" lon="1.72791">
        <ele>121.26</ele>
        <time>2016-05-15T14:26:40Z</time>
      </trkpt>
      <trkpt lat="49.17623" lon="1.72776">
        <ele>121.26</ele>
        <time>2016-05-15T14:26:54Z</time>
      </trkpt>
      <trkpt lat="49.17628" lon="1.72756">
        <ele>121.26</ele>
        <time>2016-05-15T14:27:10Z</time>
      </trkpt>
      <trkpt lat="49.17631" lon="1.72749">
        <ele>121.26</ele>
        <time>2016-05-15T14:27:24Z</time>
      </trkpt>
      <trkpt lat="49.1764" lon="1.72736">
        <ele>121.74</ele>
        <time>2016-05-15T14:27:44Z</time>
      </trkpt>
      <trkpt lat="49.17651" lon="1.72712">
        <ele>122.22</ele>
        <time>2016-05-15T14:28:03Z</time>
      </trkpt>
      <trkpt lat="49.1765" lon="1.72712">
        <ele>122.22</ele>
        <time>2016-05-15T14:28:20Z</time>
      </trkpt>
      <trkpt lat="49.17647" lon="1.72713">
        <ele>122.22</ele>
        <time>2016-05-15T14:28:46Z</time>
      </trkpt>
      <trkpt lat="49.1764" lon="1.72714">
        <ele>122.71</ele>
        <time>2016-05-15T14:29:14Z</time>
      </trkpt>
      <trkpt lat="49.17645" lon="1.72712">
        <ele>122.71</ele>
        <time>2016-05-15T14:29:40Z</time>
      </trkpt>
      <trkpt lat="49.17648" lon="1.72707">
        <ele>122.71</ele>
        <time>2016-05-15T14:30:09Z</time>
      </trkpt>
      <trkpt lat="49.17657" lon="1.72688">
        <ele>123.19</ele>
        <time>2016-05-15T14:30:27Z</time>
      </trkpt>
      <trkpt lat="49.17656" lon="1.72672">
        <ele>123.67</ele>
        <time>2016-05-15T14:30:44Z</time>
      </trkpt>
      <trkpt lat="49.17668" lon="1.7265">
        <ele>123.67</ele>
        <time>2016-05-15T14:31:00Z</time>
      </trkpt>
      <trkpt lat="49.17676" lon="1.72631">
        <ele>123.19</ele>
        <time>2016-05-15T14:31:17Z</time>
      </trkpt>
      <trkpt lat="49.17692" lon="1.72597">
        <ele>122.22</ele>
        <time>2016-05-15T14:31:32Z</time>
      </trkpt>
      <trkpt lat="49.17706" lon="1.72565">
        <ele>121.74</ele>
        <time>2016-05-15T14:31:48Z</time>
      </trkpt>
      <trkpt lat="49.17712" lon="1.72541">
        <ele>120.78</ele>
        <time>2016-05-15T14:32:07Z</time>
      </trkpt>
      <trkpt lat="49.17714" lon="1.72537">
        <ele>120.3</ele>
        <time>2016-05-15T14:32:09Z</time>
      </trkpt>
      <trkpt lat="49.17723" lon="1.72523">
        <ele>119.82</ele>
        <time>2016-05-15T14:32:15Z</time>
      </trkpt>
      <trkpt lat="49.17734" lon="1.72496">
        <ele>119.34</ele>
        <time>2016-05-15T14:32:32Z</time>
      </trkpt>
      <trkpt lat="49.17745" lon="1.72478">
        <ele>118.86</ele>
        <time>2016-05-15T14:32:43Z</time>
      </trkpt>
      <trkpt lat="49.17749" lon="1.72476">
        <ele>118.38</ele>
        <time>2016-05-15T14:32:47Z</time>
      </trkpt>
      <trkpt lat="49.17764" lon="1.72485">
        <ele>118.86</ele>
        <time>2016-05-15T14:33:03Z</time>
      </trkpt>
      <trkpt lat="49.17774" lon="1.72489">
        <ele>119.82</ele>
        <time>2016-05-15T14:33:18Z</time>
      </trkpt>
      <trkpt lat="49.17783" lon="1.72524">
        <ele>121.74</ele>
        <time>2016-05-15T14:33:37Z</time>
      </trkpt>
      <trkpt lat="49.17797" lon="1.72545">
        <ele>124.15</ele>
        <time>2016-05-15T14:33:57Z</time>
      </trkpt>
      <trkpt lat="49.1781" lon="1.72571">
        <ele>126.55</ele>
        <time>2016-05-15T14:34:16Z</time>
      </trkpt>
      <trkpt lat="49.17834" lon="1.72591">
        <ele>129.43</ele>
        <time>2016-05-15T14:34:39Z</time>
      </trkpt>
      <trkpt lat="49.17847" lon="1.72604">
        <ele>130.88</ele>
        <time>2016-05-15T14:34:58Z</time>
      </trkpt>
      <trkpt lat="49.17862" lon="1.72631">
        <ele>133.28</ele>
        <time>2016-05-15T14:35:21Z</time>
      </trkpt>
      <trkpt lat="49.17866" lon="1.72637">
        <ele>134.24</ele>
        <time>2016-05-15T14:35:26Z</time>
      </trkpt>
      <trkpt lat="49.17869" lon="1.72647">
        <ele>134.72</ele>
        <time>2016-05-15T14:35:33Z</time>
      </trkpt>
      <trkpt lat="49.17873" lon="1.72662">
        <ele>135.2</ele>
        <time>2016-05-15T14:35:43Z</time>
      </trkpt>
      <trkpt lat="49.17874" lon="1.72664">
        <ele>135.68</ele>
        <time>2016-05-15T14:35:45Z</time>
      </trkpt>
      <trkpt lat="49.17882" lon="1.72688">
        <ele>136.16</ele>
        <time>2016-05-15T14:36:01Z</time>
      </trkpt>
      <trkpt lat="49.17889" lon="1.72709">
        <ele>137.13</ele>
        <time>2016-05-15T14:36:16Z</time>
      </trkpt>
      <trkpt lat="49.17899" lon="1.72733">
        <ele>138.09</ele>
        <time>2016-05-15T14:36:32Z</time>
      </trkpt>
      <trkpt lat="49.17906" lon="1.72753">
        <ele>138.57</ele>
        <time>2016-05-15T14:36:46Z</time>
      </trkpt>
      <trkpt lat="49.1791" lon="1.72765">
        <ele>139.05</ele>
        <time>2016-05-15T14:36:54Z</time>
      </trkpt>
      <trkpt lat="49.17914" lon="1.72773">
        <ele>139.53</ele>
        <time>2016-05-15T14:37:00Z</time>
      </trkpt>
      <trkpt lat="49.17918" lon="1.72789">
        <ele>140.01</ele>
        <time>2016-05-15T14:37:12Z</time>
      </trkpt>
      <trkpt lat="49.17927" lon="1.72813">
        <ele>140.49</ele>
        <time>2016-05-15T14:37:28Z</time>
      </trkpt>
      <trkpt lat="49.17935" lon="1.7283">
        <ele>141.45</ele>
        <time>2016-05-15T14:37:41Z</time>
      </trkpt>
      <trkpt lat="49.17944" lon="1.72847">
        <ele>141.45</ele>
        <time>2016-05-15T14:37:54Z</time>
      </trkpt>
      <trkpt lat="49.17949" lon="1.72863">
        <ele>141.45</ele>
        <time>2016-05-15T14:38:05Z</time>
      </trkpt>
      <trkpt lat="49.1795" lon="1.72866">
        <ele>141.45</ele>
        <time>2016-05-15T14:38:07Z</time>
      </trkpt>
      <trkpt lat="49.17956" lon="1.72876">
        <ele>141.45</ele>
        <time>2016-05-15T14:38:15Z</time>
      </trkpt>
      <trkpt lat="49.17966" lon="1.72895">
        <ele>141.93</ele>
        <time>2016-05-15T14:38:27Z</time>
      </trkpt>
      <trkpt lat="49.17973" lon="1.72905">
        <ele>141.93</ele>
        <time>2016-05-15T14:38:41Z</time>
      </trkpt>
      <trkpt lat="49.17979" lon="1.72915">
        <ele>141.93</ele>
        <time>2016-05-15T14:38:54Z</time>
      </trkpt>
      <trkpt lat="49.17989" lon="1.7293">
        <ele>141.93</ele>
        <time>2016-05-15T14:39:08Z</time>
      </trkpt>
      <trkpt lat="49.18001" lon="1.72944">
        <ele>140.97</ele>
        <time>2016-05-15T14:39:23Z</time>
      </trkpt>
      <trkpt lat="49.18012" lon="1.72958">
        <ele>141.45</ele>
        <time>2016-05-15T14:39:36Z</time>
      </trkpt>
      <trkpt lat="49.18016" lon="1.72965">
        <ele>141.45</ele>
        <time>2016-05-15T14:39:41Z</time>
      </trkpt>
      <trkpt lat="49.18031" lon="1.72984">
        <ele>141.93</ele>
        <time>2016-05-15T14:39:58Z</time>
      </trkpt>
      <trkpt lat="49.1805" lon="1.73001">
        <ele>141.93</ele>
        <time>2016-05-15T14:40:17Z</time>
      </trkpt>
      <trkpt lat="49.18065" lon="1.73019">
        <ele>142.41</ele>
        <time>2016-05-15T14:40:34Z</time>
      </trkpt>
      <trkpt lat="49.18078" lon="1.73033">
        <ele>142.41</ele>
        <time>2016-05-15T14:40:49Z</time>
      </trkpt>
      <trkpt lat="49.18093" lon="1.73051">
        <ele>142.41</ele>
        <time>2016-05-15T14:41:05Z</time>
      </trkpt>
      <trkpt lat="49.18104" lon="1.73062">
        <ele>142.41</ele>
        <time>2016-05-15T14:41:18Z</time>
      </trkpt>
      <trkpt lat="49.18115" lon="1.73068">
        <ele>142.41</ele>
        <time>2016-05-15T14:41:28Z</time>
      </trkpt>
      <trkpt lat="49.18119" lon="1.73073">
        <ele>142.41</ele>
        <time>2016-05-15T14:41:33Z</time>
      </trkpt>
      <trkpt lat="49.18136" lon="1.73086">
        <ele>142.89</ele>
        <time>2016-05-15T14:41:50Z</time>
      </trkpt>
      <trkpt lat="49.18156" lon="1.731">
        <ele>142.41</ele>
        <time>2016-05-15T14:42:07Z</time>
      </trkpt>
      <trkpt lat="49.1817" lon="1.73116">
        <ele>142.41</ele>
        <time>2016-05-15T14:42:23Z</time>
      </trkpt>
      <trkpt lat="49.18189" lon="1.73124">
        <ele>142.41</ele>
        <time>2016-05-15T14:42:38Z</time>
      </trkpt>
      <trkpt lat="49.1821" lon="1.73135">
        <ele>142.89</ele>
        <time>2016-05-15T14:42:55Z</time>
      </trkpt>
      <trkpt lat="49.18219" lon="1.73141">
        <ele>142.41</ele>
        <time>2016-05-15T14:43:09Z</time>
      </trkpt>
      <trkpt lat="49.18218" lon="1.73143">
        <ele>142.41</ele>
        <time>2016-05-15T14:43:34Z</time>
      </trkpt>
      <trkpt lat="49.18217" lon="1.73144">
        <ele>142.89</ele>
        <time>2016-05-15T14:43:55Z</time>
      </trkpt>
      <trkpt lat="49.18218" lon="1.73142">
        <ele>143.37</ele>
        <time>2016-05-15T14:44:13Z</time>
      </trkpt>
      <trkpt lat="49.18217" lon="1.73145">
        <ele>142.89</ele>
        <time>2016-05-15T14:44:35Z</time>
      </trkpt>
      <trkpt lat="49.18219" lon="1.7314">
        <ele>142.89</ele>
        <time>2016-05-15T14:45:03Z</time>
      </trkpt>
      <trkpt lat="49.18211" lon="1.73149">
        <ele>142.89</ele>
        <time>2016-05-15T14:45:28Z</time>
      </trkpt>
      <trkpt lat="49.18224" lon="1.73144">
        <ele>142.89</ele>
        <time>2016-05-15T14:45:47Z</time>
      </trkpt>
      <trkpt lat="49.18228" lon="1.73145">
        <ele>142.89</ele>
        <time>2016-05-15T14:45:49Z</time>
      </trkpt>
      <trkpt lat="49.18234" lon="1.73147">
        <ele>142.89</ele>
        <time>2016-05-15T14:45:55Z</time>
      </trkpt>
      <trkpt lat="49.18239" lon="1.73149">
        <ele>142.89</ele>
        <time>2016-05-15T14:46:00Z</time>
      </trkpt>
      <trkpt lat="49.18251" lon="1.73158">
        <ele>142.41</ele>
        <time>2016-05-15T14:46:15Z</time>
      </trkpt>
      <trkpt lat="49.18274" lon="1.73172">
        <ele>142.41</ele>
        <time>2016-05-15T14:46:33Z</time>
      </trkpt>
      <trkpt lat="49.18292" lon="1.73179">
        <ele>141.93</ele>
        <time>2016-05-15T14:46:49Z</time>
      </trkpt>
      <trkpt lat="49.18296" lon="1.7318">
        <ele>141.45</ele>
        <time>2016-05-15T14:46:53Z</time>
      </trkpt>
      <trkpt lat="49.18299" lon="1.73182">
        <ele>141.93</ele>
        <time>2016-05-15T14:46:55Z</time>
      </trkpt>
      <trkpt lat="49.18314" lon="1.73166">
        <ele>141.45</ele>
        <time>2016-05-15T14:47:09Z</time>
      </trkpt>
      <trkpt lat="49.18321" lon="1.73162">
        <ele>141.45</ele>
        <time>2016-05-15T14:47:27Z</time>
      </trkpt>
      <trkpt lat="49.18321" lon="1.73158">
        <ele>141.45</ele>
        <time>2016-05-15T14:47:31Z</time>
      </trkpt>
      <trkpt lat="49.18328" lon="1.73127">
        <ele>140.01</ele>
        <time>2016-05-15T14:47:51Z</time>
      </trkpt>
      <trkpt lat="49.18336" lon="1.73096">
        <ele>139.53</ele>
        <time>2016-05-15T14:48:10Z</time>
      </trkpt>
      <trkpt lat="49.18338" lon="1.73084">
        <ele>138.57</ele>
        <time>2016-05-15T14:48:17Z</time>
      </trkpt>
      <trkpt lat="49.18346" lon="1.73057">
        <ele>137.13</ele>
        <time>2016-05-15T14:48:35Z</time>
      </trkpt>
      <trkpt lat="49.18353" lon="1.73033">
        <ele>135.68</ele>
        <time>2016-05-15T14:48:51Z</time>
      </trkpt>
      <trkpt lat="49.18361" lon="1.73008">
        <ele>133.28</ele>
        <time>2016-05-15T14:49:05Z</time>
      </trkpt>
      <trkpt lat="49.18365" lon="1.72978">
        <ele>131.36</ele>
        <time>2016-05-15T14:49:22Z</time>
      </trkpt>
      <trkpt lat="49.18371" lon="1.72963">
        <ele>129.92</ele>
        <time>2016-05-15T14:49:39Z</time>
      </trkpt>
      <trkpt lat="49.18376" lon="1.72965">
        <ele>129.92</ele>
        <time>2016-05-15T14:49:44Z</time>
      </trkpt>
      <trkpt lat="49.18393" lon="1.72972">
        <ele>129.92</ele>
        <time>2016-05-15T14:50:00Z</time>
      </trkpt>
      <trkpt lat="49.18387" lon="1.7298">
        <ele>129.92</ele>
        <time>2016-05-15T14:50:18Z</time>
      </trkpt>
      <trkpt lat="49.1839" lon="1.72984">
        <ele>129.92</ele>
        <time>2016-05-15T14:50:24Z</time>
      </trkpt>
      <trkpt lat="49.18393" lon="1.72986">
        <ele>130.4</ele>
        <time>2016-05-15T14:50:27Z</time>
      </trkpt>
      <trkpt lat="49.18419" lon="1.72994">
        <ele>130.88</ele>
        <time>2016-05-15T14:50:44Z</time>
      </trkpt>
      <trkpt lat="49.18425" lon="1.73">
        <ele>131.36</ele>
        <time>2016-05-15T14:50:50Z</time>
      </trkpt>
      <trkpt lat="49.18442" lon="1.73013">
        <ele>130.4</ele>
        <time>2016-05-15T14:51:07Z</time>
      </trkpt>
      <trkpt lat="49.18447" lon="1.73018">
        <ele>130.88</ele>
        <time>2016-05-15T14:51:12Z</time>
      </trkpt>
      <trkpt lat="49.18449" lon="1.73019">
        <ele>130.88</ele>
        <time>2016-05-15T14:51:14Z</time>
      </trkpt>
      <trkpt lat="49.18453" lon="1.73026">
        <ele>130.88</ele>
        <time>2016-05-15T14:51:19Z</time>
      </trkpt>
      <trkpt lat="49.18456" lon="1.73041">
        <ele>129.92</ele>
        <time>2016-05-15T14:51:28Z</time>
      </trkpt>
    </trkseg>
  </trk>
</gpx>